[[{"header":{"parameterUnit":"m.s-1","parameterCategory":1,"la1":30.6,"la2":29.2853,"lo1":-89.7004,"lo2":-87.6739,"dy":0.0162,"dx":0.0183,"nx":112,"ny":82,"refTime":"2023-11-17T06:00:00:Z","depth":0,"parameterNumber":2,"parameterNumberName":"U-component_of_WINDS"},"data":[0.0,0.0,0.0,0.0,0.0,0.0,0.0,0.0,0.0,0.0,0.0,0.0,0.0,0.0,0.0,0.0,0.0,0.0,0.0,0.0,0.0,0.0,0.0,0.0,0.0,0.0,0.0,0.0,0.0,0.0,0.0,0.0,0.0,0.0,0.0,0.0,0.0,0.0,0.0,0.0,0.0,0.0,0.0,0.0,0.0,0.0,0.0,0.0,0.0,0.0,0.0,0.0,0.0,0.0,0.0,0.0,0.0,0.0,0.0,0.0,0.0,0.0,0.0,0.0,0.0,0.0,0.0,0.0,0.0,0.0,0.0,0.0,0.0,0.0,0.0,0.0,0.0,0.0,0.0,0.0,0.0,0.0,0.0,0.0,0.0,0.0,0.0,0.0,0.0,0.0,0.0,4.3536,4.92,5.2045,5.0625,4.9335,4.487,3.6051,0.0,0.0,0.0,0.0,0.0,0.0,0.0,0.0,0.0,0.0,0.0,0.0,0.0,0.0,0.0,0.0,0.0,0.0,0.0,0.0,0.0,0.0,0.0,0.0,0.0,0.0,0.0,0.0,0.0,0.0,0.0,0.0,0.0,0.0,0.0,0.0,0.0,0.0,0.0,0.0,0.0,0.0,0.0,0.0,0.0,0.0,0.0,0.0,0.0,0.0,0.0,0.0,0.0,0.0,0.0,0.0,0.0,0.0,0.0,0.0,0.0,0.0,0.0,0.0,0.0,0.0,0.0,0.0,0.0,0.0,0.0,0.0,0.0,0.0,0.0,0.0,0.0,0.0,0.0,0.0,0.0,0.0,0.0,0.0,0.0,0.0,0.0,0.0,0.0,0.0,0.0,0.0,0.0,0.0,0.0,0.0,0.0,0.0,0.0,0.0,0.0,0.0,0.0,0.0,3.9719,4.7605,4.9348,4.9869,4.9625,4.6818,4.2343,3.5917,0.0,0.0,0.0,0.0,0.0,0.0,0.0,0.0,0.0,0.0,0.0,0.0,0.0,0.0,0.0,0.0,0.0,0.0,0.0,0.0,0.0,0.0,0.0,0.0,0.0,0.0,0.0,0.0,0.0,0.0,0.0,0.0,0.0,0.0,0.0,0.0,0.0,0.0,0.0,0.0,0.0,0.0,0.0,0.0,0.0,0.0,0.0,0.0,0.0,0.0,0.0,0.0,0.0,0.0,0.0,0.0,0.0,0.0,0.0,0.0,0.0,0.0,0.0,0.0,0.0,0.0,0.0,0.0,0.0,0.0,0.0,0.0,0.0,0.0,0.0,0.0,0.0,0.0,0.0,0.0,0.0,0.0,0.0,0.0,0.0,0.0,0.0,0.0,0.0,0.0,0.0,0.0,0.0,0.0,0.0,0.0,0.0,0.0,0.0,0.0,0.0,0.0,0.0,3.8684,4.2362,4.8086,4.9546,4.972,4.8778,4.599,4.1961,3.6489,3.5198,0.0,0.0,0.0,0.0,0.0,0.0,0.0,0.0,0.0,0.0,0.0,0.0,0.0,0.0,0.0,0.0,0.0,0.0,0.0,0.0,0.0,0.0,0.0,0.0,0.0,0.0,0.0,0.0,0.0,0.0,0.0,0.0,0.0,0.0,0.0,0.0,0.0,0.0,0.0,0.0,0.0,0.0,0.0,0.0,0.0,0.0,0.0,0.0,0.0,0.0,0.0,0.0,0.0,0.0,0.0,0.0,0.0,0.0,0.0,0.0,0.0,0.0,0.0,0.0,0.0,0.0,0.0,0.0,0.0,0.0,0.0,0.0,0.0,0.0,0.0,0.0,0.0,0.0,0.0,0.0,0.0,0.0,0.0,0.0,0.0,0.0,0.0,0.0,0.0,0.0,0.0,0.0,0.0,0.0,0.0,0.0,0.0,0.0,0.0,0.0,0.0,0.0,4.2354,4.4515,4.7511,4.901,4.9258,4.7927,4.4934,4.1272,3.698,3.3762,0.0,0.0,0.0,0.0,0.0,0.0,0.0,0.0,0.0,0.0,0.0,0.0,0.0,0.0,0.0,0.0,0.0,0.0,0.0,0.0,0.0,0.0,0.0,0.0,0.0,0.0,0.0,0.0,0.0,0.0,0.0,0.0,0.0,0.0,0.0,0.0,0.0,0.0,0.0,0.0,0.0,0.0,0.0,0.0,0.0,0.0,0.0,0.0,0.0,0.0,0.0,0.0,0.0,0.0,0.0,0.0,0.0,0.0,0.0,0.0,0.0,0.0,0.0,0.0,0.0,0.0,0.0,0.0,0.0,0.0,0.0,0.0,0.0,0.0,0.0,0.0,0.0,0.0,0.0,0.0,0.0,0.0,0.0,0.0,0.0,0.0,0.0,0.0,0.0,0.0,0.0,0.0,0.0,0.0,0.0,0.0,0.0,0.0,0.0,0.0,0.0,0.0,4.1744,4.4937,4.6781,4.7087,4.7103,4.7005,4.2482,3.881,3.683,3.2077,0.0,0.0,0.0,0.0,0.0,0.0,0.0,0.0,0.0,0.0,0.0,0.0,0.0,0.0,0.0,0.0,0.0,0.0,0.0,0.0,0.0,0.0,0.0,0.0,0.0,0.0,0.0,0.0,0.0,0.0,0.0,0.0,0.0,0.0,0.0,0.0,0.0,0.0,0.0,0.0,0.0,0.0,0.0,0.0,0.0,0.0,0.0,0.0,0.0,0.0,0.0,0.0,0.0,0.0,0.0,0.0,0.0,0.0,0.0,0.0,0.0,0.0,0.0,0.0,0.0,0.0,0.0,0.0,0.0,0.0,0.0,0.0,0.0,0.0,0.0,0.0,0.0,0.0,0.0,0.0,0.0,0.0,0.0,0.0,0.0,0.0,0.0,0.0,0.0,0.0,0.0,0.0,0.0,0.0,0.0,0.0,0.0,0.0,0.0,0.0,0.0,0.0,4.0765,4.3593,0.0,4.6584,4.6679,4.6142,4.2865,3.9903,3.7648,0.0,0.0,0.0,0.0,0.0,0.0,0.0,0.0,0.0,0.0,0.0,0.0,0.0,0.0,0.0,0.0,0.0,0.0,0.0,0.0,0.0,0.0,0.0,0.0,0.0,0.0,0.0,0.0,0.0,0.0,0.0,0.0,0.0,0.0,0.0,0.0,0.0,0.0,0.0,0.0,0.0,0.0,0.0,0.0,0.0,0.0,0.0,0.0,0.0,0.0,0.0,0.0,0.0,0.0,0.0,0.0,0.0,0.0,0.0,0.0,0.0,0.0,0.0,0.0,0.0,0.0,0.0,0.0,0.0,0.0,0.0,0.0,0.0,0.0,0.0,0.0,0.0,0.0,0.0,0.0,0.0,0.0,0.0,0.0,0.0,0.0,0.0,0.0,0.0,0.0,0.0,0.0,0.0,0.0,0.0,0.0,0.0,0.0,0.0,0.0,0.0,0.0,3.739,4.0219,4.2769,0.0,4.6123,4.6238,4.5643,4.2272,3.9554,3.8086,0.0,0.0,0.0,0.0,0.0,0.0,0.0,0.0,0.0,0.0,0.0,0.0,0.0,0.0,0.0,0.0,0.0,0.0,0.0,0.0,0.0,0.0,0.0,0.0,0.0,0.0,0.0,0.0,0.0,0.0,0.0,0.0,0.0,0.0,0.0,0.0,0.0,0.0,0.0,0.0,0.0,0.0,0.0,0.0,0.0,0.0,0.0,0.0,0.0,0.0,0.0,0.0,0.0,0.0,0.0,0.0,0.0,0.0,0.0,0.0,0.0,0.0,0.0,0.0,0.0,0.0,0.0,0.0,0.0,0.0,0.0,0.0,0.0,0.0,0.0,0.0,0.0,0.0,0.0,0.0,0.0,0.0,0.0,0.0,0.0,0.0,0.0,0.0,0.0,0.0,0.0,0.0,0.0,0.0,0.0,0.0,0.0,0.0,0.0,0.0,0.0,0.0,3.7448,4.0219,4.2769,4.5297,4.5586,4.5586,4.5566,4.0151,3.7092,0.0,0.0,0.0,0.0,0.0,0.0,0.0,0.0,0.0,0.0,0.0,0.0,0.0,0.0,0.0,0.0,0.0,0.0,0.0,0.0,0.0,0.0,0.0,0.0,0.0,0.0,0.0,0.0,0.0,0.0,0.0,0.0,0.0,0.0,0.0,0.0,0.0,0.0,0.0,0.0,0.0,0.0,0.0,0.0,0.0,0.0,0.0,0.0,0.0,0.0,0.0,0.0,0.0,0.0,0.0,0.0,0.0,0.0,0.0,0.0,0.0,0.0,0.0,0.0,0.0,0.0,0.0,0.0,0.0,0.0,0.0,0.0,0.0,0.0,0.0,0.0,0.0,0.0,0.0,0.0,0.0,0.0,0.0,0.0,0.0,0.0,0.0,0.0,0.0,0.0,0.0,0.0,0.0,0.0,0.0,0.0,0.0,0.0,0.0,0.0,0.0,0.0,0.0,3.668,3.9849,4.2311,4.3688,4.4895,4.5124,4.3938,4.059,3.838,3.8022,0.0,0.0,0.0,0.0,0.0,0.0,0.0,0.0,0.0,0.0,0.0,0.0,0.0,0.0,0.0,0.0,0.0,0.0,0.0,0.0,0.0,0.0,0.0,0.0,0.0,0.0,0.0,0.0,0.0,0.0,0.0,0.0,0.0,0.0,0.0,0.0,0.0,0.0,0.0,0.0,0.0,0.0,0.0,0.0,0.0,0.0,0.0,0.0,0.0,0.0,0.0,0.0,0.0,0.0,0.0,0.0,0.0,0.0,0.0,0.0,0.0,0.0,0.0,0.0,0.0,0.0,0.0,0.0,0.0,0.0,0.0,0.0,0.0,0.0,0.0,0.0,0.0,0.0,0.0,0.0,0.0,0.0,0.0,0.0,0.0,0.0,0.0,0.0,0.0,0.0,0.0,0.0,0.0,0.0,0.0,0.0,0.0,0.0,0.0,0.0,0.0,0.0,3.6323,3.9112,4.1387,4.294,4.4008,4.4198,4.319,4.0452,3.827,3.7081,0.0,0.0,0.0,0.0,0.0,0.0,0.0,0.0,0.0,0.0,0.0,0.0,0.0,0.0,0.0,0.0,0.0,0.0,0.0,0.0,0.0,0.0,0.0,0.0,0.0,0.0,0.0,0.0,0.0,0.0,0.0,0.0,0.0,0.0,0.0,0.0,0.0,0.0,0.0,0.0,0.0,0.0,0.0,0.0,0.0,0.0,0.0,0.0,0.0,0.0,0.0,0.0,0.0,0.0,0.0,0.0,0.0,0.0,0.0,0.0,0.0,0.0,0.0,0.0,0.0,0.0,0.0,0.0,0.0,0.0,0.0,0.0,0.0,0.0,0.0,0.0,0.0,0.0,0.0,0.0,0.0,0.0,0.0,0.0,0.0,0.0,0.0,0.0,0.0,0.0,0.0,0.0,0.0,0.0,0.0,0.0,0.0,0.0,0.0,0.0,0.0,0.0,3.6169,3.818,4.0207,4.2595,4.3002,4.3038,4.2881,3.9868,3.732,3.57,0.0,0.0,0.0,0.0,0.0,0.0,0.0,0.0,0.0,0.0,0.0,0.0,0.0,0.0,0.0,0.0,0.0,0.0,0.0,0.0,0.0,0.0,0.0,0.0,0.0,0.0,0.0,0.0,0.0,0.0,0.0,0.0,0.0,0.0,0.0,0.0,0.0,0.0,0.0,0.0,0.0,0.0,0.0,0.0,0.0,0.0,0.0,0.0,0.0,0.0,0.0,0.0,0.0,0.0,0.0,0.0,0.0,0.0,0.0,0.0,3.0497,0.0,0.0,0.0,0.0,0.0,0.0,0.0,0.0,0.0,0.0,0.0,0.0,0.0,0.0,0.0,0.0,0.0,0.0,0.0,0.0,0.0,0.0,0.0,0.0,0.0,0.0,0.0,0.0,0.0,0.0,0.0,0.0,0.0,0.0,0.0,0.0,0.0,0.0,0.0,0.0,0.0,3.5411,3.7839,3.9746,4.0915,4.2287,4.2553,4.1181,3.9173,3.7555,3.6523,3.2983,0.0,0.0,0.0,0.0,0.0,0.0,0.0,0.0,0.0,0.0,0.0,0.0,0.0,0.0,0.0,0.0,0.0,0.0,0.0,0.0,0.0,0.0,0.0,0.0,0.0,0.0,0.0,0.0,0.0,0.0,0.0,0.0,0.0,0.0,0.0,0.0,0.0,0.0,0.0,0.0,0.0,0.0,0.0,0.0,0.0,0.0,0.0,0.0,0.0,0.0,0.0,0.0,0.0,0.0,0.0,0.0,0.0,0.0,0.0,0.0,3.2308,0.0,0.0,0.0,0.0,0.0,0.0,0.0,0.0,0.0,0.0,0.0,0.0,0.0,0.0,0.0,0.0,0.0,0.0,0.0,0.0,0.0,0.0,0.0,0.0,0.0,0.0,0.0,0.0,0.0,0.0,0.0,0.0,0.0,0.0,0.0,0.0,0.0,0.0,0.0,0.0,3.5218,3.7363,3.915,4.0373,4.1309,4.1482,4.0581,3.9342,3.792,3.6232,3.367,0.0,0.0,0.0,0.0,0.0,0.0,0.0,0.0,0.0,0.0,0.0,0.0,0.0,0.0,0.0,0.0,0.0,0.0,0.0,0.0,0.0,0.0,0.0,0.0,0.0,0.0,0.0,0.0,0.0,0.0,0.0,0.0,0.0,0.0,0.0,0.0,0.0,0.0,0.0,0.0,0.0,0.0,0.0,0.0,0.0,0.0,0.0,0.0,0.0,0.0,0.0,0.0,0.0,3.9352,3.939,3.9101,3.9097,3.9109,3.9061,3.8328,3.7219,3.5862,3.4834,0.0,0.0,0.0,0.0,0.0,0.0,0.0,0.0,0.0,0.0,0.0,0.0,0.0,0.0,0.0,0.0,0.0,0.0,0.0,0.0,0.0,0.0,0.0,0.0,3.2211,3.1744,2.9493,0.0,0.0,0.0,0.0,0.0,0.0,0.0,0.0,0.0,0.0,0.0,3.5032,3.6868,3.8635,4.0315,4.0489,4.0489,4.0489,3.9762,3.8266,3.5864,3.4758,3.2802,0.0,0.0,0.0,0.0,0.0,0.0,0.0,0.0,0.0,0.0,0.0,0.0,0.0,0.0,0.0,0.0,0.0,0.0,0.0,0.0,0.0,0.0,0.0,0.0,0.0,0.0,0.0,0.0,0.0,0.0,0.0,0.0,3.1855,3.1855,0.0,0.0,0.0,0.0,0.0,0.0,0.0,0.0,0.0,0.0,0.0,0.0,0.0,3.8473,3.8803,4.1792,4.3013,4.2462,4.4671,4.492,4.3476,4.3476,4.3457,4.3455,4.3338,0.0,3.756,3.5982,0.0,0.0,0.0,0.0,0.0,0.0,0.0,0.0,0.0,0.0,0.0,0.0,0.0,0.0,0.0,0.0,0.0,0.0,0.0,0.0,0.0,0.0,3.3049,3.3365,3.4251,3.4702,0.0,3.1804,2.985,2.7937,2.74,0.0,0.0,0.0,0.0,0.0,0.0,0.0,3.4139,3.6507,3.8635,4.0315,4.0489,4.0489,4.0489,3.9762,3.852,3.6669,3.5067,3.3352,3.1429,3.0008,0.0,0.0,0.0,0.0,0.0,0.0,0.0,0.0,0.0,0.0,0.0,0.0,0.0,0.0,0.0,0.0,0.0,0.0,0.0,0.0,0.0,0.0,0.0,0.0,0.0,0.0,0.0,0.0,0.0,3.2207,3.3262,3.2305,3.334,3.3613,0.0,0.0,0.0,0.0,0.0,0.0,0.0,0.0,0.0,3.8799,4.0515,4.1884,4.2833,4.5227,4.6493,4.6647,4.778,4.7914,4.7126,4.6201,4.5759,4.5722,4.524,4.397,4.2104,3.9922,3.8208,3.6776,0.0,0.0,0.0,0.0,3.5162,3.5245,3.6408,3.6131,3.522,3.5085,0.0,0.0,0.0,0.0,0.0,0.0,0.0,0.0,0.0,0.0,3.4856,3.5867,3.6516,3.6938,3.704,3.5416,3.3115,0.0,3.0394,3.052,2.9426,0.0,0.0,0.0,0.0,3.2871,3.4705,3.7137,3.9,3.9742,4.0239,4.0123,3.9189,3.9227,3.8558,3.6807,3.5129,3.3461,3.1768,3.0975,3.0078,0.0,0.0,0.0,0.0,0.0,0.0,0.0,0.0,0.0,0.0,0.0,0.0,0.0,0.0,0.0,0.0,0.0,0.0,0.0,0.0,0.0,0.0,0.0,0.0,0.0,0.0,0.0,0.0,3.3398,3.4492,3.3008,3.4922,3.5527,0.0,0.0,0.0,0.0,0.0,0.0,3.8003,3.9681,4.1163,4.2411,4.4154,4.5745,4.7203,4.8449,4.9409,5.0045,4.9836,4.9625,4.9356,4.8105,4.7412,4.7163,4.6297,4.5932,4.574,4.319,4.102,3.92,3.8093,3.73,3.6901,3.795,3.8055,3.8009,4.0367,3.9803,3.806,3.8061,3.6796,3.4611,3.1388,0.0,0.0,0.0,0.0,3.1571,3.3385,3.4887,3.6342,3.8129,3.8597,3.8827,3.9458,3.8428,3.6377,0.0,3.3188,3.3332,3.1699,0.0,0.0,0.0,0.0,3.3619,3.5287,3.7728,3.9381,3.9588,4.0138,3.9908,3.8447,3.8935,3.8569,3.6799,3.5336,3.3766,3.2081,3.1597,3.0483,2.8578,0.0,0.0,0.0,0.0,0.0,0.0,0.0,0.0,0.0,0.0,0.0,0.0,0.0,0.0,0.0,0.0,0.0,0.0,0.0,0.0,0.0,0.0,0.0,0.0,0.0,0.0,0.0,0.0,0.0,3.4687,3.8301,0.0,0.0,0.0,0.0,3.6869,3.8252,3.9845,4.1447,4.3139,4.5188,4.7656,4.9409,5.0718,5.1584,5.1664,5.1722,5.1777,5.1008,5.0201,4.9394,4.9317,4.8817,4.799,4.7201,4.6836,4.6644,4.4091,4.296,4.2672,4.0973,4.0284,4.0159,3.949,3.9687,4.0226,3.971,3.8929,3.8584,4.1027,4.0086,3.7494,3.4783,3.3346,0.0,0.0,3.3955,3.4491,3.6684,3.7555,3.8211,3.965,4.02,4.0392,4.0431,3.9762,3.8389,0.0,3.4031,3.2685,3.1819,0.0,3.0362,3.0444,3.2535,3.445,3.5381,3.7721,3.9588,4.0354,4.0468,4.0154,3.9319,3.9264,3.856,3.6804,3.5892,3.4653,3.2914,3.1315,3.041,3.0275,2.8519,0.0,0.0,0.0,0.0,0.0,0.0,0.0,0.0,0.0,0.0,0.0,0.0,0.0,0.0,0.0,0.0,0.0,0.0,0.0,0.0,0.0,0.0,0.0,0.0,0.0,0.0,0.0,0.0,3.9629,4.2012,0.0,4.0351,4.0019,4.0266,4.106,4.2019,4.329,4.4997,4.6666,4.7991,4.8912,5.0602,5.1602,5.1913,5.2472,5.2741,5.2721,5.1894,5.1317,5.0971,4.9894,4.924,4.8856,4.7489,4.691,4.6777,4.5316,4.4378,4.382,4.3184,4.2629,4.2211,4.242,4.2708,4.2998,4.3382,4.2957,4.2057,4.0764,3.8623,3.6339,3.5345,3.4812,3.4749,3.5586,3.6219,3.6968,3.8308,3.9131,3.9742,4.0239,4.0431,4.0489,4.0489,4.0277,3.9646,3.8228,3.6123,3.4419,3.3974,3.1949,3.0957,3.2596,3.3133,3.4074,3.601,3.7544,3.8569,3.8846,3.8888,3.8344,3.6974,3.6837,3.635,3.5166,3.4312,3.305,3.1354,3.0725,2.9625,2.8003,2.7267,2.7533,0.0,0.0,0.0,0.0,0.0,0.0,0.0,0.0,0.0,0.0,0.0,0.0,0.0,0.0,0.0,0.0,0.0,0.0,0.0,0.0,0.0,0.0,0.0,0.0,0.0,0.0,4.2129,4.2363,4.4726,4.5527,4.3476,4.3398,4.3807,4.4624,4.5573,4.657,4.7665,4.9087,5.0106,5.0663,5.1757,5.2602,5.3183,5.3182,5.3182,5.3183,5.2049,5.151,5.1471,5.0356,4.9836,4.974,4.8028,4.7314,4.7218,4.6065,4.5259,4.4741,4.4739,4.4414,4.4013,4.4547,4.4739,4.4797,4.5268,4.5098,4.4194,4.1256,3.9167,3.7674,3.7006,3.6786,3.6877,3.7439,3.7983,3.8627,3.9473,4.0104,4.0489,4.0489,4.0489,4.0489,4.0489,4.0489,4.0273,3.9465,3.7704,3.6099,3.5359,3.3263,3.234,3.4327,3.4139,3.4693,3.7241,3.8074,3.845,3.8439,3.843,3.7637,3.5669,3.6028,3.5605,3.3872,3.3493,3.259,3.091,3.0845,3.0044,2.8349,2.8041,2.8137,2.8668,0.0,0.0,0.0,0.0,0.0,0.0,0.0,0.0,0.0,0.0,0.0,0.0,0.0,0.0,0.0,0.0,0.0,0.0,0.0,0.0,0.0,0.0,0.0,3.6191,4.0586,4.3496,4.2734,4.6387,4.7988,4.5449,4.7383,4.8415,4.7449,4.8798,4.9644,4.949,5.026,5.1452,5.3105,5.3203,5.3991,5.5645,5.4009,5.3203,5.3165,5.151,5.0702,5.0702,5.0702,5.0702,5.0587,4.8856,4.8105,4.7971,4.6278,4.5586,4.5586,4.5586,4.5586,4.5586,4.5586,4.5586,4.5539,4.4946,4.4846,4.4686,4.2806,4.217,4.181,3.9973,3.9415,3.9415,3.9422,3.9408,3.9557,4.0346,4.0508,4.0489,4.0489,4.0489,4.0489,4.0489,4.0489,4.0258,3.945,3.8599,3.7483,3.5815,3.4826,3.4524,3.5359,3.5504,0.0,3.895,3.9258,3.9273,3.9321,3.9316,3.8296,3.5785,3.7016,3.6483,3.3106,3.3631,3.333,3.1696,3.1607,3.1615,3.1584,3.0801,2.9759,2.8455,0.0,0.0,0.0,0.0,0.0,0.0,0.0,0.0,0.0,0.0,0.0,0.0,0.0,0.0,0.0,0.0,0.0,0.0,0.0,0.0,0.0,0.0,4.0586,4.0625,4.3496,4.6191,4.7851,4.9629,5.043,4.9707,5.0742,5.1343,5.106,5.1358,5.1511,5.1356,5.1029,5.1279,5.2221,5.2876,5.3722,5.4818,5.376,5.3203,5.3164,5.1491,5.0702,5.0702,5.0702,5.0702,5.0587,4.8855,4.8105,4.7952,4.6032,4.5362,4.5586,4.5586,4.5586,4.5586,4.5586,4.5699,4.5789,4.5636,4.5314,4.4902,4.4327,4.3646,4.2921,4.2319,4.2082,4.2071,4.2052,4.159,4.1166,4.1401,4.0966,4.0489,4.0489,4.0489,4.0489,4.0489,4.0489,4.0258,3.945,3.8604,3.7642,3.6565,3.5685,3.5224,3.5455,3.5493,0.0,3.8104,3.8354,3.8815,4.0031,3.9642,3.8753,3.7425,3.6622,3.5243,3.3044,3.1987,3.096,2.9867,2.9809,2.9548,2.8967,2.989,3.0145,0.0,0.0,0.0,0.0,0.0,0.0,0.0,0.0,0.0,0.0,0.0,0.0,0.0,0.0,0.0,0.0,0.0,0.0,0.0,0.0,0.0,0.0,4.0464,4.3418,4.4902,4.7031,4.9141,5.1016,5.166,5.209,5.2441,5.2558,5.2715,5.3027,5.2573,5.2411,5.2636,5.1799,5.1837,5.2953,5.3491,5.4145,5.4991,5.4164,5.3568,5.3163,5.1857,5.1029,5.0702,5.0702,5.0702,5.0606,4.924,4.8432,4.8009,4.6838,4.6052,0.0,0.0,0.0,0.0,0.0,4.5738,4.5902,4.5908,4.5748,4.5527,4.543,4.4968,4.4365,4.3888,4.3682,4.3464,4.2752,4.2178,4.1716,4.1347,4.087,4.0489,4.0489,4.0489,4.06,4.0966,4.0754,4.0485,4.0369,3.9638,0.0,3.793,3.6796,3.6257,3.6988,3.6776,3.7161,3.8834,3.8738,3.8931,3.9896,3.9585,3.8661,3.7089,3.6685,0.0,0.0,0.0,3.1975,3.0751,3.1032,0.0,0.0,0.0,3.1661,3.0978,0.0,0.0,0.0,2.9192,2.8883,0.0,0.0,0.0,0.0,0.0,0.0,0.0,0.0,0.0,0.0,0.0,0.0,0.0,0.0,0.0,0.0,4.2832,4.5293,4.8574,5.0566,5.1933,5.2617,5.2793,5.3144,5.3926,5.3398,5.3262,5.3926,5.313,5.2892,5.3524,0.0,0.0,0.0,0.0,5.4895,5.5684,5.4916,5.4049,5.3182,5.2319,5.1472,5.0702,5.0702,5.0702,5.0644,4.9779,4.8952,4.8239,4.8105,4.7164,4.5783,4.5338,4.5342,4.5586,4.5586,4.5719,4.5902,4.5908,0.0,0.0,4.6126,4.6006,4.5733,4.4897,4.4549,4.4128,4.2648,4.2168,4.1879,4.1027,4.0719,4.0623,4.0508,4.0489,4.0735,4.1613,4.112,4.0758,4.1617,4.1004,4.0162,3.9527,3.8084,3.7488,3.8931,3.8584,3.8681,4.0162,3.9815,3.9469,3.9565,0.0,0.0,3.6257,3.7257,3.6315,3.2391,3.4083,3.4507,3.2968,3.3628,3.3686,3.2923,3.3654,3.3451,3.2241,3.2244,3.1985,3.1458,3.0691,2.995,0.0,0.0,0.0,0.0,0.0,0.0,0.0,0.0,0.0,0.0,0.0,0.0,0.0,0.0,0.0,4.1753,4.4785,4.7578,4.9668,5.1992,5.3301,5.2754,5.332,5.3808,5.3984,5.4473,5.4863,5.5,5.4735,5.4574,5.4612,5.3666,5.3549,5.4472,5.4491,5.4895,5.5684,5.4895,5.4068,5.3203,0.0,0.0,5.0702,5.0702,5.0702,5.0644,4.9779,4.9317,4.9067,4.8103,4.7508,4.7096,4.5936,4.5531,4.5586,4.5586,4.5699,4.5844,4.5889,4.5932,4.599,4.6067,4.5969,4.578,4.5601,4.5451,0.0,4.497,4.4372,4.3621,4.2797,4.2069,4.136,4.0662,4.0489,4.0735,4.1613,4.1107,4.0748,4.1636,4.0581,3.9685,4.0181,3.945,3.8661,3.8315,3.87,3.9161,3.9488,3.995,4.0527,4.1239,4.1312,4.0827,3.9623,3.8584,3.7065,3.4911,3.391,3.3256,3.291,3.3057,3.3064,3.291,3.3064,3.2933,3.2521,3.253,3.2355,3.2042,3.1426,3.1078,0.0,0.0,0.0,0.0,0.0,0.0,0.0,0.0,0.0,0.0,0.0,3.6387,0.0,0.0,4.249,4.4569,4.7143,4.9355,5.0625,5.2266,5.3516,5.3945,5.4394,5.4824,5.5254,5.5293,5.5488,5.5918,5.5356,5.5165,5.5534,5.453,5.4299,5.5068,5.5107,5.528,5.5703,5.4895,5.4049,5.3182,5.2318,5.1491,5.0702,5.0702,5.0702,5.0683,5.024,4.9798,4.9317,4.8278,4.8105,4.8353,4.6839,4.624,4.62,4.5757,4.568,4.5811,4.5838,4.5874,4.5905,4.5979,4.5911,4.5796,4.5796,4.5719,4.5509,4.5068,4.4643,4.4105,4.3302,4.2777,4.2348,4.1902,4.1805,4.1921,4.236,4.1777,4.1283,4.1713,4.1116,4.0677,4.1078,4.1174,4.075,3.9465,3.9623,3.9892,3.9892,4.0239,4.0831,4.1697,4.1424,4.0966,4.0543,3.8565,3.718,3.6776,3.5526,3.4795,3.4795,3.5218,3.5257,3.4814,3.5238,3.5345,3.51,3.51,3.4944,3.4703,3.4435,3.3403,0.0,0.0,0.0,0.0,0.0,0.0,0.0,0.0,3.4859,3.6318,3.7519,3.8945,4.1113,4.2988,4.4962,4.7306,4.9098,5.043,5.1074,5.2051,5.3223,5.4629,5.4941,5.539,5.6269,5.5703,5.5584,5.6266,5.5603,5.5364,5.588,5.5145,5.503,5.5684,5.5703,5.5703,5.5703,5.507,5.4222,5.3182,5.2492,5.1626,5.0702,5.0702,5.0702,5.0702,5.0702,5.0298,4.9605,4.8875,4.901,4.951,4.7972,4.7278,4.7024,4.5988,4.568,4.5757,4.5796,4.5815,4.5853,4.5873,4.5834,4.5757,4.5757,4.5699,4.5451,4.4761,4.4549,4.4359,4.3553,4.3335,4.3304,4.3134,4.2961,4.2941,4.3265,4.239,4.1684,4.219,4.2017,4.1844,4.2017,4.2633,4.2614,4.1232,4.1004,4.0927,4.0773,4.0889,4.1212,4.1748,4.1331,4.095,4.0773,3.8873,3.7911,3.846,3.7829,3.7445,3.7445,3.8118,3.808,3.7219,3.7892,3.8047,3.7672,3.7672,3.7564,3.7355,3.7355,3.5853,3.1738,3.0113,0.0,3.299,3.3563,3.4372,0.0,0.0,3.8941,3.9131,4.0605,4.2148,4.3203,4.4824,4.6601,4.8432,4.9569,5.0234,5.0312,5.1699,5.2773,5.2969,5.3672,5.4492,5.5351,5.5351,5.5289,5.5272,5.5773,5.5708,5.4919,5.532,5.5607,5.5703,5.5703,5.5703,5.5703,5.5607,5.4761,5.3203,5.3107,5.2222,5.0702,5.0702,5.0702,5.0702,5.0702,5.0625,5.0568,5.0452,5.0471,5.0452,4.951,4.8663,4.7773,4.618,4.5605,4.5624,4.5757,4.5738,4.5643,4.5776,4.5738,4.5605,4.5605,4.5605,4.5566,4.547,4.5451,4.5259,4.4378,4.4166,4.3991,4.3265,4.2518,4.2347,4.384,4.2316,4.1293,4.3586,4.2819,4.2036,4.2819,4.3028,4.303,4.2842,4.2819,4.2533,4.1748,4.2341,4.2553,4.1863,4.2415,4.2494,4.1713,4.1386,4.0939,4.026,4.0126,4.0068,4.0068,4.0164,3.9837,3.9018,3.9095,3.8753,3.7959,3.7959,3.7943,3.7909,3.7909,3.7445,3.1764,3.1722,0.0,0.0,3.5066,3.6891,3.9125,4.0018,4.063,4.1609,4.293,4.418,4.5058,4.6641,4.8047,0.0,5.0019,5.0898,5.0898,5.1094,5.125,5.125,5.1057,5.1881,5.4315,5.4531,5.4493,5.4341,5.5012,5.5225,5.4725,5.5359,5.5703,5.5703,5.5703,5.5703,5.5703,5.5241,5.4395,5.3203,5.2684,5.1818,5.0702,5.0702,5.0702,5.0702,5.0702,5.0702,5.0702,5.0702,5.0702,5.0606,4.974,4.8875,4.7971,4.6796,4.6046,4.5605,4.5643,4.5643,4.5605,4.568,4.5643,4.5586,4.5586,4.5586,4.5586,4.5586,4.5586,4.5509,4.5163,4.5049,4.4972,4.4626,4.4282,4.4068,4.427,4.3467,4.2874,4.3493,4.3423,4.3374,4.3737,4.422,4.4549,4.4542,4.3717,4.297,4.2607,4.2884,4.2977,4.2588,4.3302,4.3475,4.2626,4.2569,4.2396,4.203,4.2005,4.2002,4.2002,4.2002,4.1848,4.1524,4.1517,4.1074,4.0211,4.0727,4.0708,4.0231,4.0727,4.0841,3.2106,3.3007,0.0,3.4814,3.7034,3.9425,4.0456,4.1487,4.2609,4.3841,4.4548,4.5293,4.6445,4.748,4.8418,4.9141,5.0426,5.1336,5.1347,5.0832,5.0363,5.0176,4.9264,4.9678,5.2283,5.2944,5.3233,5.332,5.4283,5.4687,5.432,5.5184,5.5703,5.5703,5.5472,5.5472,5.5703,5.4664,5.3818,5.3203,5.2319,5.1472,5.0702,5.0702,5.0702,5.0702,5.0702,5.0702,5.0702,5.0702,5.0702,5.0606,4.974,4.8856,4.801,4.72,4.6352,4.5586,4.5586,4.5586,4.5586,4.5586,4.5586,4.5586,4.5586,4.5586,4.5586,4.5586,4.5586,4.5586,4.5586,4.5586,4.5586,4.5586,4.5413,4.5141,4.4729,4.4295,4.3934,4.3808,4.4083,4.4378,4.4626,4.5182,4.5586,4.5586,4.4568,4.3707,4.3476,4.3431,4.3522,4.3763,4.4301,4.4416,4.3841,4.3784,4.3784,4.3784,4.378,4.3797,4.3797,4.3797,4.3682,4.3434,4.3426,4.3002,4.2159,4.2784,4.2784,4.2178,4.281,4.3115,3.2815,3.308,3.4076,3.7494,3.985,4.1819,4.3724,4.4932,4.568,4.5804,4.5277,4.5371,4.7226,4.6914,4.7207,4.9746,5.0755,5.122,5.1222,5.1121,5.0816,5.0096,4.9118,4.8599,0.0,5.0261,5.145,5.2088,5.3743,5.4281,5.3299,5.4799,5.5703,5.5703,5.4934,5.4914,5.5684,5.4068,5.3241,5.3203,5.2318,5.1491,5.0702,5.0702,5.0702,5.0702,5.0702,5.0702,5.0702,5.0702,5.0702,5.0606,4.974,4.8856,4.801,4.72,4.6352,4.5586,4.5586,4.5586,4.5586,4.5586,4.5586,4.5586,4.5586,4.5586,4.5586,4.5586,4.5586,4.5586,4.5586,4.5586,4.5586,4.5586,4.4953,4.4568,4.5374,4.4282,4.3611,4.5201,4.4857,4.4568,4.5413,4.5566,4.5586,4.5586,4.5547,4.522,4.4359,4.4263,4.4587,4.5432,4.5547,4.5547,4.5528,4.5509,4.5509,4.5509,4.5509,4.5509,4.5509,4.5509,4.5143,4.4282,4.4263,4.3878,4.3056,4.3079,4.3099,4.3056,4.3094,4.3094,3.4187,3.592,3.7967,3.9945,4.1741,4.3426,4.4839,4.5545,4.556,4.4476,4.3695,4.3066,4.2578,4.3633,4.5021,4.638,4.8748,5.0566,5.1066,5.1065,5.0534,4.9167,4.8637,0.0,0.0,0.0,0.0,5.0394,5.2087,5.3145,5.3203,5.478,5.5453,5.4914,5.4645,5.4357,5.4049,5.3491,5.2894,5.2337,5.151,5.0952,5.0702,5.0702,5.0702,5.0664,5.0086,5.0183,5.0664,5.0067,5.0183,5.0606,4.974,4.8875,4.8007,4.7199,4.6352,4.5586,4.5586,4.5586,4.5586,4.5586,4.5586,4.5586,4.5586,4.5586,4.5586,4.5586,4.5586,4.5586,4.5586,4.5586,4.5586,4.5586,4.5374,4.524,4.5528,4.5163,4.4934,4.549,4.5355,4.5259,4.5547,4.5586,4.5586,4.5586,4.5586,4.549,4.5201,4.5163,4.5278,4.5566,4.5586,4.5586,4.5586,4.5586,4.5586,4.5586,4.5586,4.5586,4.5586,4.5586,4.5451,4.5182,4.5163,4.4741,4.3899,4.447,4.4451,4.3899,4.4474,4.4761,3.6096,3.8309,4.0627,4.1952,4.3426,4.471,4.5433,4.5468,4.487,4.3265,4.2088,4.096,3.9667,4.0494,4.1941,4.3621,4.5973,4.8279,5.0278,5.0221,4.9933,4.9797,4.9144,4.849,0.0,0.0,0.0,4.9047,5.0991,5.2336,5.2722,5.4357,5.503,5.4511,5.4203,5.378,5.3222,5.2605,5.2029,5.1471,5.0952,5.0702,5.0702,5.0702,5.0702,5.0664,5.0106,5.0183,5.0663,5.0087,5.0202,5.0567,4.9394,4.8586,4.7946,4.6833,4.6084,4.5586,4.5586,4.5586,4.5586,4.5586,4.5586,4.5586,4.5586,4.5586,4.5586,4.5586,4.5586,4.5586,4.5586,4.5586,4.5586,4.5586,4.5586,4.5586,4.5586,4.5586,4.5586,4.5586,4.5586,4.5586,4.5586,4.5586,4.5586,4.5586,4.5586,4.5586,4.5586,4.5586,4.5586,4.5586,4.5873,4.595,4.5624,4.6142,4.6238,4.5624,4.6161,4.6219,4.5605,4.5911,4.593,4.5605,4.5586,4.5316,4.478,4.5336,4.5316,4.478,4.5336,4.5586,3.8575,4.0291,4.1992,4.3654,4.4825,4.5566,4.549,4.4797,4.374,4.217,4.0449,3.9039,0.0,0.0,3.8292,4.1609,4.2864,4.487,4.9067,4.8894,4.9279,0.0,0.0,0.0,0.0,0.0,0.0,4.8182,0.0,5.1818,5.1856,5.3491,5.4414,5.4376,5.3547,5.3105,5.3067,5.1491,5.0702,5.0702,5.0702,5.0702,5.0702,5.0702,5.0702,5.0702,5.0644,5.0663,5.0698,5.0644,5.0664,5.0529,4.8779,4.8105,4.7889,4.6219,4.5586,4.5586,4.5586,4.5586,4.5586,4.5586,4.5586,4.5586,4.5586,4.5586,4.5586,4.5586,4.5586,4.5586,4.5586,4.5586,4.5586,4.5586,4.5586,4.5586,4.5586,4.5586,4.5605,4.5643,4.568,4.5643,4.5605,4.5586,4.5586,4.5586,4.5586,4.5586,4.5586,4.5586,4.5605,4.5643,4.641,4.6583,4.5778,4.7197,4.7409,4.5817,4.7216,4.739,4.5778,4.6525,4.6544,4.568,4.568,4.5624,4.5586,4.5586,4.5586,4.5586,4.5586,4.5586,4.1541,4.3248,4.4802,4.5879,4.5877,4.5259,4.4008,4.314,4.1748,3.8838,3.6954,3.5389,0.0,0.0,0.0,3.9807,4.3453,0.0,5.001,5.126,0.0,0.0,0.0,5.176,5.0548,5.0221,0.0,0.0,4.976,5.0433,5.0971,5.2626,5.322,5.2587,5.2355,5.1951,5.1337,5.0914,5.0702,5.0702,5.0702,5.0702,5.0702,5.0702,5.0702,5.0664,5.001,5.0106,5.0644,5.001,5.0106,5.0529,4.8779,4.8105,4.7889,4.6219,4.5586,4.5586,4.5586,4.5586,4.5586,4.5586,4.5586,4.5586,4.5586,4.5586,4.5586,4.5586,4.5586,4.5586,4.5586,4.5586,4.5586,4.5586,4.5586,4.5586,4.5586,4.5586,4.5796,4.6448,4.6564,4.6371,4.5719,4.5586,4.5586,4.5586,4.5586,4.5586,4.5586,4.5586,4.5853,4.6506,4.6756,4.7046,4.7415,4.7853,4.7911,4.7473,4.7873,4.7911,4.7473,4.768,4.7409,4.6583,4.6564,4.6238,4.5586,4.5586,4.5586,4.5586,4.5586,4.5586,4.4297,4.5451,4.6374,4.7221,4.622,4.4586,4.2912,4.1639,3.985,3.6445,3.4768,0.0,0.0,0.0,0.0,0.0,0.0,0.0,4.951,5.0933,5.2049,0.0,5.3683,0.0,5.2452,5.1683,5.0875,0.0,5.0048,5.026,5.0683,5.1933,5.2413,5.1932,5.1891,5.1508,5.0702,5.0702,5.0702,5.0702,5.0702,5.0702,5.0702,5.0702,5.0702,5.0664,0.0,5.026,5.0664,5.0183,5.026,5.0529,4.8779,4.8105,4.7889,4.6219,4.5586,4.5586,4.5586,4.5586,4.5586,4.5586,4.5586,4.5586,4.5586,4.5586,4.5586,4.5586,4.5586,4.5586,4.5586,4.5586,4.5586,4.5586,4.5586,4.5586,4.5586,4.5586,4.5855,4.6722,4.7181,4.7274,4.6775,4.6698,4.6698,4.6698,4.6698,4.6698,4.6698,4.639,4.6371,4.6833,4.7547,4.8029,4.8087,4.8798,4.8913,4.8145,4.8817,4.8913,4.8126,4.8471,4.8278,4.7451,4.743,4.7024,4.6161,4.6161,4.5969,4.5586,4.5586,4.5586,4.6759,4.724,4.7375,4.7952,4.6182,4.3797,4.1912,4.0085,3.7873,3.4634,0.0,3.2239,3.0824,3.1332,3.3058,3.6407,0.0,4.1912,4.8471,4.9586,5.1183,5.5068,5.5011,5.4664,5.4664,5.3087,5.1779,5.1068,5.0818,5.0644,5.0529,5.1298,5.174,5.1739,5.1736,5.1411,5.0702,5.0702,5.0702,5.0702,5.0702,5.0702,5.0702,5.0702,5.0702,5.0702,5.0702,5.0702,5.0702,5.0702,5.0702,5.0529,4.8779,4.8105,4.7889,4.6219,4.5586,4.5605,4.5738,4.5776,4.5757,4.5624,4.5586,4.5586,4.5586,4.5586,4.5586,4.5586,4.5586,4.5624,4.5738,4.5776,4.5776,4.5776,4.5853,4.5911,4.5796,4.595,4.6297,4.6935,4.7722,4.8255,4.8121,4.8102,4.8102,4.8102,4.8102,4.8102,4.8102,4.7486,4.7101,4.7218,4.8529,4.9144,4.851,4.9933,5.0183,4.8548,4.9952,5.0125,4.851,4.9163,4.9163,4.8279,4.8259,4.7871,4.7064,4.7045,4.6621,4.5776,4.5873,4.5815,4.8509,4.8971,4.8836,4.8259,4.6182,4.3489,4.0431,3.7873,0.0,0.0,3.1494,3.0825,3.0486,3.173,3.3884,3.7243,0.0,0.0,0.0,0.0,5.2279,0.0,0.0,0.0,0.0,0.0,0.0,0.0,0.0,5.0375,4.9663,5.0433,5.0914,5.0914,5.0914,5.0856,5.0702,5.0702,5.0702,5.0702,5.0702,5.0702,5.0702,5.0702,5.0702,5.0702,5.0702,0.0,5.0702,5.0702,5.0702,5.0529,4.8779,4.8105,4.7889,4.6219,4.5586,4.5699,4.6429,4.666,4.6564,4.5834,4.5586,4.5586,4.5586,4.5586,4.5586,4.5586,4.5586,4.5776,4.6487,4.666,4.666,4.666,4.7178,4.7467,4.6814,4.7754,4.8582,4.7991,4.8587,4.8952,4.8222,4.8106,4.8106,4.8106,4.8106,4.8106,4.8106,4.797,4.8179,4.8875,4.924,4.9644,5.0202,5.1145,5.1279,5.0317,5.1164,5.126,5.0298,5.0394,5.0048,4.9183,4.9164,4.876,4.7876,4.7892,4.7467,4.6679,4.7351,4.6928,5.026,5.0394,4.9971,4.9548,4.6547,4.2797,3.9392,0.0,0.0,0.0,3.0717,3.0448,3.0398,3.1455,0.0,0.0,0.0,0.0,0.0,0.0,0.0,0.0,0.0,0.0,0.0,0.0,0.0,0.0,0.0,5.0029,5.0067,5.0471,5.0702,5.0702,5.0702,5.0702,5.0702,5.0702,5.0702,5.0702,5.0702,5.0702,5.0702,5.0702,5.0702,5.0702,5.0702,5.0702,5.0702,5.0702,5.0433,4.9894,4.8587,4.7836,4.7313,4.6065,4.5586,4.572,4.6606,4.6896,4.6896,4.6896,4.6624,4.618,4.5738,4.593,4.6294,4.6294,4.6583,4.7005,4.7409,4.7508,4.751,4.751,4.7817,4.799,4.7606,4.8509,4.9278,4.8856,4.9471,4.9933,4.9548,4.9452,4.9452,4.9452,4.9817,5.0067,5.0067,5.0471,5.0586,5.0144,5.0875,5.1549,5.1973,5.2358,5.2415,5.2048,5.2357,5.2396,5.2011,5.1568,5.1337,5.1376,5.051,4.9875,4.9452,4.899,4.8355,4.7529,4.7929,4.7661,5.151,5.1702,5.1337,5.0587,4.699,4.2643,3.8854,3.6026,0.0,0.0,3.0398,3.0398,3.0398,3.0968,3.2025,0.0,0.0,0.0,0.0,0.0,0.0,0.0,0.0,0.0,0.0,0.0,0.0,0.0,0.0,0.0,5.0644,5.051,5.0433,5.0433,5.024,5.0221,5.0414,5.0414,5.0414,5.0433,5.0606,5.0587,5.0433,5.0606,5.0702,5.0702,5.0702,5.0702,5.0702,5.0702,5.0298,4.9587,4.8721,4.7874,4.7082,4.6392,4.6028,4.603,4.7069,4.7434,4.753,4.8164,4.7702,4.6795,4.6294,4.6487,4.6929,4.7104,4.7603,4.8141,4.8333,4.8375,4.8433,4.8606,4.851,4.8491,4.8837,4.9452,4.999,5.0183,5.076,5.1241,5.1241,5.1241,5.1241,5.1241,5.178,5.2184,5.2184,5.2935,5.2974,5.1645,5.253,5.3185,5.3185,5.3378,5.3396,5.3217,5.3376,5.3398,5.3205,5.253,5.2492,5.3186,5.1914,5.1241,5.1222,5.0356,4.949,4.8664,4.8662,4.847,5.1664,5.301,5.3414,5.0298,4.7432,4.4066,3.9123,0.0,0.0,3.0929,3.0398,3.0398,3.0398,3.0456,3.1333,3.3795,3.493,3.7315,0.0,0.0,0.0,0.0,0.0,0.0,0.0,0.0,0.0,0.0,0.0,0.0,5.0644,4.9952,4.9509,4.9528,4.8759,4.8721,4.9509,4.9509,4.9529,4.9528,5.0317,5.0298,4.9567,5.0337,5.0702,5.0702,5.0702,5.0702,0.0,5.0702,5.0644,5.0491,4.9605,4.8757,4.7985,4.7893,4.7414,4.7011,4.8606,4.9183,4.9183,4.926,4.8202,4.7024,4.7677,4.7409,4.7064,4.778,4.8049,4.8279,4.9087,4.9279,4.9471,5.0279,4.9856,4.9702,5.1222,5.1607,5.1896,5.2685,5.2936,5.2974,5.2974,5.2974,5.2974,5.2974,5.3032,5.307,5.3084,5.3834,5.4316,5.4182,5.3584,5.3198,5.3198,5.393,5.4026,5.3255,5.393,5.4026,5.3217,5.3121,5.3124,5.3205,5.3047,5.297,5.2974,5.2088,5.1241,5.0452,5.0452,4.9606,5.1414,5.3164,5.3799,5.0914,4.7471,4.3624,3.9046,0.0,3.2833,3.0833,3.0398,3.0398,3.0398,3.0398,3.0737,3.1756,3.1756,3.3064,0.0,0.0,0.0,0.0,0.0,0.0,0.0,0.0,0.0,0.0,0.0,0.0,4.9125,4.8798,4.8606,4.8624,4.8279,4.8279,4.8606,4.9125,4.9144,4.8643,5.0048,5.024,4.9433,5.0298,5.0702,5.0702,5.0702,5.0702,0.0,5.0702,5.0394,4.9875,4.9529,4.8874,4.8105,4.8105,4.7894,4.7779,4.899,4.9413,4.949,5.0029,4.9394,4.8279,4.7601,4.7489,4.7684,4.801,4.8856,4.974,5.0086,5.0183,5.0279,5.0606,5.0433,5.0375,5.1029,5.1548,5.2008,5.2354,5.2836,5.3182,5.3182,5.3182,5.3182,5.3182,5.3645,5.3991,5.3988,5.472,5.5201,5.5201,5.4912,5.4701,5.4701,5.5009,5.5066,5.4739,5.5028,5.5066,5.472,5.4237,5.422,5.4706,5.3699,5.3469,5.3993,5.3105,5.251,5.2204,5.1665,5.1049,5.0087,5.2222,5.3183,5.0894,4.7278,4.3181,0.0,3.5353,3.2429,3.0756,3.0398,3.0398,3.0398,3.0398,3.0398,3.0398,3.0102,3.0968,3.4141,0.0,0.0,0.0,0.0,0.0,0.0,0.0,0.0,0.0,0.0,0.0,4.7375,4.7355,4.749,4.774,4.7509,4.749,4.774,4.8355,4.8355,4.7778,4.949,4.9856,4.9067,4.9933,5.0452,5.0683,5.0433,5.0452,0.0,5.0702,5.0337,4.9779,4.9779,4.926,4.851,4.8778,4.872,4.8606,4.9471,4.9779,4.9894,5.0491,5.0125,4.9183,4.7989,4.8048,4.8548,4.8818,4.976,5.0702,5.0702,5.0702,5.076,5.101,5.1048,5.1202,5.1722,5.2279,5.2758,5.2965,5.3524,5.3949,5.3949,5.3949,5.3949,5.3949,5.4449,5.4855,5.4855,5.5357,5.5703,5.5703,5.5703,5.5703,5.5703,5.5703,5.5703,5.5703,5.5703,5.5703,5.5703,5.5143,5.5105,5.5684,5.4547,5.4237,5.4855,5.4007,5.3586,5.3551,5.2684,5.2145,4.7451,4.999,5.1529,4.9837,4.6836,4.3181,0.0,3.5353,3.2429,3.0756,3.0398,3.0398,3.0398,3.0398,3.0398,3.0398,3.1121,3.2564,3.5141,0.0,0.0,0.0,0.0,0.0,0.0,0.0,0.0,0.0,0.0,0.0,4.5663,4.5624,4.6009,4.6894,4.6086,4.6028,4.6913,4.6932,4.6932,4.6932,4.8606,4.8971,4.8145,4.9029,4.9875,5.0644,4.9779,4.9894,0.0,5.0702,5.0683,5.0683,5.0683,5.0144,4.949,5.0337,5.0125,4.951,5.0375,5.0683,5.0683,5.0702,5.0106,4.9394,4.9375,4.9375,4.9586,5.0433,5.0683,5.0702,5.0702,5.0702,5.0894,5.17,5.1893,5.2355,5.4092,5.4477,5.4728,5.5513,5.5665,5.5665,5.5665,5.5665,5.5665,5.5665,5.5684,5.5684,5.5684,5.5684,5.5703,5.5703,5.5703,5.5703,5.5703,5.5703,5.5703,5.5703,5.5703,5.5703,5.5703,5.5684,5.5684,5.5703,5.5684,5.5684,5.5684,5.4874,5.4487,5.4468,5.3582,5.2721,4.2544,4.4778,4.6163,4.3874,4.1643,3.9181,3.6103,3.3218,3.0871,2.9737,2.9063,2.8698,2.8698,2.8698,2.9063,3.0206,3.0629,3.1487,3.3449,0.0,0.0,0.0,0.0,0.0,0.0,0.0,0.0,0.0,0.0,0.0,4.5605,4.5586,4.572,4.599,4.574,4.572,4.6009,4.6605,4.6605,4.6028,4.7702,4.8086,4.7299,4.8125,4.899,4.9798,4.951,4.9894,5.0702,5.0702,5.0702,5.0702,5.0702,5.0529,5.0317,5.0587,5.0529,5.0317,5.0587,5.0702,5.0702,5.0702,5.051,5.0279,5.0279,4.9856,4.9586,5.0433,5.1106,5.1395,5.0837,5.1106,5.1587,5.1836,5.1893,5.2219,5.3355,5.4068,5.4568,5.4816,5.5318,5.5703,5.5703,5.6186,5.6379,5.578,5.6205,5.6359,5.578,5.6225,5.659,5.659,5.7112,5.6997,5.5799,5.6244,5.659,5.659,5.7151,5.748,5.748,5.748,5.748,5.748,5.69,5.659,5.659,5.5722,5.5028,5.4487,5.4218,5.3622,3.8426,4.07,4.2027,4.0431,3.8546,0.0,3.4218,3.1737,2.9679,2.8813,2.8255,2.789,2.789,2.789,2.8236,2.9294,2.9717,3.0506,3.2218,0.0,0.0,0.0,0.0,0.0,0.0,0.0,0.0,0.0,0.0,0.0,4.5586,4.5586,4.5586,4.5586,4.5586,4.5586,4.5586,4.6144,4.6144,4.5605,4.699,4.7394,4.6932,4.7432,4.8105,4.8913,4.8913,4.9394,0.0,5.0548,5.0702,5.0702,5.0702,5.0702,5.0702,5.0702,5.0702,5.0702,5.0702,5.0702,5.0702,5.0702,5.0702,5.0702,5.0702,5.0317,4.999,5.0548,5.1048,5.1395,5.1202,5.1529,5.2087,5.2722,5.2874,5.3103,5.3968,5.4586,5.4951,5.4951,5.5376,5.5799,5.6124,5.6648,5.6917,5.6701,5.686,5.6804,5.6263,5.6379,5.6648,5.695,5.7492,5.7492,5.6758,5.7167,5.7497,5.7492,5.8014,5.8303,5.8303,5.8303,5.8303,5.8303,5.7434,5.6992,5.6997,5.6128,5.5453,5.4951,5.4951,5.4487,0.0,3.7296,3.8546,0.0,0.0,3.4545,3.291,3.066,0.0,2.7948,2.7755,2.7736,2.7794,2.7755,2.7794,2.8044,2.8698,2.9833,0.0,0.0,0.0,0.0,0.0,0.0,0.0,0.0,0.0,0.0,0.0,0.0,4.5586,4.5586,4.5586,4.5586,4.5586,4.5586,4.5586,4.5586,4.5586,4.5605,4.6413,4.6817,4.6817,4.6817,4.7259,0.0,4.8086,4.8586,4.9471,5.0337,5.0702,5.0702,5.0702,5.0644,5.0606,5.0664,5.0644,5.0606,5.0664,5.0702,5.0702,5.0702,5.0702,5.0702,5.0702,5.0702,5.0702,5.0702,5.0741,5.0952,5.1722,5.1952,5.2433,5.4107,5.4491,5.4722,5.553,5.5703,5.5703,5.5703,5.5742,5.6049,5.6874,5.7088,5.7437,5.8193,5.7665,5.7131,5.7016,5.6398,5.6258,5.7017,5.7186,5.7612,5.8404,5.8418,5.838,5.8385,5.8443,5.8481,5.8481,5.8481,5.8481,5.8481,5.7612,5.712,5.6997,5.6244,5.5818,5.5703,5.5761,5.5376,2.9632,0.0,3.1352,3.0717,3.0121,2.9583,0.0,2.8102,2.7121,2.6948,0.0,2.612,2.6774,2.637,2.6774,2.939,2.9967,3.116,0.0,0.0,0.0,0.0,0.0,0.0,0.0,0.0,0.0,0.0,0.0,4.5586,4.5586,4.5586,4.5586,4.5586,4.5586,4.5586,4.5586,4.5586,4.5586,4.5586,4.5797,4.5913,4.5913,4.5913,4.6374,4.7221,4.7836,4.8586,4.9471,5.0337,5.0702,5.0702,5.0702,5.0279,4.9779,5.0452,5.0279,4.9798,5.0471,5.0702,5.0702,5.0702,5.0702,5.0702,5.0702,5.0702,5.0702,5.0702,5.1144,5.1664,5.1856,5.2395,5.3164,5.4241,5.4491,5.4722,5.553,5.5703,5.5703,5.5703,5.6244,5.6744,5.6956,5.805,5.8777,5.8366,5.8639,5.8454,5.717,5.7942,5.8443,5.8036,5.9146,5.9988,6.02,5.9608,5.9219,5.9215,5.9835,6.02,6.02,6.02,6.02,6.02,5.9364,5.8289,5.6997,5.7461,5.6997,5.5722,5.6379,5.6244,2.6799,2.8328,2.9674,2.9209,2.9085,2.8991,2.8555,0.0,0.0,0.0,0.0,2.5437,2.5928,2.5947,0.0,2.889,2.991,0.0,0.0,0.0,0.0,0.0,0.0,0.0,0.0,0.0,0.0,0.0,0.0,4.5586,4.5586,4.5586,4.5586,4.5586,4.5586,4.5586,4.5586,4.5586,4.5586,4.5586,4.5586,4.5586,4.5586,4.5586,4.5855,4.6355,4.7201,4.8029,4.8875,4.974,5.0337,5.0702,5.0702,5.0414,5.0048,5.0529,5.0394,5.0048,5.0529,5.0702,5.0702,5.0702,5.0702,5.0702,5.0702,5.0952,5.1164,5.0798,5.101,5.1529,5.2299,5.2856,5.351,5.4761,5.5049,5.5164,5.5607,5.5703,5.5703,5.5703,5.6398,5.7129,5.7536,5.8649,5.9488,5.9469,5.9465,5.9181,5.8261,5.8616,5.8927,5.8864,5.9665,6.0377,6.0762,6.0377,6.0104,6.0104,6.055,6.08,6.08,6.08,6.0608,6.02,5.9746,5.8688,5.7008,5.7863,5.7613,5.6313,5.6783,5.6766,2.5721,2.8143,3.052,3.0045,3.0034,2.9908,2.9124,0.0,0.0,0.0,0.0,0.0,0.0,0.0,0.0,0.0,0.0,0.0,0.0,0.0,0.0,0.0,0.0,0.0,0.0,0.0,0.0,0.0,0.0,4.5586,4.5586,4.5586,4.5586,4.5586,4.5586,4.5586,4.5586,4.5586,4.5586,4.5586,4.5586,4.5586,4.5586,4.5586,4.5586,4.5643,0.0,0.0,4.799,4.8856,4.9721,5.0491,5.0491,5.0491,5.051,5.0644,5.0606,5.051,5.0644,5.0702,5.0702,5.0702,5.0779,5.0875,5.0875,5.1452,5.1972,5.126,5.1068,5.1433,5.301,5.3395,5.3799,5.5318,5.5703,5.5703,5.5703,5.5703,5.5703,5.5703,5.6395,5.7283,5.8149,5.8976,5.9804,6.0666,6.0161,5.9661,5.9504,5.9015,5.8883,5.945,5.9623,5.9988,6.0742,6.08,6.08,6.08,6.08,6.08,6.08,6.08,6.0454,5.9719,5.97,5.8946,5.7359,5.8245,5.8168,5.7186,5.72,5.7129,2.6572,2.8768,3.0294,2.7957,2.7881,2.8345,2.8209,0.0,0.0,0.0,0.0,0.0,0.0,2.7101,2.8217,0.0,0.0,0.0,0.0,0.0,0.0,0.0,0.0,0.0,0.0,0.0,0.0,0.0,0.0,4.5586,4.5586,4.5586,4.5586,4.5586,4.5586,4.5586,4.5586,4.5586,4.5586,4.5586,4.5586,4.5586,4.5586,4.5586,4.5586,4.5643,0.0,4.6971,4.7163,4.7971,4.8817,4.9606,4.9606,4.9606,4.9683,5.0433,5.0221,4.9702,5.0433,5.0702,5.0702,5.0702,5.1164,5.1722,5.1722,5.2318,5.2972,5.2856,5.2818,5.3049,5.4049,5.4299,5.453,5.5472,5.5703,5.5703,5.5703,5.5703,5.5703,5.5703,5.6398,5.7283,5.8165,5.8969,5.9796,6.0666,6.0685,6.0339,5.9604,6.005,6.0185,5.9585,6.0161,6.0646,6.0781,6.08,6.08,6.08,6.08,6.08,6.08,6.08,6.0742,6.0608,6.0608,6.0104,5.9119,6.0005,5.9617,5.8116,5.8097,5.77,2.6199,2.7488,2.8644,2.8299,2.9516,3.053,2.952,0.0,0.0,0.0,0.0,0.0,0.0,0.0,0.0,0.0,0.0,0.0,0.0,0.0,0.0,0.0,0.0,0.0,0.0,0.0,0.0,0.0,0.0,0.0,4.5586,4.5586,4.5586,4.5586,4.5586,4.5586,4.5586,4.5586,4.5586,4.5586,4.5586,4.5586,4.5586,4.5586,4.5586,4.5605,0.0,4.6471,4.6932,4.7298,4.7952,4.874,4.9221,4.9394,4.951,5.0375,5.0452,5.0164,5.0548,5.0702,5.0702,5.0702,5.0952,5.1337,5.1779,5.251,5.3299,5.378,5.3568,5.3395,5.426,5.4491,5.4703,5.5511,5.5703,5.5703,5.5703,5.5703,5.5703,5.5703,5.6398,5.7283,5.8146,5.8969,5.9796,6.0666,6.08,6.0666,6.0238,6.055,6.0646,6.0238,6.0569,6.08,6.08,6.08,6.08,6.08,6.08,6.08,6.08,6.08,6.08,6.08,6.08,6.0377,5.9484,6.0384,6.015,5.8946,5.85,5.8085,2.5957,2.6588,2.7507,2.8785,3.0539,3.1859,3.1419,0.0,0.0,0.0,0.0,0.0,0.0,0.0,0.0,0.0,0.0,0.0,0.0,0.0,0.0,0.0,0.0,0.0,0.0,0.0,0.0,0.0,0.0,0.0,4.5009,4.5009,4.5009,4.5009,4.5201,4.5297,4.5297,4.549,4.5586,4.5586,4.5586,4.5586,4.5586,4.5586,4.5586,4.5586,4.5586,4.597,4.6605,4.6605,4.7086,4.7894,4.8548,4.9048,4.951,5.0375,5.0702,5.0702,5.0702,5.0702,5.0702,5.0702,5.0971,5.1395,5.2029,5.2953,5.3914,5.4587,5.4299,5.3933,5.4607,5.478,5.4934,5.5549,5.5703,5.5703,5.5703,5.5703,5.5703,5.5703,5.6395,5.728,5.8149,5.8973,5.9796,6.0666,6.08,6.08,6.08,6.08,6.08,6.08,6.08,6.08,6.08,6.08,6.08,6.08,6.08,6.08,6.08,6.08,6.08,6.08,6.08,6.0473,5.9815,6.0473,6.0473,5.9777,5.8965,5.8588,2.6699,2.7488,2.8116,2.8183,2.827,0.0,3.3154,3.2097,0.0,0.0,0.0,0.0,0.0,0.0,0.0,0.0,0.0,0.0,0.0,0.0,0.0,0.0,0.0,0.0,0.0,0.0,0.0,0.0,0.0,0.0,4.3278,4.3278,4.3278,4.3278,4.3989,4.4393,4.4393,4.5201,4.5586,4.5586,4.5586,4.5586,4.5586,4.5586,4.5586,4.5586,4.5586,4.5624,4.5682,4.5682,4.6201,4.699,4.7067,4.8029,4.951,5.0375,5.0702,5.0702,5.0702,5.0702,5.0702,5.0702,5.1741,5.3029,5.3087,5.4241,5.553,5.5588,5.5568,5.553,5.5588,5.5607,5.5626,5.5684,5.5703,5.5703,5.5703,5.5703,5.5703,5.5703,5.6395,5.728,5.8146,5.8973,5.98,6.0666,6.08,6.08,6.08,6.08,6.08,6.08,6.08,6.08,6.08,6.08,6.08,6.08,6.08,6.08,6.08,6.08,6.08,6.08,6.08,6.0762,6.0704,6.0762,6.0762,6.0685,5.9815,5.9419,2.6094,2.6783,2.7528,2.8039,2.8106,0.0,0.0,0.0,0.0,0.0,0.0,0.0,0.0,0.0,0.0,0.0,0.0,0.0,0.0,0.0,0.0,0.0,0.0,0.0,0.0,0.0,0.0,0.0,0.0,4.3104,4.3104,4.3104,4.3104,4.3104,4.3393,4.3547,4.3547,4.3874,4.4297,4.4797,4.5336,4.5586,4.5586,4.5586,4.5586,4.5586,4.5586,4.5586,4.5586,4.5586,4.5778,4.6144,4.6701,4.7913,4.9433,4.976,5.0221,5.0702,5.0702,5.0702,5.0779,5.1279,5.1875,5.2587,5.3683,5.4453,5.5049,5.5549,5.5703,5.5703,5.5703,5.5703,5.5703,5.5703,5.5703,5.5703,5.5703,5.5703,5.5703,5.5703,5.6395,5.728,5.8146,5.8973,5.98,6.0666,6.08,6.08,6.08,6.08,6.08,6.08,6.08,6.08,6.08,6.08,6.08,6.08,6.08,6.1031,6.1593,6.1612,6.1612,6.1612,6.1612,6.1343,6.08,6.08,6.08,6.0781,5.9911,5.9488,2.5703,2.6091,2.6687,2.7566,0.0,0.0,0.0,0.0,0.0,0.0,0.0,0.0,0.0,0.0,0.0,0.0,0.0,0.0,0.0,0.0,0.0,0.0,0.0,0.0,0.0,0.0,0.0,0.0,0.0,4.2277,4.2277,4.2277,4.2277,4.2277,4.2547,4.2701,4.2701,4.297,4.3374,4.3932,4.4778,4.5316,4.5586,4.5586,4.5586,4.5586,4.5586,4.5586,4.5586,4.5586,4.5586,4.5682,4.6567,4.7759,4.9029,4.9298,4.9952,5.0702,5.0702,5.0702,5.0818,5.1645,5.2106,5.2587,5.4049,5.4684,5.4991,5.5549,5.5703,5.5703,5.5703,5.5703,5.5703,5.5703,5.5703,5.5703,5.5703,5.5703,5.5703,5.5703,5.6626,5.7588,5.8204,5.9204,6.0108,6.0704,6.08,6.08,6.08,6.08,6.08,6.08,6.08,6.08,6.08,6.08,6.08,6.08,6.1069,6.1473,6.2078,6.1839,6.1815,6.2089,6.1843,6.1401,6.08,6.08,6.08,6.0781,6.0181,5.9911,2.5703,2.5664,2.5828,0.0,0.0,0.0,0.0,0.0,0.0,0.0,0.0,0.0,0.0,0.0,0.0,0.0,0.0,0.0,0.0,0.0,0.0,0.0,0.0,0.0,0.0,0.0,0.0,0.0,0.0,4.0489,4.0489,4.0489,4.0489,4.0489,4.1335,4.1797,4.1797,4.2643,4.3085,4.3104,4.3893,4.4739,4.5586,4.5586,4.5586,4.5586,4.5586,4.5586,4.5586,4.5586,4.5586,4.5682,4.6547,4.7375,4.8202,4.9067,4.9933,5.0683,5.0702,5.0702,5.0818,5.1664,5.251,5.3356,5.4241,5.5068,5.5703,5.5703,5.5703,5.5703,5.5703,5.5703,5.5703,5.5703,5.5703,5.5703,5.5703,5.5703,5.5703,5.5722,5.7126,5.8319,5.8319,5.9704,6.08,6.08,6.08,6.08,6.08,6.08,6.08,6.08,6.08,6.08,6.08,6.08,6.08,6.08,6.1623,6.2084,6.2117,6.1286,6.123,6.2081,6.1277,6.08,6.08,6.08,6.08,6.08,6.08,6.08,2.5879,2.6121,0.0,0.0,0.0,0.0,0.0,0.0,0.0,0.0,0.0,0.0,0.0,0.0,0.0,0.0,0.0,0.0,0.0,0.0,0.0,0.0,0.0,0.0,0.0,0.0,0.0,0.0,0.0,3.9662,3.9662,4.0181,4.0239,3.9662,4.045,4.0893,4.0893,4.1143,4.1585,4.22,4.2431,4.3297,4.4701,4.5316,4.5586,4.5586,4.5586,4.5586,4.5586,4.5586,4.5586,4.5624,4.5874,4.6509,4.7355,4.8182,4.9048,4.9875,5.0491,5.0702,5.0933,5.2356,5.2991,5.3472,5.4914,5.5511,5.5703,5.5703,5.5703,5.5703,5.5703,5.5703,5.5703,5.5703,5.5703,5.5857,5.6472,5.6607,5.6799,5.7415,5.8396,5.9146,5.9146,6.005,6.08,6.08,6.08,6.08,6.08,6.08,6.08,6.08,6.08,6.08,6.08,6.08,6.08,6.08,6.1623,6.2353,6.2916,6.2699,6.268,6.294,6.2132,6.142,6.08,6.08,6.08,6.08,6.08,6.08,2.5838,0.0,0.0,0.0,0.0,0.0,0.0,0.0,0.0,0.0,0.0,0.0,0.0,0.0,0.0,0.0,0.0,0.0,0.0,0.0,0.0,0.0,0.0,0.0,0.0,0.0,0.0,0.0,3.8777,3.8777,3.8777,3.9238,3.9277,3.8796,3.9238,3.9662,4.0008,4.0008,4.045,4.1296,4.1643,4.2508,4.3855,4.4701,4.5259,4.5586,4.5586,4.5586,4.5586,4.5586,4.5586,4.5586,4.5586,4.6124,4.6971,4.7451,4.8375,4.9471,4.999,5.0414,5.0914,5.226,5.2933,5.3453,5.4799,5.5453,5.5703,5.5703,5.5703,5.5703,5.5703,5.5703,5.578,5.6126,5.5953,5.603,5.7242,5.7242,5.7261,5.8127,5.8954,5.9492,5.9492,6.0223,6.08,6.08,6.08,6.08,6.08,6.08,6.08,6.08,6.08,6.08,6.08,6.08,6.08,6.08,6.1911,6.2796,6.3281,6.2988,6.3128,6.3792,6.2367,6.1497,6.1324,6.0954,6.08,6.08,6.08,6.08,2.5793,0.0,0.0,0.0,0.0,0.0,0.0,0.0,0.0,0.0,0.0,0.0,0.0,0.0,0.0,0.0,0.0,0.0,0.0,0.0,0.0,0.0,0.0,0.0,0.0,0.0,0.0,0.0,3.7873,3.7873,3.7873,3.7969,3.7969,3.7873,3.7969,3.8373,3.9161,3.9181,3.9585,4.0392,4.1181,4.2066,4.3008,4.3893,4.4778,4.5586,4.5586,4.5586,4.5586,4.5586,4.5586,4.5586,4.5586,4.6086,4.6797,4.6874,4.7913,4.9298,4.9375,4.9971,5.0818,5.1645,5.2491,5.3356,5.4241,5.5049,5.5703,5.5703,5.5703,5.5703,5.5703,5.5703,5.5915,5.678,5.6319,5.6184,5.7915,5.7684,5.7396,5.8338,5.9127,5.9627,5.9627,6.0281,6.08,6.08,6.08,6.08,6.08,6.08,6.08,6.08,6.08,6.08,6.08,6.0858,6.0916,6.0916,6.2493,6.3435,6.3435,6.2719,6.3026,6.4556,6.2243,6.1439,6.2213,6.142,6.0993,6.0916,6.0916,6.0877,2.6718,2.6852,0.0,0.0,0.0,0.0,0.0,0.0,0.0,0.0,0.0,0.0,0.0,0.0,0.0,0.0,0.0,0.0,0.0,0.0,0.0,0.0,0.0,0.0,0.0,0.0,0.0,3.6988,3.6988,3.6988,3.6988,3.7623,3.77,3.7007,3.7642,3.8084,3.8277,3.8277,3.87,3.9546,3.9738,4.0623,4.2143,4.3624,4.4778,4.5586,4.5586,4.5586,4.5586,4.5586,4.5586,4.5586,4.5586,4.5701,4.5951,4.6644,4.7528,4.849,4.9163,4.9971,5.0818,5.1645,5.2491,5.3356,5.4241,5.5049,5.5703,5.5703,5.5703,5.5703,5.5703,5.5703,5.5915,5.678,5.6319,5.6184,5.7915,5.8146,5.8454,5.9973,6.0396,6.0512,6.0512,6.0685,6.08,6.08,6.08,6.08,6.08,6.08,6.08,6.08,6.08,6.08,6.08,6.1416,6.182,6.182,6.3397,6.432,6.432,6.4166,6.4224,6.4595,6.3397,6.2834,6.3051,6.2858,6.2435,6.1805,6.182,6.1454,0.0,0.0,0.0,0.0,0.0,0.0,0.0,0.0,0.0,0.0,0.0,0.0,0.0,0.0,0.0,0.0,0.0,0.0,0.0,0.0,0.0,0.0,0.0,0.0,0.0,0.0,0.0,3.6142,3.6142,3.6142,3.6142,3.6565,3.6603,3.6142,3.6565,3.6988,3.7373,3.7796,3.843,3.9296,3.9681,4.0546,4.1873,4.3547,4.4547,4.4989,4.5413,4.5355,4.5009,4.5432,4.5586,4.5586,4.5586,4.5586,4.5663,4.6105,4.7048,4.8163,4.8625,4.9625,5.076,5.1183,5.2183,5.328,5.3741,5.4722,5.5703,5.5703,5.5703,5.5799,5.6203,5.6319,5.653,5.7415,5.6953,5.678,5.8511,5.8877,5.9261,6.055,6.08,6.08,6.08,6.08,6.08,6.08,6.08,6.08,6.08,6.08,6.08,6.08,6.08,6.08,6.08,6.1589,6.2089,6.2089,6.3666,6.4609,6.4609,6.4993,6.5224,6.5205,6.3974,6.3507,6.3911,6.3512,6.2878,6.2093,6.2113,6.1627,0.0,0.0,0.0,0.0,0.0,0.0,0.0,0.0,0.0,0.0,0.0,0.0,0.0,0.0,0.0,0.0,0.0,0.0,0.0,0.0,0.0,0.0,0.0,0.0,0.0,0.0,0.0,3.5276,3.5276,3.5353,3.5474,3.5493,3.5493,3.5493,3.5493,3.5834,3.6488,3.7219,3.8007,3.8854,3.9815,4.0816,4.1854,4.3239,4.4028,4.4355,4.522,4.5182,4.4586,4.5297,4.5586,4.5586,4.5586,4.5586,4.5586,4.5586,4.6567,4.7913,4.8048,4.9144,5.0491,5.0644,5.1722,5.301,5.3145,5.428,5.5511,5.5665,5.5703,5.5857,5.6588,5.6876,5.7165,5.7896,5.7646,5.7627,5.9165,5.9492,5.9762,6.0627,6.08,6.08,6.08,6.08,6.08,6.08,6.08,6.08,6.08,6.08,6.08,6.08,6.08,6.0858,6.1012,6.18,6.2358,6.2512,6.3974,6.482,6.482,6.5513,6.5897,6.5897,6.4474,6.4109,6.482,6.3955,6.3108,6.23,6.2151,6.1632,0.0,0.0,0.0,0.0,0.0,0.0,0.0,0.0,0.0,0.0,0.0,0.0,0.0,0.0,0.0,0.0,0.0,0.0,0.0,0.0,0.0,0.0,0.0,0.0,0.0,0.0,0.0,3.4372,3.4372,3.4699,3.5468,3.5493,3.5493,3.5493,3.5493,3.5551,3.5661,3.5795,3.6238,3.7065,3.8681,4.0277,4.1816,4.2027,4.2931,4.4355,4.522,4.5528,4.5432,4.5547,4.5586,4.5586,4.5586,4.5586,4.5586,4.5586,4.622,4.7163,4.7855,4.8759,4.9702,5.0452,5.1318,5.2222,5.2972,5.3876,5.4799,5.5491,5.5703,5.5722,5.5838,5.6415,5.703,5.7146,5.7665,5.8377,5.93,5.9492,5.9762,6.0627,6.08,6.08,6.08,6.08,6.08,6.08,6.08,6.08,6.08,6.08,6.08,6.08,6.08,6.1108,6.1858,6.2666,6.3455,6.4224,6.5186,6.5724,6.5724,6.584,6.5897,6.5897,6.5667,6.5609,6.5724,6.4859,6.3974,6.3128,6.2416,6.1627,0.0,0.0,0.0,0.0,0.0,0.0,0.0,0.0,0.0,0.0,0.0,0.0,0.0,0.0,0.0,0.0,0.0,0.0,0.0,0.0,0.0,0.0,0.0,0.0,0.0,0.0,0.0,3.416,3.3737,3.4064,3.543,3.5045,3.5007,3.5488,3.5493,3.5493,3.5493,3.5949,3.6834,3.8161,3.8931,3.9912,4.1085,4.1585,4.247,4.3662,4.4509,4.4874,4.4913,4.5393,4.5586,4.5586,4.5586,4.5586,4.5586,4.5586,4.6144,4.7028,4.7817,4.8663,4.9529,5.0414,5.1241,5.2068,5.2953,5.3818,5.4664,5.5472,5.5703,5.5799,5.6299,5.6703,5.7242,5.8184,5.8684,5.9069,5.9415,5.9492,5.9762,6.0627,6.08,6.08,6.08,6.08,6.08,6.08,6.08,6.08,6.08,6.08,6.08,6.08,6.08,6.0954,6.1339,6.257,6.3474,6.3858,6.5147,6.5897,6.5897,6.5897,6.5897,6.5897,6.5897,6.5897,6.5897,6.5032,6.4147,6.3281,6.2474,6.1627,0.0,0.0,0.0,0.0,0.0,0.0,0.0,0.0,0.0,0.0,0.0,0.0,0.0,0.0,0.0,0.0,0.0,0.0,0.0,0.0,0.0,0.0,0.0,0.0,0.0,0.0,3.3051,3.3814,3.3276,3.366,3.5411,3.4872,3.4834,3.5488,3.5295,3.5276,3.5493,3.6103,3.7257,3.8969,3.8969,3.9508,4.0508,4.1162,4.195,4.2835,4.3855,4.4297,4.4374,4.524,4.5586,4.5586,4.5586,4.5586,4.5586,4.5586,4.6009,4.6721,4.774,4.8529,4.924,5.0337,5.1106,5.1798,5.2876,5.3645,5.4376,5.5415,5.5703,5.5838,5.6492,5.6819,5.7319,5.8569,5.8858,5.9031,5.9685,5.9665,5.9762,6.0627,6.08,6.08,6.08,6.08,6.08,6.08,6.08,6.08,6.08,6.08,6.08,6.08,6.08,6.0973,6.1396,6.2589,6.3493,6.3935,6.5186,6.5897,6.5897,6.5897,6.5897,6.5897,6.5897,6.5897,6.5897,6.4801,6.3935,6.3281,6.2243,6.1416,0.0,0.0,0.0,0.0,0.0,0.0,0.0,0.0,0.0,0.0,0.0,0.0,0.0,0.0,0.0,0.0,0.0,0.0,0.0,0.0,0.0,0.0,0.0,0.0,0.0,0.0,0.0,3.291,3.2929,3.366,3.5411,3.5468,3.5449,3.5493,3.4699,3.4661,3.5474,3.5532,3.6411,3.8065,3.8065,3.8911,4.0489,4.0546,4.1046,4.197,4.3585,4.4297,4.4374,4.524,4.5586,4.5586,4.5586,4.5586,4.5586,4.5586,4.5624,4.5893,4.7528,4.8125,4.8452,5.0144,5.0721,5.1068,5.2702,5.3241,5.3606,5.5241,5.5703,5.5703,5.5761,5.6376,5.7011,5.7107,5.7126,5.778,6.0204,6.0089,5.9762,6.0627,6.08,6.08,6.08,6.08,6.08,6.08,6.08,6.08,6.08,6.08,6.08,6.08,6.08,6.1435,6.3031,6.3262,6.4012,6.5647,6.584,6.5897,6.5897,6.5897,6.5897,6.5897,6.5897,6.5897,6.5897,6.4205,6.3339,6.3262,6.1627,6.0839,0.0,0.0,0.0,0.0,0.0,0.0,0.0,0.0,0.0,0.0,0.0,0.0,0.0,0.0,0.0,0.0,0.0,0.0,0.0,0.0,0.0,0.0,0.0,0.0,0.0,0.0,0.0,3.2865,3.1929,3.2275,3.4545,3.4141,3.4083,3.4641,3.4353,3.4353,3.4661,3.5218,3.6065,3.718,3.718,3.8065,3.9719,3.9719,4.0181,4.1066,4.2777,4.3816,4.4374,4.524,4.5586,4.5586,4.5586,4.5586,4.5586,4.5586,4.5951,4.6586,4.7721,4.8471,4.9125,5.0317,5.1048,5.1702,5.2856,5.3587,5.426,5.5395,5.5703,5.5703,5.5703,5.5934,5.6453,5.7569,5.7838,5.8377,6.0358,6.055,6.0435,6.0742,6.08,6.08,6.08,6.08,6.08,6.08,6.08,6.08,6.08,6.08,6.08,6.08,6.08,6.1262,6.2435,6.3012,6.382,6.4993,6.559,6.5897,6.5897,6.5897,6.5897,6.5897,6.5897,6.5897,6.5897,6.4147,6.3301,6.3262,6.1589,6.08,0.0,0.0,0.0,0.0,0.0,0.0,0.0,0.0,0.0,0.0,0.0,0.0,0.0,0.0,0.0,0.0,0.0,0.0,0.0,0.0,0.0,0.0,0.0,0.0,0.0,0.0,0.0,3.2505,3.1749,0.0,3.4083,3.393,3.3891,3.418,3.4199,3.4199,3.4199,3.5064,3.5911,3.6699,3.6699,3.7469,3.8873,3.9161,3.9585,4.0181,4.1912,4.3124,4.3989,4.5124,4.5586,4.5586,4.5586,4.5586,4.5586,4.5586,4.6144,4.7028,4.7817,4.8663,4.9529,5.0414,5.1241,5.2068,5.2953,5.3818,5.4664,5.5472,5.5703,5.5703,5.5703,5.5915,5.6434,5.7588,5.83,5.9011,6.0127,6.0358,6.0454,6.0742,6.08,6.08,6.08,6.08,6.08,6.08,6.08,6.08,6.08,6.08,6.08,6.08,6.08,6.1262,6.2397,6.2993,6.3801,6.4955,6.557,6.5897,6.5897,6.5897,6.5897,6.5897,6.5897,6.5897,6.5897,6.4147,6.3166,6.2858,6.1454,6.08,0.0,0.0,0.0,0.0,0.0,0.0,0.0,0.0,0.0,0.0,0.0,0.0,0.0,0.0,0.0,0.0,0.0,0.0,0.0,0.0,0.0,0.0,0.0,0.0,0.0,0.0,3.0948,3.1777,3.248,3.3256,3.416,3.4988,3.5045,3.418,3.416,3.416,3.416,3.5026,3.5872,3.6661,3.6661,3.7142,3.8027,3.8873,3.9277,3.9431,4.1104,4.2316,4.322,4.4874,4.5566,4.5586,4.5586,4.5586,4.5586,4.5586,4.6163,4.7048,4.7836,4.8682,4.9586,5.0433,5.1241,5.2068,5.2953,5.3818,5.4664,5.5472,5.5703,5.5703,5.5703,5.6338,5.6992,5.703,5.83,5.9511,5.9531,5.955,5.9781,6.0627,6.08,6.08,6.08,6.08,6.08,6.08,6.08,6.08,6.08,6.08,6.08,6.08,6.08,6.1473,6.3166,6.3301,6.4051,6.5782,6.5897,6.5897,6.5897,6.5897,6.5897,6.5897,6.5897,6.5878,6.5859,6.4166,6.2916,6.2108,6.1223,6.08,2.5625,0.0,0.0,0.0,0.0,0.0,2.6309,2.668,0.0,0.0,0.0,0.0,0.0,0.0,0.0,0.0,0.0,0.0,0.0,0.0,0.0,0.0,0.0,0.0,0.0,0.0,3.128,0.0,3.2403,3.2744,3.4191,3.3859,3.3506,3.3276,3.3256,3.3256,3.3256,3.4122,3.4988,3.5834,3.5834,3.6603,3.8007,3.8257,3.9008,4.0258,4.1989,4.2874,4.3181,4.422,4.5028,4.5586,4.5586,4.5586,4.5586,4.5586,4.6509,4.7798,4.8029,4.9086,5.0375,5.0606,5.1241,5.2068,5.2953,5.3818,5.4664,5.5472,5.5703,5.5703,5.5703,5.6417,5.7264,5.78,5.8838,5.9861,6.0339,6.0435,6.0512,6.0742,6.08,6.08,6.08,6.08,6.08,6.08,6.08,6.08,6.08,6.08,6.08,6.08,6.08,6.1473,6.3166,6.3301,6.4051,6.5782,6.5897,6.5897,6.5897,6.5897,6.5897,6.5897,6.5897,6.559,6.4955,6.4474,6.3801,6.2935,6.1473,6.08,0.0,0.0,0.0,0.0,0.0,0.0,2.6152,2.6328,2.6387,0.0,0.0,0.0,0.0,0.0,0.0,0.0,0.0,0.0,0.0,0.0,0.0,0.0,0.0,0.0,0.0,3.0781,3.1131,3.2143,3.199,3.2566,3.4197,3.3743,3.3603,3.3968,3.3622,3.3622,3.3987,3.4487,3.5007,3.5493,3.5493,3.6199,3.7469,3.7834,3.8719,4.0085,4.1816,4.2758,4.3162,4.397,4.4797,4.5586,4.5586,4.5586,4.5586,4.5586,4.6663,4.8105,4.8105,4.924,5.0702,5.0702,5.1241,5.2068,5.2953,5.3818,5.4664,5.5472,5.5703,5.5703,5.5761,5.6494,5.7307,5.7757,5.8583,5.9435,6.0108,6.0262,6.0358,6.0723,6.08,6.08,6.08,6.08,6.08,6.08,6.08,6.08,6.08,6.08,6.08,6.08,6.08,6.1473,6.3166,6.3301,6.4051,6.5782,6.5897,6.5897,6.5897,6.5897,6.5897,6.5897,6.5897,6.5647,6.5147,6.4782,6.3974,6.2781,6.18,6.1146,0.0,0.0,0.0,0.0,0.0,0.0,2.6699,2.6269,2.5684,2.5625,0.0,0.0,0.0,0.0,0.0,0.0,0.0,0.0,0.0,0.0,0.0,0.0,0.0,0.0,3.0898,3.0781,3.0793,3.0989,3.1732,3.2815,3.4211,3.4147,3.4449,3.5334,3.4507,3.4468,3.5353,3.5372,3.5411,3.5493,3.5493,3.5968,3.6873,3.7642,3.8527,3.9508,4.1104,4.2297,4.3162,4.397,4.4797,4.5586,4.5586,4.5586,4.5605,4.5701,4.674,4.8105,4.8221,4.9317,5.0702,5.0702,5.1183,5.1952,5.2914,5.3741,5.453,5.5453,5.5703,5.5722,5.5857,5.6554,5.7216,5.7207,5.7949,5.8819,5.9377,5.9588,5.9877,6.0646,6.08,6.08,6.08,6.08,6.08,6.08,6.08,6.08,6.08,6.08,6.08,6.08,6.08,6.1473,6.3166,6.3301,6.4051,6.5782,6.5897,6.5897,6.5897,6.5897,6.5897,6.5897,6.5897,6.5897,6.5897,6.5032,6.3782,6.2224,6.2127,6.1627,0.0,0.0,0.0,0.0,0.0,0.0,2.6074,2.582,2.5703,0.0,0.0,0.0,0.0,0.0,0.0,0.0,0.0,0.0,0.0,0.0,0.0,0.0,0.0,0.0,3.0898,3.0879,3.1425,3.277,3.3559,3.4074,3.4288,3.357,3.3545,3.443,3.3603,3.3564,3.4449,3.4449,3.4814,3.5493,3.5493,3.6295,3.7757,3.7911,3.8834,4.0315,4.1354,4.2297,4.3162,4.397,4.4797,4.5586,4.5586,4.5586,4.5682,4.6394,4.7259,4.8202,4.8894,4.9817,5.0702,5.0702,5.0798,5.1221,5.2741,5.3318,5.378,5.528,5.5703,5.5722,5.5857,5.6629,5.7321,5.7227,5.849,5.9669,5.9531,6.005,6.0589,6.0762,6.08,6.08,6.08,6.08,6.08,6.08,6.08,6.08,6.08,6.08,6.08,6.08,6.08,6.1473,6.3166,6.3301,6.4051,6.5782,6.5897,6.5897,6.5897,6.5897,6.5897,6.5897,6.5897,6.5897,6.5897,6.5032,6.407,6.3051,6.2397,6.1627,0.0,0.0,0.0,2.5801,0.0,0.0,0.0,2.5703,2.582,2.6269,0.0,0.0,0.0,0.0,0.0,0.0,0.0,0.0,0.0,0.0,0.0,0.0,0.0,0.0,3.0215,3.0254,3.0781,3.2051,3.281,3.318,3.3154,3.343,3.3833,3.4339,3.4282,3.4468,3.4891,3.4872,3.5064,3.5493,3.5911,3.6776,3.8007,3.845,3.9335,4.0566,4.1873,4.2701,4.3201,4.4432,4.5201,4.5605,4.568,4.5699,4.5815,4.6644,4.749,4.8317,4.9125,4.9971,5.0702,5.0702,5.0702,5.101,5.2683,5.378,5.4626,5.5453,5.5703,5.5742,5.5994,5.6358,5.6666,5.6686,5.7345,5.8014,5.8204,5.8934,5.9665,6.0069,6.0492,6.08,6.08,6.08,6.08,6.08,6.08,6.08,6.08,6.08,6.08,6.08,6.08,6.1473,6.3166,6.3301,6.4051,6.5782,6.5897,6.5897,6.5897,6.5897,6.5897,6.5897,6.5897,6.5897,6.5897,6.5455,6.4801,6.3935,6.3089,6.2243,0.0,0.0,0.0,0.0,0.0,2.6113,0.0,0.0,0.0,2.6602,0.0,0.0,0.0,0.0,0.0,0.0,0.0,0.0,0.0,0.0,0.0,0.0,0.0,0.0,2.9512,2.9609,2.9961,3.082,3.1376,3.176,3.1969,3.3323,3.4205,3.4441,3.5213,3.5612,3.5622,3.5565,3.5622,3.5795,3.6411,3.7257,3.8277,3.8969,3.9738,4.0585,4.2162,4.2931,4.322,4.472,4.5451,4.5605,4.5719,4.5776,4.5911,4.6682,4.7548,4.8394,4.9163,5.001,5.0741,5.0741,5.0933,5.1433,5.2799,5.4376,5.5703,5.5703,5.5703,5.5761,5.6071,5.6017,5.5932,5.6104,5.6147,5.6299,5.6876,5.78,5.8723,5.9377,6.0204,6.08,6.08,6.08,6.08,6.08,6.08,6.08,6.08,6.08,6.08,6.08,6.08,6.1416,6.2935,6.307,6.382,6.5532,6.5647,6.5724,6.5878,6.5897,6.5897,6.5897,6.5897,6.5897,6.5897,6.5897,6.5455,6.4589,6.3878,6.3031,0.0,0.0,0.0,0.0,2.7422,0.0,0.0,0.0,2.5723,2.582,0.0,0.0,0.0,0.0,0.0,0.0,0.0,0.0,0.0,0.0,0.0,0.0,0.0,2.8633,2.9512,2.9609,2.9961,3.082,3.0859,3.1161,3.1865,3.2809,3.3632,3.4308,3.5224,3.5689,3.568,3.5622,3.6021,3.6824,3.6752,3.7584,3.9234,3.9292,3.9738,4.0546,4.1527,4.2393,4.3162,4.4085,4.4893,4.5586,4.5605,4.5699,4.5892,4.6644,4.7509,4.8414,4.9278,5.0144,5.0895,5.0895,5.1798,5.2953,5.3145,5.4376,5.5703,5.5703,5.5703,5.5742,5.5876,5.5921,5.5912,5.5924,5.6496,5.703,5.7011,5.8242,5.9396,5.9473,6.0204,6.08,6.08,6.08,6.08,6.08,6.08,6.08,6.08,6.08,6.08,6.08,6.08,6.1185,6.2147,6.2224,6.2935,6.4647,6.4743,6.5089,6.5859,6.5897,6.5897,6.5897,6.5897,6.5897,6.5897,6.5897,6.5455,6.4609,6.4493,6.3608,0.0,0.0,0.0,0.0,0.0,0.0,2.6504,0.0,2.5996,0.0,0.0,0.0,0.0,0.0,0.0,0.0,2.6348,0.0,0.0,0.0,0.0,0.0,0.0,0.0,2.8008,2.8555,2.9004,2.9355,2.9766,3.0169,3.0546,3.2287,3.3425,3.3768,3.5092,3.5818,3.5819,3.6164,3.6562,3.7011,3.7849,3.8657,3.9422,3.9927,4.0566,4.1316,4.2217,4.3063,4.3855,4.4701,4.5316,4.5719,4.5719,4.5776,4.5979,4.6863,4.7396,4.7854,4.924,4.9894,5.024,5.0837,5.2107,5.3416,5.3435,5.4549,5.5818,5.5818,5.5761,5.5722,5.5857,5.5846,5.5789,5.588,5.6107,5.6453,5.6896,5.7953,5.8934,5.9415,6.0204,6.08,6.08,6.08,6.08,6.08,6.08,6.08,6.08,6.08,6.08,6.08,6.08,6.1146,6.2031,6.2531,6.332,6.4532,6.507,6.5513,6.5878,6.5897,6.5897,6.5897,6.5897,6.5897,6.5897,6.5897,6.5705,6.534,6.4839,6.4224,2.6467,0.0,0.0,0.0,0.0,0.0,0.0,0.0,0.0,0.0,0.0,0.0,0.0,0.0,0.0,0.0,0.0,2.6191,0.0,0.0,0.0,0.0,0.0,0.0,0.0,2.7715,2.8144,2.8613,2.8984,2.9297,2.9551,3.1757,3.3109,3.3363,3.4801,3.5684,3.5937,3.6592,3.7099,3.7445,3.8753,3.9523,3.9812,4.0718,4.1389,4.1928,4.3099,4.3888,4.4412,4.5334,4.5738,4.5815,4.5853,4.5911,4.607,4.7008,4.7464,4.7813,4.9335,4.9937,5.0167,5.0873,5.2221,5.36,5.3604,5.4688,5.5885,5.5899,5.5799,5.5722,5.5818,5.5761,5.578,5.6107,5.5934,5.5992,5.7107,5.7857,5.855,5.9338,6.0204,6.08,6.08,6.08,6.08,6.08,6.08,6.08,6.08,6.08,6.08,6.08,6.1012,6.1396,6.205,6.2839,6.3666,6.4551,6.5416,6.5897,6.5897,6.5897,6.5897,6.5897,6.5897,6.5897,6.5897,6.5897,6.5897,6.5878,6.5243,6.4839,0.0,0.0,0.0,2.7918,0.0,0.0,0.0,0.0,2.8223,0.0,0.0,0.0,0.0,0.0,0.0,2.7129,0.0,0.0,0.0,0.0,0.0,0.0,0.0,0.0,0.0,2.7519,2.7734,2.9434,2.8809,2.8672,2.9453,3.123,3.2553,3.328,3.425,3.5137,3.5996,3.666,3.7529,3.8558,3.905,3.9818,4.0785,4.1596,4.1959,4.2094,4.3885,4.4581,4.4564,4.5507,4.5853,4.5815,4.6007,4.6084,4.6191,4.6929,4.7811,4.8773,4.9695,5.049,5.1137,5.1095,5.2229,5.3604,5.3604,5.4672,5.5897,5.5903,5.5799,5.5703,5.5703,5.5703,5.5915,5.6761,5.6319,5.6165,5.7896,5.828,5.855,5.9338,6.0204,6.08,6.08,6.08,6.08,6.08,6.08,6.08,6.08,6.08,6.08,6.08,6.155,6.207,6.2089,6.2839,6.3666,6.4551,6.5416,6.5897,6.5897,6.5897,6.5897,6.5897,6.5897,6.5897,6.5897,6.5897,6.5897,6.5897,6.5859,6.5416,0.0,0.0,2.6198,2.7699,0.0,0.0,0.0,0.0,0.0,0.0,0.0,0.0,0.0,0.0,2.8008,2.7148,2.6992,0.0,0.0,0.0,0.0,0.0,0.0,0.0,0.0,0.0,0.0,2.7012,2.7285,2.7812,2.8652,3.0937,3.2554,3.3329,3.4799,3.5703,3.5996,3.7249,3.8121,3.8616,3.9702,4.0462,4.0958,4.1808,4.2452,4.3004,4.424,4.5017,4.5444,4.5777,4.595,4.6007,4.6065,4.6142,4.634,4.7151,4.7631,4.8029,4.9412,5.0449,5.1198,5.1176,5.2391,5.3865,5.3865,5.497,5.6211,5.6115,5.5974,5.5799,5.5722,5.5703,5.5915,5.678,5.6319,5.6319,5.8607,5.8684,5.8704,6.0089,6.0589,6.08,6.08,6.08,6.08,6.08,6.08,6.08,6.08,6.08,6.08,6.08,6.157,6.2089,6.2089,6.3378,6.4532,6.5416,6.5743,6.5897,6.5897,6.5897,6.5897,6.5897,6.5897,6.5897,6.5897,6.5897,6.5897,6.5897,6.5897,6.5743,2.5986,2.5755,0.0,2.7168,2.7411,0.0,2.9159,0.0,0.0,0.0,0.0,0.0,0.0,0.0,0.0,2.7187,2.6992,2.6699,0.0,2.5977,0.0,0.0,0.0,0.0,0.0,0.0,2.7109,2.623,2.6973,2.7715,0.0,3.0488,3.2246,3.3359,3.4785,3.5812,3.6395,3.7678,3.8546,3.9016,4.0181,4.082,4.1024,4.2225,4.3027,4.3539,4.4784,4.5575,4.5969,4.6032,4.6065,4.61,4.6151,4.6216,4.6434,4.764,4.8346,4.8914,4.9933,5.0702,5.1199,5.1201,5.2472,5.4004,5.4004,5.5117,5.6376,5.6243,5.6059,5.5857,5.5722,5.5703,5.5915,5.678,5.6319,5.6395,5.8954,5.8877,5.88,6.0473,6.08,6.08,6.08,6.08,6.08,6.08,6.08,6.08,6.08,6.08,6.08,6.08,6.157,6.2339,6.2935,6.4262,6.5301,6.5859,6.5897,6.5897,6.5897,6.5897,6.6032,6.632,6.6051,6.6032,6.632,6.6032,6.5897,6.5897,6.5897,6.5897]},{"header":{"parameterUnit":"m.s-1","parameterCategory":1,"la1":30.6,"la2":29.2853,"lo1":-89.7004,"lo2":-87.6739,"dy":0.0162,"dx":0.0183,"nx":112,"ny":82,"refTime":"2023-11-17T06:00:00:Z","depth":0,"parameterNumber":3,"parameterNumberName":"V-component_of_WINDS"},"data":[0.0,0.0,0.0,0.0,0.0,0.0,0.0,0.0,0.0,0.0,0.0,0.0,0.0,0.0,0.0,0.0,0.0,0.0,0.0,0.0,0.0,0.0,0.0,0.0,0.0,0.0,0.0,0.0,0.0,0.0,0.0,0.0,0.0,0.0,0.0,0.0,0.0,0.0,0.0,0.0,0.0,0.0,0.0,0.0,0.0,0.0,0.0,0.0,0.0,0.0,0.0,0.0,0.0,0.0,0.0,0.0,0.0,0.0,0.0,0.0,0.0,0.0,0.0,0.0,0.0,0.0,0.0,0.0,0.0,0.0,0.0,0.0,0.0,0.0,0.0,0.0,0.0,0.0,0.0,0.0,0.0,0.0,0.0,0.0,0.0,0.0,0.0,0.0,0.0,0.0,0.0,-0.8069,-0.923,-0.9529,-0.8927,-0.8366,-0.771,-0.7171,0.0,0.0,0.0,0.0,0.0,0.0,0.0,0.0,0.0,0.0,0.0,0.0,0.0,0.0,0.0,0.0,0.0,0.0,0.0,0.0,0.0,0.0,0.0,0.0,0.0,0.0,0.0,0.0,0.0,0.0,0.0,0.0,0.0,0.0,0.0,0.0,0.0,0.0,0.0,0.0,0.0,0.0,0.0,0.0,0.0,0.0,0.0,0.0,0.0,0.0,0.0,0.0,0.0,0.0,0.0,0.0,0.0,0.0,0.0,0.0,0.0,0.0,0.0,0.0,0.0,0.0,0.0,0.0,0.0,0.0,0.0,0.0,0.0,0.0,0.0,0.0,0.0,0.0,0.0,0.0,0.0,0.0,0.0,0.0,0.0,0.0,0.0,0.0,0.0,0.0,0.0,0.0,0.0,0.0,0.0,0.0,0.0,0.0,0.0,0.0,0.0,0.0,0.0,0.0,-0.7004,-0.9253,-0.9704,-0.9581,-0.8974,-0.8361,-0.7752,-0.7144,0.0,0.0,0.0,0.0,0.0,0.0,0.0,0.0,0.0,0.0,0.0,0.0,0.0,0.0,0.0,0.0,0.0,0.0,0.0,0.0,0.0,0.0,0.0,0.0,0.0,0.0,0.0,0.0,0.0,0.0,0.0,0.0,0.0,0.0,0.0,0.0,0.0,0.0,0.0,0.0,0.0,0.0,0.0,0.0,0.0,0.0,0.0,0.0,0.0,0.0,0.0,0.0,0.0,0.0,0.0,0.0,0.0,0.0,0.0,0.0,0.0,0.0,0.0,0.0,0.0,0.0,0.0,0.0,0.0,0.0,0.0,0.0,0.0,0.0,0.0,0.0,0.0,0.0,0.0,0.0,0.0,0.0,0.0,0.0,0.0,0.0,0.0,0.0,0.0,0.0,0.0,0.0,0.0,0.0,0.0,0.0,0.0,0.0,0.0,0.0,0.0,0.0,0.0,-0.7344,-0.7756,-0.9129,-0.9295,-0.9103,-0.8491,-0.8109,-0.7777,-0.7175,-0.5496,0.0,0.0,0.0,0.0,0.0,0.0,0.0,0.0,0.0,0.0,0.0,0.0,0.0,0.0,0.0,0.0,0.0,0.0,0.0,0.0,0.0,0.0,0.0,0.0,0.0,0.0,0.0,0.0,0.0,0.0,0.0,0.0,0.0,0.0,0.0,0.0,0.0,0.0,0.0,0.0,0.0,0.0,0.0,0.0,0.0,0.0,0.0,0.0,0.0,0.0,0.0,0.0,0.0,0.0,0.0,0.0,0.0,0.0,0.0,0.0,0.0,0.0,0.0,0.0,0.0,0.0,0.0,0.0,0.0,0.0,0.0,0.0,0.0,0.0,0.0,0.0,0.0,0.0,0.0,0.0,0.0,0.0,0.0,0.0,0.0,0.0,0.0,0.0,0.0,0.0,0.0,0.0,0.0,0.0,0.0,0.0,0.0,0.0,0.0,0.0,0.0,0.0,-0.7468,-0.825,-0.8806,-0.8752,-0.8464,-0.802,-0.8024,-0.7743,-0.7104,-0.5574,0.0,0.0,0.0,0.0,0.0,0.0,0.0,0.0,0.0,0.0,0.0,0.0,0.0,0.0,0.0,0.0,0.0,0.0,0.0,0.0,0.0,0.0,0.0,0.0,0.0,0.0,0.0,0.0,0.0,0.0,0.0,0.0,0.0,0.0,0.0,0.0,0.0,0.0,0.0,0.0,0.0,0.0,0.0,0.0,0.0,0.0,0.0,0.0,0.0,0.0,0.0,0.0,0.0,0.0,0.0,0.0,0.0,0.0,0.0,0.0,0.0,0.0,0.0,0.0,0.0,0.0,0.0,0.0,0.0,0.0,0.0,0.0,0.0,0.0,0.0,0.0,0.0,0.0,0.0,0.0,0.0,0.0,0.0,0.0,0.0,0.0,0.0,0.0,0.0,0.0,0.0,0.0,0.0,0.0,0.0,0.0,0.0,0.0,0.0,0.0,0.0,0.0,-0.6985,-0.8227,-0.8882,-0.8409,-0.8094,-0.7971,-0.7969,-0.772,-0.7159,-0.6018,0.0,0.0,0.0,0.0,0.0,0.0,0.0,0.0,0.0,0.0,0.0,0.0,0.0,0.0,0.0,0.0,0.0,0.0,0.0,0.0,0.0,0.0,0.0,0.0,0.0,0.0,0.0,0.0,0.0,0.0,0.0,0.0,0.0,0.0,0.0,0.0,0.0,0.0,0.0,0.0,0.0,0.0,0.0,0.0,0.0,0.0,0.0,0.0,0.0,0.0,0.0,0.0,0.0,0.0,0.0,0.0,0.0,0.0,0.0,0.0,0.0,0.0,0.0,0.0,0.0,0.0,0.0,0.0,0.0,0.0,0.0,0.0,0.0,0.0,0.0,0.0,0.0,0.0,0.0,0.0,0.0,0.0,0.0,0.0,0.0,0.0,0.0,0.0,0.0,0.0,0.0,0.0,0.0,0.0,0.0,0.0,0.0,0.0,0.0,0.0,0.0,0.0,-0.7371,-0.808,0.0,-0.8109,-0.8021,-0.8032,-0.8041,-0.7306,-0.5627,0.0,0.0,0.0,0.0,0.0,0.0,0.0,0.0,0.0,0.0,0.0,0.0,0.0,0.0,0.0,0.0,0.0,0.0,0.0,0.0,0.0,0.0,0.0,0.0,0.0,0.0,0.0,0.0,0.0,0.0,0.0,0.0,0.0,0.0,0.0,0.0,0.0,0.0,0.0,0.0,0.0,0.0,0.0,0.0,0.0,0.0,0.0,0.0,0.0,0.0,0.0,0.0,0.0,0.0,0.0,0.0,0.0,0.0,0.0,0.0,0.0,0.0,0.0,0.0,0.0,0.0,0.0,0.0,0.0,0.0,0.0,0.0,0.0,0.0,0.0,0.0,0.0,0.0,0.0,0.0,0.0,0.0,0.0,0.0,0.0,0.0,0.0,0.0,0.0,0.0,0.0,0.0,0.0,0.0,0.0,0.0,0.0,0.0,0.0,0.0,0.0,0.0,-0.693,-0.7636,-0.8023,0.0,-0.8029,-0.8049,-0.8048,-0.8026,-0.7152,-0.5183,0.0,0.0,0.0,0.0,0.0,0.0,0.0,0.0,0.0,0.0,0.0,0.0,0.0,0.0,0.0,0.0,0.0,0.0,0.0,0.0,0.0,0.0,0.0,0.0,0.0,0.0,0.0,0.0,0.0,0.0,0.0,0.0,0.0,0.0,0.0,0.0,0.0,0.0,0.0,0.0,0.0,0.0,0.0,0.0,0.0,0.0,0.0,0.0,0.0,0.0,0.0,0.0,0.0,0.0,0.0,0.0,0.0,0.0,0.0,0.0,0.0,0.0,0.0,0.0,0.0,0.0,0.0,0.0,0.0,0.0,0.0,0.0,0.0,0.0,0.0,0.0,0.0,0.0,0.0,0.0,0.0,0.0,0.0,0.0,0.0,0.0,0.0,0.0,0.0,0.0,0.0,0.0,0.0,0.0,0.0,0.0,0.0,0.0,0.0,0.0,0.0,0.0,-0.6941,-0.7636,-0.8023,-0.7987,-0.8038,-0.8038,-0.8035,-0.7986,-0.7546,0.0,0.0,0.0,0.0,0.0,0.0,0.0,0.0,0.0,0.0,0.0,0.0,0.0,0.0,0.0,0.0,0.0,0.0,0.0,0.0,0.0,0.0,0.0,0.0,0.0,0.0,0.0,0.0,0.0,0.0,0.0,0.0,0.0,0.0,0.0,0.0,0.0,0.0,0.0,0.0,0.0,0.0,0.0,0.0,0.0,0.0,0.0,0.0,0.0,0.0,0.0,0.0,0.0,0.0,0.0,0.0,0.0,0.0,0.0,0.0,0.0,0.0,0.0,0.0,0.0,0.0,0.0,0.0,0.0,0.0,0.0,0.0,0.0,0.0,0.0,0.0,0.0,0.0,0.0,0.0,0.0,0.0,0.0,0.0,0.0,0.0,0.0,0.0,0.0,0.0,0.0,0.0,0.0,0.0,0.0,0.0,0.0,0.0,0.0,0.0,0.0,0.0,0.0,-0.6468,-0.7386,-0.8033,-0.7999,-0.8017,-0.7957,-0.8044,-0.7982,-0.7373,-0.5767,0.0,0.0,0.0,0.0,0.0,0.0,0.0,0.0,0.0,0.0,0.0,0.0,0.0,0.0,0.0,0.0,0.0,0.0,0.0,0.0,0.0,0.0,0.0,0.0,0.0,0.0,0.0,0.0,0.0,0.0,0.0,0.0,0.0,0.0,0.0,0.0,0.0,0.0,0.0,0.0,0.0,0.0,0.0,0.0,0.0,0.0,0.0,0.0,0.0,0.0,0.0,0.0,0.0,0.0,0.0,0.0,0.0,0.0,0.0,0.0,0.0,0.0,0.0,0.0,0.0,0.0,0.0,0.0,0.0,0.0,0.0,0.0,0.0,0.0,0.0,0.0,0.0,0.0,0.0,0.0,0.0,0.0,0.0,0.0,0.0,0.0,0.0,0.0,0.0,0.0,0.0,0.0,0.0,0.0,0.0,0.0,0.0,0.0,0.0,0.0,0.0,0.0,-0.6241,-0.7073,-0.7764,-0.7959,-0.776,-0.7694,-0.8005,-0.7771,-0.7007,-0.5459,0.0,0.0,0.0,0.0,0.0,0.0,0.0,0.0,0.0,0.0,0.0,0.0,0.0,0.0,0.0,0.0,0.0,0.0,0.0,0.0,0.0,0.0,0.0,0.0,0.0,0.0,0.0,0.0,0.0,0.0,0.0,0.0,0.0,0.0,0.0,0.0,0.0,0.0,0.0,0.0,0.0,0.0,0.0,0.0,0.0,0.0,0.0,0.0,0.0,0.0,0.0,0.0,0.0,0.0,0.0,0.0,0.0,0.0,0.0,0.0,0.0,0.0,0.0,0.0,0.0,0.0,0.0,0.0,0.0,0.0,0.0,0.0,0.0,0.0,0.0,0.0,0.0,0.0,0.0,0.0,0.0,0.0,0.0,0.0,0.0,0.0,0.0,0.0,0.0,0.0,0.0,0.0,0.0,0.0,0.0,0.0,0.0,0.0,0.0,0.0,0.0,0.0,-0.6215,-0.6732,-0.7271,-0.7894,-0.7389,-0.7299,-0.7851,-0.7389,-0.6664,-0.5575,0.0,0.0,0.0,0.0,0.0,0.0,0.0,0.0,0.0,0.0,0.0,0.0,0.0,0.0,0.0,0.0,0.0,0.0,0.0,0.0,0.0,0.0,0.0,0.0,0.0,0.0,0.0,0.0,0.0,0.0,0.0,0.0,0.0,0.0,0.0,0.0,0.0,0.0,0.0,0.0,0.0,0.0,0.0,0.0,0.0,0.0,0.0,0.0,0.0,0.0,0.0,0.0,0.0,0.0,0.0,0.0,0.0,0.0,0.0,0.0,-0.5859,0.0,0.0,0.0,0.0,0.0,0.0,0.0,0.0,0.0,0.0,0.0,0.0,0.0,0.0,0.0,0.0,0.0,0.0,0.0,0.0,0.0,0.0,0.0,0.0,0.0,0.0,0.0,0.0,0.0,0.0,0.0,0.0,0.0,0.0,0.0,0.0,0.0,0.0,0.0,0.0,0.0,-0.6244,-0.6757,-0.7187,-0.7307,-0.7171,-0.7121,-0.7261,-0.7172,-0.6791,-0.6112,-0.5372,0.0,0.0,0.0,0.0,0.0,0.0,0.0,0.0,0.0,0.0,0.0,0.0,0.0,0.0,0.0,0.0,0.0,0.0,0.0,0.0,0.0,0.0,0.0,0.0,0.0,0.0,0.0,0.0,0.0,0.0,0.0,0.0,0.0,0.0,0.0,0.0,0.0,0.0,0.0,0.0,0.0,0.0,0.0,0.0,0.0,0.0,0.0,0.0,0.0,0.0,0.0,0.0,0.0,0.0,0.0,0.0,0.0,0.0,0.0,0.0,-0.5842,0.0,0.0,0.0,0.0,0.0,0.0,0.0,0.0,0.0,0.0,0.0,0.0,0.0,0.0,0.0,0.0,0.0,0.0,0.0,0.0,0.0,0.0,0.0,0.0,0.0,0.0,0.0,0.0,0.0,0.0,0.0,0.0,0.0,0.0,0.0,0.0,0.0,0.0,0.0,0.0,-0.621,-0.6756,-0.7079,-0.7119,-0.7098,-0.7128,-0.7064,-0.7114,-0.6857,-0.6307,-0.5408,0.0,0.0,0.0,0.0,0.0,0.0,0.0,0.0,0.0,0.0,0.0,0.0,0.0,0.0,0.0,0.0,0.0,0.0,0.0,0.0,0.0,0.0,0.0,0.0,0.0,0.0,0.0,0.0,0.0,0.0,0.0,0.0,0.0,0.0,0.0,0.0,0.0,0.0,0.0,0.0,0.0,0.0,0.0,0.0,0.0,0.0,0.0,0.0,0.0,0.0,0.0,0.0,0.0,-0.8096,-0.8103,-0.7955,-0.7777,-0.7513,-0.724,-0.7017,-0.6563,-0.5921,-0.5673,0.0,0.0,0.0,0.0,0.0,0.0,0.0,0.0,0.0,0.0,0.0,0.0,0.0,0.0,0.0,0.0,0.0,0.0,0.0,0.0,0.0,0.0,0.0,0.0,-0.5607,-0.5669,-0.5599,0.0,0.0,0.0,0.0,0.0,0.0,0.0,0.0,0.0,0.0,0.0,-0.6256,-0.675,-0.7073,-0.7109,-0.7139,-0.7139,-0.7139,-0.7101,-0.692,-0.6485,-0.5894,-0.5269,0.0,0.0,0.0,0.0,0.0,0.0,0.0,0.0,0.0,0.0,0.0,0.0,0.0,0.0,0.0,0.0,0.0,0.0,0.0,0.0,0.0,0.0,0.0,0.0,0.0,0.0,0.0,0.0,0.0,0.0,0.0,0.0,0.0,0.0,0.0,0.0,0.0,0.0,0.0,0.0,0.0,0.0,0.0,0.0,0.0,0.0,0.0,-0.687,-0.8425,-0.7935,-0.7778,-0.7966,-0.8481,-0.8528,-0.796,-0.796,-0.7956,-0.7858,-0.7739,0.0,-0.6538,-0.6264,0.0,0.0,0.0,0.0,0.0,0.0,0.0,0.0,0.0,0.0,0.0,0.0,0.0,0.0,0.0,0.0,0.0,0.0,0.0,0.0,0.0,0.0,-0.5456,-0.6033,-0.6503,-0.6745,0.0,-0.5322,-0.4928,-0.645,-0.5512,0.0,0.0,0.0,0.0,0.0,0.0,0.0,-0.625,-0.6766,-0.7073,-0.7109,-0.7139,-0.7139,-0.7139,-0.7101,-0.7052,-0.6962,-0.6499,-0.5656,-0.4557,-0.4552,0.0,0.0,0.0,0.0,0.0,0.0,0.0,0.0,0.0,0.0,0.0,0.0,0.0,0.0,0.0,0.0,0.0,0.0,0.0,0.0,0.0,0.0,0.0,0.0,0.0,0.0,0.0,0.0,0.0,0.0,0.0,0.0,0.0,0.0,0.0,0.0,0.0,0.0,0.0,0.0,0.0,0.0,0.0,-0.7366,-0.7326,-0.7763,-0.8909,-0.8996,-0.8932,-0.8751,-0.8855,-0.8772,-0.8522,-0.8147,-0.8069,-0.8165,-0.7977,-0.7753,-0.7424,-0.7309,-0.6909,-0.6485,0.0,0.0,0.0,0.0,-0.5963,-0.5819,-0.5848,-0.6208,-0.6528,-0.595,0.0,0.0,0.0,0.0,0.0,0.0,0.0,0.0,0.0,0.0,-0.9666,-0.7297,-0.6933,-0.7013,-0.6781,-0.6325,-0.5988,0.0,-0.5223,-0.4561,-0.4858,0.0,0.0,0.0,0.0,-0.5206,-0.6197,-0.6799,-0.714,-0.7097,-0.7095,-0.7075,-0.7086,-0.7093,-0.7059,-0.7071,-0.659,-0.6051,-0.553,-0.5184,-0.5101,0.0,0.0,0.0,0.0,0.0,0.0,0.0,0.0,0.0,0.0,0.0,0.0,0.0,0.0,0.0,0.0,0.0,0.0,0.0,0.0,0.0,0.0,0.0,0.0,0.0,0.0,0.0,0.0,0.0,0.0,0.0,0.0,0.0,0.0,0.0,0.0,0.0,0.0,0.0,-0.6019,-0.6997,-0.8001,-0.9112,-0.8583,-0.8582,-0.9069,-0.9417,-0.9492,-0.9388,-0.9124,-0.8974,-0.8925,-0.8374,-0.8253,-0.8316,-0.8163,-0.8099,-0.8065,-0.8005,-0.7603,-0.6912,-0.6888,-0.6661,-0.6341,-0.6692,-0.6539,-0.6105,-0.6574,-0.675,-0.6625,-0.6028,-0.6488,-0.7199,-0.6386,0.0,0.0,0.0,0.0,-0.5638,-0.5812,-0.9022,-1.1459,-0.7931,-0.7066,-0.7109,-0.7135,-0.7122,-0.6824,0.0,-0.5331,-0.4907,-0.4737,0.0,0.0,0.0,0.0,-0.5475,-0.6381,-0.6822,-0.7121,-0.707,-0.6987,-0.6947,-0.7126,-0.6953,-0.6888,-0.6903,-0.6549,-0.6334,-0.6309,-0.5714,-0.5169,-0.4718,0.0,0.0,0.0,0.0,0.0,0.0,0.0,0.0,0.0,0.0,0.0,0.0,0.0,0.0,0.0,0.0,0.0,0.0,0.0,0.0,0.0,0.0,0.0,0.0,0.0,0.0,0.0,0.0,0.0,0.0,0.0,0.0,0.0,0.0,0.0,-0.4854,-0.6315,-0.7295,-0.7869,-0.8483,-0.9091,-0.9696,-0.9492,-0.94,-0.9444,-0.911,-0.912,-0.9363,-0.9339,-0.9191,-0.8932,-0.8696,-0.8608,-0.8462,-0.8323,-0.8258,-0.8225,-0.8072,-0.7962,-0.7909,-0.7317,-0.7285,-0.7534,-0.7497,-0.7714,-0.791,-0.7899,-0.792,-0.785,-0.7234,-0.6349,-0.5603,-0.5743,-0.603,0.0,0.0,-0.5835,-0.6392,-0.6882,-0.7215,-0.7427,-0.717,-0.7088,-0.7122,-0.7129,-0.7101,-0.7115,0.0,-0.6615,-0.6058,-0.5467,0.0,-0.6039,-0.5505,-0.6324,-0.7009,-0.7038,-0.7076,-0.707,-0.7115,-0.6681,-0.654,-0.7022,-0.6659,-0.6366,-0.6324,-0.6329,-0.6266,-0.6323,-0.5733,-0.5362,-0.5338,-0.4836,0.0,0.0,0.0,0.0,0.0,0.0,0.0,0.0,0.0,0.0,0.0,0.0,0.0,0.0,0.0,0.0,0.0,0.0,0.0,0.0,0.0,0.0,0.0,0.0,0.0,0.0,0.0,0.0,0.0,0.0,0.0,0.0,0.0,-0.1934,-0.6687,-0.7788,-0.8317,-0.8543,-0.8754,-0.9003,-0.9176,-0.9493,-0.9564,-0.927,-0.9252,-0.93,-0.9415,-0.9267,-0.9164,-0.9102,-0.8685,-0.8572,-0.8615,-0.8267,-0.8061,-0.8143,-0.7991,-0.8025,-0.7924,-0.7712,-0.7709,-0.7823,-0.7766,-0.7819,-0.7969,-0.804,-0.5751,-0.331,-0.6183,-0.681,-0.6489,-0.6391,-0.6373,-0.6284,-0.6035,-0.6386,-0.6852,-0.7014,-0.7076,-0.7097,-0.7095,-0.7129,-0.7139,-0.7139,-0.7102,-0.708,-0.6913,-0.6695,-0.6457,-0.6067,-0.5849,-0.5738,-0.5674,-0.6216,-0.67,-0.7081,-0.6958,-0.6888,-0.7112,-0.677,-0.6589,-0.6603,-0.6247,-0.6083,-0.628,-0.6282,-0.6126,-0.574,-0.5487,-0.5424,-0.538,-0.5177,-0.4917,0.0,0.0,0.0,0.0,0.0,0.0,0.0,0.0,0.0,0.0,0.0,0.0,0.0,0.0,0.0,0.0,0.0,0.0,0.0,0.0,0.0,0.0,0.0,0.0,0.0,0.0,0.0,0.0,0.0,0.0,0.0,0.0,-0.2296,-0.7868,-0.8652,-0.8947,-0.8942,-0.8876,-0.8948,-0.9047,-0.9476,-0.9631,-0.9378,-0.9497,-0.9497,-0.9378,-0.9178,-0.9083,-0.9076,-0.8766,-0.8675,-0.8771,-0.8361,-0.813,-0.8114,-0.8019,-0.798,-0.799,-0.7889,-0.7931,-0.7959,-0.7855,-0.7889,-0.7899,-0.6967,-0.3747,-0.0675,-0.4701,-0.6642,-0.7323,-0.6859,-0.6652,-0.6585,-0.6433,-0.6612,-0.6898,-0.7049,-0.7071,-0.7139,-0.7139,-0.7139,-0.7139,-0.7139,-0.7139,-0.7011,-0.687,-0.6733,-0.6609,-0.6314,-0.594,-0.5775,-0.5976,-0.625,-0.6587,-0.6986,-0.6885,-0.678,-0.6951,-0.6776,-0.6552,-0.6129,-0.611,-0.6038,-0.5973,-0.5981,-0.582,-0.545,-0.5369,-0.5298,-0.5126,-0.5071,-0.5088,-0.5119,0.0,0.0,0.0,0.0,0.0,0.0,0.0,0.0,0.0,0.0,0.0,0.0,0.0,0.0,0.0,0.0,0.0,0.0,0.0,0.0,0.0,0.0,0.0,0.0,0.0,0.0,0.0,0.0,0.0,0.0,0.0,-0.2431,-0.8153,-0.8824,-0.8865,-0.8949,-0.8862,-0.9072,-0.9483,-0.9381,-0.952,-0.9812,-0.9645,-0.9381,-0.9255,-0.8967,-0.894,-0.894,-0.894,-0.894,-0.892,-0.8615,-0.8482,-0.8459,-0.816,-0.8038,-0.8038,-0.8038,-0.8038,-0.8038,-0.8038,-0.8038,-0.7621,-0.4922,-0.2252,-0.039,-0.2993,-0.5739,-0.7843,-0.7138,-0.7039,-0.7039,-0.6774,-0.6506,-0.6442,-0.6933,-0.7143,-0.7139,-0.7139,-0.7139,-0.7139,-0.7139,-0.7139,-0.7099,-0.6956,-0.6719,-0.6525,-0.6315,-0.6298,-0.6321,-0.6314,-0.65,0.0,-0.6868,-0.6922,-0.6837,-0.6668,-0.6579,-0.6408,-0.5908,-0.6361,-0.6351,-0.5466,-0.5402,-0.5428,-0.5375,-0.5431,-0.5149,-0.4579,-0.4535,-0.5114,-0.6373,0.0,0.0,0.0,0.0,0.0,0.0,0.0,0.0,0.0,0.0,0.0,0.0,0.0,0.0,0.0,0.0,0.0,0.0,0.0,0.0,0.0,0.0,0.0,0.0,0.0,0.0,0.0,0.0,0.0,0.0,0.0,-0.0672,-0.2341,-0.642,-0.8851,-0.894,-0.8883,-0.9042,-0.9325,-0.9323,-0.9473,-0.9666,-0.9479,-0.9381,-0.9374,-0.9079,-0.894,-0.894,-0.894,-0.894,-0.892,-0.8505,-0.8374,-0.8563,-0.9156,-0.892,-0.8038,-0.8038,-0.8038,-0.8038,-0.8038,-0.7955,-0.7662,-0.4897,-0.2276,-0.0098,-0.087,-0.4203,-0.7955,-0.7557,-0.7326,-0.704,-0.7037,-0.696,-0.6889,-0.7021,-0.7131,-0.7139,-0.7139,-0.7139,-0.7139,-0.7139,-0.7139,-0.7099,-0.6956,-0.6807,-0.6637,-0.6447,-0.6373,-0.629,-0.6331,-0.6338,0.0,-0.6719,-0.6763,-0.6844,-0.7149,-0.699,-0.6746,-0.6515,-0.6458,-0.6294,-0.605,-0.564,-0.5389,-0.5401,-0.539,-0.541,-0.5434,-0.527,-0.5928,0.0,0.0,0.0,0.0,0.0,0.0,0.0,0.0,0.0,0.0,0.0,0.0,0.0,0.0,0.0,0.0,0.0,0.0,0.0,0.0,0.0,0.0,-0.1413,0.0,0.0,0.0,0.0,0.0,0.0,0.0,0.0,0.0,0.0,0.0,-0.4368,-0.7249,-0.7749,-0.8552,-0.914,-0.9337,-0.9432,-0.9547,-0.9696,-0.9551,-0.9445,-0.9494,-0.9027,-0.8883,-0.894,-0.894,-0.894,-0.8923,-0.8682,-0.854,-0.8465,-0.9104,-0.8847,0.0,0.0,0.0,0.0,0.0,-0.7962,-0.7578,-0.4926,-0.2197,0.0,0.0,-0.2849,-0.6532,-0.7541,-0.7702,-0.7469,-0.7346,-0.7342,-0.7262,-0.7105,-0.7115,-0.7139,-0.7139,-0.7139,-0.7068,-0.7131,-0.7094,-0.7048,-0.7027,-0.69,0.0,-0.6688,-0.6488,-0.6393,-0.6522,-0.6485,-0.6552,-0.6848,-0.6831,-0.6865,-0.7125,-0.698,-0.6817,-0.6623,-0.6551,0.0,0.0,0.0,-0.571,-0.5561,-0.5542,0.0,0.0,0.0,-0.6513,-0.8373,0.0,0.0,0.0,-1.0987,-1.0584,0.0,0.0,0.0,0.0,0.0,0.0,0.0,0.0,0.0,0.0,0.0,0.0,0.0,0.0,0.0,0.0,0.0,0.0,0.0,0.0,0.0,0.0,0.0,0.0,0.0,0.0,0.0,0.0,-0.3133,-0.5559,-0.6572,0.0,0.0,0.0,0.0,-0.968,-0.9819,-0.956,-0.953,-0.9497,-0.9108,-0.896,-0.894,-0.894,-0.894,-0.893,-0.8889,-0.8742,-0.8397,-0.8374,-0.8422,-0.8485,-0.943,-0.9019,-0.8038,-0.8038,-0.7959,-0.7578,-0.4926,0.0,0.0,-0.0805,-0.2512,-0.4908,-0.7312,-0.7955,-0.798,-0.7712,-0.7625,-0.7573,-0.7234,-0.718,-0.7163,-0.7143,-0.7139,-0.7091,-0.7057,-0.7158,-0.7187,-0.7151,-0.7138,-0.7082,-0.697,-0.6715,-0.661,-0.6865,-0.6803,-0.682,-0.7082,-0.7021,-0.6959,-0.6976,0.0,0.0,-0.6393,-0.6569,-0.6403,-0.5711,-0.601,-0.6084,-0.5813,-0.5778,-0.5788,-0.5953,-0.5858,-0.673,-0.8639,-1.0166,-1.1013,-1.1217,-1.0868,-1.0679,0.0,0.0,0.0,0.0,0.0,0.0,0.0,0.0,0.0,0.0,0.0,0.0,0.0,0.0,0.0,-0.0638,0.0,0.0,0.0,0.0,0.0,0.0,0.0,0.0,0.0,0.0,0.0,0.0,-0.5391,-0.8766,-0.8772,-0.9222,-0.9442,-0.9605,-0.9608,-0.968,-0.9819,-0.968,-0.9534,-0.9381,0.0,0.0,-0.894,-0.894,-0.894,-0.893,-0.8889,-0.8807,-0.8762,-0.8266,-0.9342,-1.0981,-0.9137,-0.8233,-0.8038,-0.8038,-0.7955,-0.7569,-0.4924,-0.3615,-0.362,-0.5758,-0.6768,-0.7353,-0.7836,-0.8014,0.0,-0.7929,-0.7724,-0.7594,-0.7546,-0.7513,-0.7479,-0.717,-0.7139,-0.7091,-0.7057,-0.7341,-0.746,-0.7154,-0.7064,-0.7087,-0.7085,-0.6956,-0.6817,-0.6756,-0.6824,-0.6905,-0.6963,-0.7044,-0.7146,-0.7272,-0.7192,-0.7015,-0.6987,-0.6803,-0.6536,-0.6156,-0.5979,-0.5864,-0.5803,-0.5755,-0.583,-0.5803,-0.583,-0.6327,-0.7433,-0.7735,-0.8669,-1.0026,-1.0898,-1.1235,0.0,0.0,0.0,0.0,0.0,0.0,0.0,0.0,0.0,0.0,0.0,0.0,0.0,0.0,-0.3531,-0.3508,-0.1543,0.0,0.0,0.0,0.0,0.0,0.0,0.0,0.0,0.0,0.0,0.0,-0.46,-0.7999,-0.9542,-0.9615,-0.9574,-0.971,-0.9717,-0.9747,-0.9822,-0.968,-0.953,-0.9497,-0.9225,-0.8963,-0.894,-0.894,-0.894,-0.8937,-0.8859,-0.8781,-0.8696,-0.8404,-0.9133,-1.0278,-0.8787,-0.8153,-0.8042,-0.7965,-0.7952,-0.7769,-0.6442,-0.6039,-0.6247,-0.7591,-0.7992,-0.7972,-0.7972,-0.7959,-0.8024,-0.8048,-0.7872,-0.7777,-0.783,-0.7543,-0.7277,-0.7106,-0.709,-0.7109,-0.7089,-0.7366,-0.7465,-0.7168,-0.7065,-0.7081,-0.7058,-0.7075,-0.7002,-0.687,-0.6987,-0.7034,-0.7034,-0.7095,-0.7108,-0.7259,-0.7118,-0.7131,-0.7058,-0.68,-0.6556,-0.6485,-0.6264,-0.6135,-0.6135,-0.621,-0.6217,-0.6139,-0.6213,-0.671,-0.7621,-0.7621,-0.8389,-0.9706,-1.0282,-1.0452,0.0,0.0,0.0,0.0,0.0,0.0,0.0,0.0,-0.5132,-0.0872,0.0,0.0,0.0,0.0,-0.1276,-0.5076,-0.2466,0.0,0.0,0.0,0.0,0.0,0.0,0.0,0.0,0.0,-0.0485,-0.1596,-0.3644,-0.6308,-0.9602,-0.9724,-0.9703,-0.9819,-0.9822,-0.9822,-0.9822,-0.9587,-0.9561,-0.9497,-0.9138,-0.8987,-0.894,-0.894,-0.894,-0.894,-0.894,-0.8756,-0.8524,-0.8618,-0.8752,-0.8841,-0.8675,-0.8336,-0.7975,-0.8006,-0.7952,-0.7965,-0.7972,-0.7975,-0.7982,-0.7985,-0.7979,-0.7965,-0.7965,-0.7955,-0.8014,-0.7993,-0.7955,-0.8021,-0.7974,-0.7641,-0.7247,-0.7315,-0.7286,-0.7282,-0.724,-0.7379,-0.7444,-0.7155,-0.7126,-0.7096,-0.7126,-0.723,-0.7227,-0.7085,-0.7138,-0.7125,-0.7098,-0.7118,-0.7082,-0.708,-0.7195,-0.7221,-0.7098,-0.6854,-0.6685,-0.6609,-0.6585,-0.6518,-0.6518,-0.6636,-0.6629,-0.6563,-0.6681,-0.7138,-0.7922,-0.7922,-0.8328,-0.9141,-0.9141,-0.9189,-0.6026,-0.8351,0.0,-0.7996,-0.7518,-0.7384,0.0,0.0,-0.5127,-0.0854,0.0,0.0,0.0,0.0,-0.0203,-0.074,-0.0324,0.0,0.0,0.0,0.0,0.0,0.0,0.0,0.0,0.0,-0.2172,-0.7522,-0.5985,-0.6224,-0.9313,-0.963,-0.9805,-0.9822,-0.9822,-0.9822,-0.9822,-0.9805,-0.9656,-0.9381,-0.9245,-0.9091,-0.894,-0.894,-0.894,-0.894,-0.894,-0.8927,-0.8803,-0.8896,-0.8899,-0.8896,-0.8841,-0.8471,-0.7994,-0.8039,-0.8041,-0.8045,-0.7965,-0.7962,-0.8048,-0.7969,-0.7962,-0.8041,-0.8041,-0.8041,-0.8035,-0.8018,-0.8014,-0.798,-0.8025,-0.7987,-0.7856,-0.7921,-0.788,-0.7944,-0.7928,-0.7461,-0.7188,-0.7098,-0.7069,-0.7129,-0.7069,-0.7587,-0.7684,-0.7169,-0.7069,-0.7118,-0.708,-0.7085,-0.7121,-0.7099,-0.7574,-0.7684,-0.7168,-0.7111,-0.6943,-0.6737,-0.6715,-0.6705,-0.6705,-0.6721,-0.6666,-0.6705,-0.6718,-0.6746,-0.6864,-0.6864,-0.6947,-0.7026,-0.7026,-0.7959,-0.7993,-1.0002,0.0,0.0,-0.7774,-0.7254,-0.7428,-0.7327,-0.5891,-0.0999,0.0,0.0,0.0,0.0,0.0,0.0,0.0,0.0,0.0,0.0,0.0,0.0,-0.2787,-0.34,-0.0355,0.0,-0.2498,-0.8485,-0.8099,-0.813,-0.9404,-0.9637,-0.9822,-0.9822,-0.9822,-0.9822,-0.9822,-0.9741,-0.9591,-0.9381,-0.9171,-0.902,-0.894,-0.894,-0.894,-0.894,-0.894,-0.894,-0.894,-0.894,-0.894,-0.8923,-0.8882,-0.8728,-0.8459,-0.8146,-0.8016,-0.8041,-0.8048,-0.8048,-0.8041,-0.7952,-0.8048,-0.8038,-0.8038,-0.8038,-0.8038,-0.8038,-0.8038,-0.8024,-0.7963,-0.8045,-0.8031,-0.7969,-0.8007,-0.787,-0.7508,-0.7567,-0.756,-0.7181,-0.7364,-0.7648,-0.7614,-0.7797,-0.7955,-0.7654,-0.761,-0.7577,-0.7609,-0.7272,-0.7192,-0.7605,-0.783,-0.7861,-0.7612,-0.7602,-0.7571,-0.7506,-0.7312,-0.7217,-0.7217,-0.7217,-0.7191,-0.7228,-0.7041,-0.6966,-0.691,-0.6907,-0.6903,-0.6913,-0.6907,-0.7385,-1.0277,-1.1285,0.0,-0.9818,-0.8635,-0.7932,-0.7955,-0.797,-0.6653,-0.201,-0.0486,0.0,0.0,0.0,0.0,0.0,-0.1541,-0.269,-0.2466,-0.1664,-0.0879,-0.0109,-0.4093,-0.566,-0.2511,-0.1618,-0.3372,-0.8564,-0.9206,-0.9397,-0.9456,-0.973,-0.9822,-0.9822,-0.9781,-0.9781,-0.9822,-0.9639,-0.949,-0.9381,-0.9108,-0.896,-0.894,-0.894,-0.894,-0.894,-0.894,-0.894,-0.894,-0.894,-0.894,-0.8923,-0.8882,-0.8945,-0.879,-0.8217,-0.7965,-0.8038,-0.8038,-0.8038,-0.8038,-0.8038,-0.8038,-0.8038,-0.8038,-0.8038,-0.8038,-0.8038,-0.8038,-0.8038,-0.8038,-0.8038,-0.8038,-0.8038,-0.8007,-0.7858,-0.7485,-0.7711,-0.7846,-0.7429,-0.7674,-0.8025,-0.7969,-0.7967,-0.8038,-0.8038,-0.7959,-0.8002,-0.796,-0.7658,-0.7478,-0.7914,-0.8011,-0.8032,-0.8027,-0.8016,-0.8016,-0.8016,-0.7818,-0.7723,-0.7723,-0.7723,-0.7702,-0.7756,-0.7462,-0.7389,-0.7339,-0.716,-0.716,-0.7342,-0.7356,-0.7312,-1.154,-1.1068,-0.9771,-0.9784,-0.92,-0.8508,-0.7907,-0.7923,-0.7235,-0.441,-0.1779,0.0,0.0,0.0,0.0,0.0,-0.5335,-0.9262,-0.8686,-0.5938,-0.2886,-0.0328,-0.2467,-0.5108,0.0,-0.5726,-0.5635,-0.8717,-0.9235,-0.9449,-0.9398,-0.9663,-0.9822,-0.9822,-0.9686,-0.9683,-0.9819,-0.9534,-0.9388,-0.9381,-0.9225,-0.9079,-0.894,-0.894,-0.894,-0.894,-0.894,-0.894,-0.894,-0.894,-0.894,-0.8923,-0.8882,-0.8945,-0.879,-0.8217,-0.7965,-0.8038,-0.8038,-0.8038,-0.8038,-0.8038,-0.8038,-0.8038,-0.8038,-0.8038,-0.8038,-0.8038,-0.8038,-0.8038,-0.8038,-0.8038,-0.8038,-0.8038,-0.8028,-0.7959,-0.8001,-0.8007,-0.7984,-0.797,-0.801,-0.7959,-0.8007,-0.8035,-0.8038,-0.8038,-0.8031,-0.7974,-0.8021,-0.8004,-0.7962,-0.8011,-0.8031,-0.8031,-0.8028,-0.8024,-0.8024,-0.8024,-0.8024,-0.8024,-0.8024,-0.8024,-0.796,-0.8007,-0.8004,-0.7934,-0.798,-0.7402,-0.7406,-0.798,-0.7987,-0.7987,-0.9001,-0.9625,-0.9907,-0.9222,-0.9158,-0.9033,-0.8108,-0.7928,-0.7726,-0.6846,-0.3151,0.0,0.0,0.0,-0.1277,-0.5284,-0.7721,-0.9258,-0.9234,-0.8317,-0.699,-0.5493,-0.6295,0.0,0.0,0.0,0.0,-0.8659,-0.9184,-0.9371,-0.9381,-0.9659,-0.9778,-0.9683,-0.9635,-0.9585,-0.953,-0.9432,-0.9446,-0.9228,-0.9083,-0.8984,-0.894,-0.894,-0.894,-0.8933,-0.8944,-0.8849,-0.8933,-0.8941,-0.8849,-0.8923,-0.8882,-0.8618,-0.8249,-0.811,-0.7965,-0.8038,-0.8038,-0.8038,-0.8038,-0.8038,-0.8038,-0.8038,-0.8038,-0.8038,-0.8038,-0.8038,-0.8038,-0.8038,-0.8038,-0.8038,-0.8038,-0.8038,-0.8001,-0.7977,-0.8028,-0.7963,-0.8024,-0.8021,-0.7997,-0.798,-0.8031,-0.8038,-0.8038,-0.8038,-0.8038,-0.8021,-0.797,-0.7963,-0.7984,-0.8035,-0.8038,-0.8038,-0.8038,-0.8038,-0.8038,-0.8038,-0.8038,-0.8038,-0.8038,-0.8038,-0.8014,-0.7967,-0.7963,-0.799,-0.8037,-0.7841,-0.7838,-0.8037,-0.8042,-0.7993,-0.8002,-0.8844,-0.9566,-0.9109,-0.8934,-0.8792,-0.8113,-0.7915,-0.771,-0.6756,-0.3867,-0.1162,-0.0173,-0.106,-0.3301,-0.7594,-0.8313,-0.8513,-0.9092,-0.9081,-0.8917,-0.8557,-0.8555,-0.855,0.0,0.0,0.0,-0.8538,-0.8991,-0.9346,-0.9296,-0.9585,-0.9703,-0.9612,-0.9557,-0.9483,-0.9384,-0.9394,-0.9174,-0.9076,-0.8984,-0.894,-0.894,-0.894,-0.894,-0.8933,-0.8948,-0.8736,-0.8592,-0.8832,-0.8852,-0.8916,-0.8932,-0.8567,-0.8023,-0.8047,-0.8022,-0.8038,-0.8038,-0.8038,-0.8038,-0.8038,-0.8038,-0.8038,-0.8038,-0.8038,-0.8038,-0.8038,-0.8038,-0.8038,-0.8038,-0.8038,-0.8038,-0.8038,-0.8038,-0.8038,-0.8038,-0.8038,-0.8038,-0.8038,-0.8038,-0.8038,-0.8038,-0.8038,-0.8038,-0.8038,-0.8038,-0.8038,-0.8038,-0.8038,-0.8038,-0.8038,-0.7985,-0.7999,-0.8045,-0.8032,-0.8049,-0.8045,-0.8036,-0.8046,-0.8041,-0.7992,-0.7995,-0.8041,-0.8038,-0.7991,-0.7997,-0.7994,-0.7991,-0.7997,-0.7994,-0.8038,-0.8464,-0.8656,-0.883,-0.9279,-0.8713,-0.8035,-0.8021,-0.7899,-0.7124,-0.4618,-0.3984,-0.3072,0.0,0.0,-0.5808,-0.6963,-0.7269,-0.771,-0.8541,-0.8621,-0.88,0.0,0.0,0.0,0.0,0.0,0.0,-0.8496,0.0,-0.9137,-0.9144,-0.9432,-0.9595,-0.9588,-0.9562,-0.9483,-0.9476,-0.9079,-0.894,-0.894,-0.894,-0.894,-0.894,-0.894,-0.894,-0.894,-0.893,-0.8592,-0.8143,-0.8702,-0.8933,-0.891,-0.8931,-0.8482,-0.8014,-0.8046,-0.8038,-0.8038,-0.8038,-0.8038,-0.8038,-0.8038,-0.8038,-0.8038,-0.8038,-0.8038,-0.8038,-0.8038,-0.8038,-0.8038,-0.8038,-0.8038,-0.8038,-0.8038,-0.8038,-0.8038,-0.8038,-0.8038,-0.8041,-0.8048,-0.7952,-0.8048,-0.8041,-0.8038,-0.8038,-0.8038,-0.8038,-0.8038,-0.8038,-0.8038,-0.8041,-0.8048,-0.7975,-0.8004,-0.8072,-0.8004,-0.804,-0.8079,-0.8007,-0.8037,-0.8072,-0.7994,-0.7998,-0.7952,-0.7952,-0.8045,-0.8038,-0.8038,-0.8038,-0.8038,-0.8038,-0.8038,-0.7793,-0.8015,-0.8203,-0.8503,-0.8296,-0.798,-0.776,-0.751,-0.708,-0.6238,-0.3396,-0.1236,0.0,0.0,0.0,-0.7288,-0.776,0.0,-0.8706,-0.9039,0.0,0.0,0.0,-0.9127,-0.8913,-0.8742,0.0,0.0,-0.8886,-0.9006,-0.8988,-0.9279,-0.9504,-0.9273,-0.9349,-0.9277,-0.9052,-0.8977,-0.894,-0.894,-0.894,-0.894,-0.894,-0.894,-0.894,-0.8933,-0.8931,-0.8835,-0.8702,-0.8818,-0.8948,-0.891,-0.8931,-0.8482,-0.8014,-0.8046,-0.8038,-0.8038,-0.8038,-0.8038,-0.8038,-0.8038,-0.8038,-0.8038,-0.8038,-0.8038,-0.8038,-0.8038,-0.8038,-0.8038,-0.8038,-0.8038,-0.8038,-0.8038,-0.8038,-0.8038,-0.8038,-0.8038,-0.7972,-0.7981,-0.8001,-0.7968,-0.7959,-0.8038,-0.8038,-0.8038,-0.8038,-0.8038,-0.8038,-0.8038,-0.7982,-0.7991,-0.8034,-0.819,-0.8681,-0.8223,-0.8233,-0.8691,-0.8226,-0.8233,-0.8691,-0.8193,-0.804,-0.8004,-0.8001,-0.8049,-0.8038,-0.8038,-0.8038,-0.8038,-0.8038,-0.8038,-0.7811,-0.8014,-0.8177,-0.8326,-0.815,-0.7862,-0.7567,-0.7249,-0.6937,-0.6672,-0.45,0.0,0.0,0.0,0.0,0.0,0.0,0.0,-0.873,-0.8981,-0.9178,0.0,-0.9466,0.0,-0.9249,-0.9113,-0.8971,0.0,-0.8825,-0.8862,-0.8937,-0.9157,-0.936,-0.9274,-0.95,-0.9314,-0.894,-0.894,-0.894,-0.894,-0.894,-0.894,-0.894,-0.894,-0.894,-0.8933,0.0,-0.8862,-0.8933,-0.8849,-0.8862,-0.891,-0.8931,-0.8482,-0.8014,-0.8046,-0.8038,-0.8038,-0.8038,-0.8038,-0.8038,-0.8038,-0.8038,-0.8038,-0.8038,-0.8038,-0.8038,-0.8038,-0.8038,-0.8038,-0.8038,-0.8038,-0.8038,-0.8038,-0.8038,-0.8038,-0.8038,-0.8038,-0.8085,-0.8343,-0.8213,-0.8017,-0.8037,-0.8024,-0.8024,-0.8024,-0.8024,-0.8024,-0.8024,-0.7971,-0.7968,-0.8047,-0.8277,-0.8577,-0.8912,-0.8604,-0.8515,-0.8923,-0.8608,-0.8515,-0.892,-0.8547,-0.8404,-0.8367,-0.815,-0.7975,-0.8036,-0.8036,-0.8002,-0.8038,-0.8038,-0.8038,-0.8245,-0.833,-0.8353,-0.8455,-0.8143,-0.7723,-0.739,-0.7068,-0.6678,-0.6263,0.0,-0.5323,-0.3444,-0.4543,-0.5978,-0.6665,0.0,-0.739,-0.8547,-0.8743,-0.9025,-0.971,-0.97,-0.9639,-0.9639,-0.9361,-0.913,-0.9005,-0.896,-0.893,-0.891,-0.9045,-0.924,-0.9356,-0.9589,-0.9412,-0.894,-0.894,-0.894,-0.894,-0.894,-0.894,-0.894,-0.894,-0.894,-0.894,-0.894,-0.894,-0.894,-0.894,-0.894,-0.891,-0.8931,-0.8482,-0.8014,-0.8046,-0.8038,-0.8041,-0.7962,-0.7969,-0.7965,-0.8045,-0.8038,-0.8038,-0.8038,-0.8038,-0.8038,-0.8038,-0.8038,-0.8045,-0.7962,-0.7969,-0.7969,-0.7969,-0.7982,-0.7992,-0.7972,-0.7999,-0.8163,-0.8805,-0.8522,-0.8075,-0.8161,-0.8157,-0.8157,-0.8157,-0.8157,-0.8157,-0.8157,-0.8053,-0.7988,-0.8114,-0.8557,-0.8887,-0.8881,-0.8917,-0.8849,-0.8888,-0.892,-0.8951,-0.8881,-0.889,-0.889,-0.8948,-0.8401,-0.8118,-0.8087,-0.8084,-0.8011,-0.7969,-0.7985,-0.7975,-0.8554,-0.8635,-0.8611,-0.8509,-0.8143,-0.7668,-0.7129,-0.6678,0.0,0.0,-0.5624,-0.5366,-0.5033,-0.5523,-0.6127,-0.6651,0.0,0.0,0.0,0.0,-0.9218,0.0,0.0,0.0,0.0,0.0,0.0,0.0,0.0,-0.8882,-0.8757,-0.8893,-0.8977,-0.8977,-0.8977,-0.8967,-0.894,-0.894,-0.894,-0.894,-0.894,-0.894,-0.894,-0.894,-0.894,-0.894,-0.894,0.0,-0.894,-0.894,-0.894,-0.891,-0.8931,-0.8482,-0.8014,-0.8046,-0.8038,-0.7955,-0.7978,-0.8018,-0.8001,-0.7979,-0.8038,-0.8038,-0.8038,-0.8038,-0.8038,-0.8038,-0.8038,-0.7969,-0.7988,-0.8018,-0.8018,-0.8018,-0.8001,-0.805,-0.8044,-0.7991,-0.813,-0.8786,-0.8786,-0.8742,-0.872,-0.8699,-0.8699,-0.8699,-0.8699,-0.8699,-0.8699,-0.8351,-0.8171,-0.8728,-0.8793,-0.8865,-0.8852,-0.8903,-0.8927,-0.8872,-0.8907,-0.8923,-0.8869,-0.8886,-0.8937,-0.8894,-0.8779,-0.8707,-0.8765,-0.8229,-0.805,-0.8021,-0.803,-0.7958,-0.8862,-0.8886,-0.8811,-0.8737,-0.8208,-0.7546,-0.6946,0.0,0.0,0.0,-0.5416,-0.5369,-0.5428,-0.5617,0.0,0.0,0.0,0.0,0.0,0.0,0.0,0.0,0.0,0.0,0.0,0.0,0.0,0.0,0.0,-0.8821,-0.8828,-0.8899,-0.894,-0.894,-0.894,-0.894,-0.894,-0.894,-0.894,-0.894,-0.894,-0.894,-0.894,-0.894,-0.894,-0.894,-0.894,-0.894,-0.894,-0.894,-0.8893,-0.891,-0.8786,-0.8435,-0.8024,-0.8019,-0.8038,-0.8062,-0.8323,-0.848,-0.848,-0.848,-0.8221,-0.8039,-0.7962,-0.7995,-0.7955,-0.7955,-0.8004,-0.7971,-0.804,-0.827,-0.8484,-0.8484,-0.8431,-0.8462,-0.8501,-0.8444,-0.8578,-0.8835,-0.8946,-0.8917,-0.8848,-0.8942,-0.8942,-0.8942,-0.8896,-0.8941,-0.8941,-0.8673,-0.8579,-0.8842,-0.8856,-0.8858,-0.8931,-0.8879,-0.9007,-0.9295,-0.9114,-0.8886,-0.8937,-0.8861,-0.8937,-0.8943,-0.8906,-0.8907,-0.8942,-0.8638,-0.8418,-0.8488,-0.8128,-0.819,-0.9083,-0.9117,-0.9052,-0.892,-0.8286,-0.7519,-0.6851,-0.6352,0.0,0.0,-0.5428,-0.5428,-0.5428,-0.546,-0.5647,0.0,0.0,0.0,0.0,0.0,0.0,0.0,0.0,0.0,0.0,0.0,0.0,0.0,0.0,0.0,-0.893,-0.8906,-0.8779,-0.8779,-0.8859,-0.8855,-0.8889,-0.8889,-0.8889,-0.8779,-0.8923,-0.892,-0.8893,-0.8923,-0.894,-0.894,-0.894,-0.894,-0.894,-0.894,-0.8869,-0.8855,-0.8591,-0.8334,-0.7984,-0.8076,-0.8116,-0.822,-0.8618,-0.8898,-0.8916,-0.8927,-0.8519,-0.8041,-0.7955,-0.7988,-0.8064,-0.82,-0.818,-0.8164,-0.8197,-0.853,-0.8867,-0.8899,-0.8881,-0.8878,-0.8941,-0.8942,-0.8927,-0.8849,-0.895,-0.892,-0.892,-0.892,-0.892,-0.892,-0.8897,-0.8967,-0.9084,-0.9096,-0.9103,-0.9106,-0.9144,-0.9139,-0.9139,-0.9052,-0.9295,-0.9743,-0.9412,-0.9056,-0.9142,-0.9144,-0.902,-0.89,-0.9037,-0.9035,-0.8917,-0.8879,-0.8949,-0.891,-0.8362,-0.8438,-0.911,-0.9347,-0.9418,-0.8869,-0.8364,-0.777,-0.6898,0.0,0.0,-0.5454,-0.5428,-0.5428,-0.5428,-0.5439,-0.5525,-0.5959,-0.6159,-0.658,0.0,0.0,0.0,0.0,0.0,0.0,0.0,0.0,0.0,0.0,0.0,0.0,-0.893,-0.8696,-0.8618,-0.851,-0.8488,-0.8701,-0.8953,-0.8953,-0.8733,-0.851,-0.8759,-0.8869,-0.8852,-0.8876,-0.894,-0.894,-0.894,-0.894,0.0,-0.894,-0.893,-0.8903,-0.8635,-0.8268,-0.803,-0.8337,-0.8467,-0.8501,-0.857,-0.8672,-0.8894,-0.8908,-0.8499,-0.7975,-0.7978,-0.804,-0.8087,-0.864,-0.8797,-0.8839,-0.8766,-0.8911,-0.8946,-0.8866,-0.8903,-0.8876,-0.8917,-0.8868,-0.8917,-0.8935,-0.8858,-0.8865,-0.8865,-0.8865,-0.8865,-0.8865,-0.8875,-0.9119,-0.9599,-0.9735,-0.97,-0.9676,-0.969,-0.974,-0.974,-0.9752,-0.9769,-0.975,-0.9752,-0.9769,-0.9743,-0.9726,-0.9487,-0.8904,-0.9473,-0.9459,-0.8865,-0.895,-0.892,-0.8896,-0.8896,-0.8858,-0.9066,-0.9374,-0.9486,-0.8977,-0.837,-0.7692,-0.6885,0.0,-0.5789,-0.5437,-0.5428,-0.5428,-0.5428,-0.5428,-0.542,-0.5599,-0.5599,-0.583,0.0,0.0,0.0,0.0,0.0,0.0,0.0,0.0,0.0,0.0,0.0,0.0,-0.8662,-0.8604,-0.857,-0.8464,-0.8513,-0.8513,-0.868,-0.8773,-0.8665,-0.8468,-0.86,-0.8746,-0.8939,-0.8869,-0.894,-0.894,-0.894,-0.894,0.0,-0.894,-0.8886,-0.8907,-0.8733,-0.8508,-0.8374,-0.8374,-0.8445,-0.8532,-0.8638,-0.8713,-0.8838,-0.8821,-0.871,-0.8513,-0.8073,-0.8267,-0.8623,-0.879,-0.8945,-0.8882,-0.8944,-0.8849,-0.8866,-0.8923,-0.8893,-0.8882,-0.8883,-0.9205,-0.9405,-0.9467,-0.9435,-0.9497,-0.9497,-0.9497,-0.9497,-0.9497,-0.9459,-0.952,-0.9763,-0.9772,-0.9858,-0.9858,-0.9806,-0.9768,-0.9768,-0.9823,-0.9834,-0.9775,-0.9827,-0.9834,-0.9772,-0.9808,-0.9683,-0.94,-0.971,-0.9669,-0.9399,-0.9483,-0.9259,-0.8853,-0.8878,-0.8886,-0.8832,-0.9208,-0.9378,-0.8974,-0.8336,-0.7614,0.0,-0.6234,-0.5718,-0.5423,-0.5428,-0.5428,-0.5428,-0.5428,-0.5428,-0.5428,-0.5308,-0.546,-0.602,0.0,0.0,0.0,0.0,0.0,0.0,0.0,0.0,0.0,0.0,0.0,-0.8353,-0.835,-0.8374,-0.8418,-0.8377,-0.8374,-0.8418,-0.8526,-0.8526,-0.8425,-0.8615,-0.8679,-0.8762,-0.8804,-0.8896,-0.8937,-0.8893,-0.8896,0.0,-0.894,-0.8876,-0.8889,-0.8777,-0.8686,-0.8663,-0.8491,-0.8481,-0.857,-0.8834,-0.8889,-0.8798,-0.8903,-0.8838,-0.8783,-0.8354,-0.8472,-0.8779,-0.8828,-0.8886,-0.894,-0.894,-0.894,-0.895,-0.8994,-0.9001,-0.9028,-0.8888,-0.9218,-0.954,-0.9816,-0.9799,-0.9756,-0.9756,-0.9756,-0.9756,-0.9756,-0.9846,-0.9796,-0.9796,-0.9761,-0.9822,-0.9822,-0.9822,-0.9822,-0.9822,-0.9822,-0.9822,-0.9822,-0.9822,-0.9822,-0.9822,-0.9847,-0.984,-0.9819,-0.9741,-0.9808,-0.9796,-0.9766,-0.9569,-0.9202,-0.9171,-0.9077,-0.8367,-0.8815,-0.9086,-0.8788,-0.8258,-0.7614,0.0,-0.6234,-0.5718,-0.5423,-0.5428,-0.5428,-0.5428,-0.5428,-0.5428,-0.5428,-0.5488,-0.5742,-0.6196,0.0,0.0,0.0,0.0,0.0,0.0,0.0,0.0,0.0,0.0,0.0,-0.8052,-0.8045,-0.8113,-0.8269,-0.8126,-0.8116,-0.8272,-0.8275,-0.8275,-0.8275,-0.857,-0.8635,-0.8598,-0.8645,-0.8794,-0.893,-0.8777,-0.8798,0.0,-0.894,-0.8937,-0.8937,-0.8937,-0.8842,-0.8726,-0.8876,-0.8838,-0.873,-0.8882,-0.8937,-0.8937,-0.894,-0.8835,-0.871,-0.8706,-0.8595,-0.852,-0.8779,-0.8937,-0.894,-0.894,-0.894,-0.8974,-0.9349,-0.9384,-0.9349,-0.8931,-0.8872,-0.9036,-0.9664,-0.9815,-0.9815,-0.9815,-0.9815,-0.9815,-0.9815,-0.9819,-0.9819,-0.9819,-0.9819,-0.9822,-0.9822,-0.9822,-0.9822,-0.9822,-0.9822,-0.9822,-0.9822,-0.9822,-0.9822,-0.9822,-0.9819,-0.9819,-0.9822,-0.9819,-0.9819,-0.9819,-0.9799,-0.9853,-0.9849,-0.981,-0.9415,-0.7406,-0.7896,-0.814,-0.7736,-0.7343,-0.6909,-0.6366,-0.5857,-0.5443,-0.5243,-0.5125,-0.506,-0.506,-0.506,-0.5125,-0.5394,-0.547,-0.5552,-0.5898,0.0,0.0,0.0,0.0,0.0,0.0,0.0,0.0,0.0,0.0,0.0,-0.8041,-0.8038,-0.8062,-0.8109,-0.8065,-0.8062,-0.8113,-0.8218,-0.8218,-0.8116,-0.8411,-0.8479,-0.8446,-0.8486,-0.8638,-0.8781,-0.873,-0.8798,-0.894,-0.894,-0.894,-0.894,-0.894,-0.891,-0.8872,-0.892,-0.891,-0.8872,-0.892,-0.894,-0.894,-0.894,-0.8906,-0.8866,-0.8866,-0.8791,-0.8632,-0.8893,-0.9011,-0.9062,-0.8964,-0.9011,-0.9096,-0.9257,-0.9384,-0.9443,-0.9528,-0.9534,-0.9622,-0.9789,-0.9754,-0.9822,-0.9822,-0.9781,-0.9814,-0.9836,-0.9784,-0.9811,-0.9836,-0.9787,-0.9851,-0.9851,-0.9814,-0.9794,-0.9839,-0.9791,-0.9851,-0.9851,-0.982,-0.9748,-0.9748,-0.9748,-0.9748,-0.9748,-0.9777,-0.9851,-0.9851,-0.9825,-0.9827,-0.9853,-0.9804,-0.9697,-0.6689,-0.7177,-0.7411,-0.7129,-0.6797,0.0,-0.6034,-0.5596,-0.5233,-0.5081,-0.4982,-0.4918,-0.4918,-0.4918,-0.4979,-0.5165,-0.524,-0.5379,-0.5681,0.0,0.0,0.0,0.0,0.0,0.0,0.0,0.0,0.0,0.0,0.0,-0.8038,-0.8038,-0.8038,-0.8038,-0.8038,-0.8038,-0.8038,-0.8136,-0.8136,-0.8041,-0.8286,-0.8357,-0.8275,-0.8364,-0.8482,-0.8625,-0.8625,-0.871,0.0,-0.8913,-0.894,-0.894,-0.894,-0.894,-0.894,-0.894,-0.894,-0.894,-0.894,-0.894,-0.894,-0.894,-0.894,-0.894,-0.894,-0.8872,-0.8815,-0.8913,-0.9001,-0.9062,-0.9028,-0.9086,-0.9184,-0.9296,-0.9442,-0.9603,-0.9759,-0.9748,-0.9813,-0.9813,-0.9764,-0.9839,-1.0022,-0.9861,-0.9908,-1.0125,-0.9898,-0.9761,-0.9794,-0.9814,-0.9861,-1.017,-1.0137,-1.0137,-1.0136,-0.9952,-0.988,-1.0137,-1.0099,-1.0149,-1.0149,-1.0149,-1.0149,-1.0149,-1.0127,-1.0049,-0.9794,-0.9771,-0.9778,-0.9813,-0.9813,-0.9853,0.0,-0.6576,-0.6797,0.0,0.0,-0.6091,-0.5803,-0.5406,0.0,-0.4928,-0.4894,-0.4891,-0.4901,-0.4894,-0.4901,-0.4945,-0.506,-0.526,0.0,0.0,0.0,0.0,0.0,0.0,0.0,0.0,0.0,0.0,0.0,0.0,-0.8038,-0.8038,-0.8038,-0.8038,-0.8038,-0.8038,-0.8038,-0.8038,-0.8038,-0.8041,-0.8184,-0.8255,-0.8255,-0.8255,-0.8333,0.0,-0.8479,-0.8567,-0.8723,-0.8876,-0.894,-0.894,-0.894,-0.893,-0.8923,-0.8933,-0.893,-0.8923,-0.8933,-0.894,-0.894,-0.894,-0.894,-0.894,-0.894,-0.894,-0.894,-0.894,-0.8947,-0.8984,-0.912,-0.9161,-0.9245,-0.954,-0.9608,-0.9649,-0.9791,-0.9822,-0.9822,-0.9822,-0.9829,-0.9883,-1.0156,-1.0066,-0.9999,-1.0654,-1.0168,-0.9817,-0.9797,-0.9818,-1.0046,-1.0568,-1.0728,-1.0678,-1.0693,-1.0169,-1.0163,-1.0689,-1.07,-1.0707,-1.0707,-1.0707,-1.0707,-1.0707,-1.0678,-1.0329,-0.9794,-0.9791,-0.9842,-0.9822,-0.9832,-0.9764,-0.5158,0.0,-0.5528,-0.5416,-0.5311,-0.5216,0.0,-0.4955,-0.4782,-0.4752,0.0,-0.4606,-0.4721,-0.465,-0.4721,-0.5182,-0.5284,-0.5494,0.0,0.0,0.0,0.0,0.0,0.0,0.0,0.0,0.0,0.0,0.0,-0.8038,-0.8038,-0.8038,-0.8038,-0.8038,-0.8038,-0.8038,-0.8038,-0.8038,-0.8038,-0.8038,-0.8075,-0.8096,-0.8096,-0.8096,-0.8177,-0.8326,-0.8435,-0.8567,-0.8723,-0.8876,-0.894,-0.894,-0.894,-0.8866,-0.8777,-0.8896,-0.8866,-0.8781,-0.8899,-0.894,-0.894,-0.894,-0.894,-0.894,-0.894,-0.894,-0.894,-0.894,-0.9018,-0.911,-0.9144,-0.9239,-0.9374,-0.9564,-0.9608,-0.9649,-0.9791,-0.9822,-0.9822,-0.9822,-0.9791,-0.9878,-0.9915,-1.0236,-1.0496,-1.0686,-1.0604,-1.0307,-0.9824,-0.9826,-0.9911,-0.9972,-1.0429,-1.0713,-1.075,-1.051,-1.0575,-1.0708,-1.0685,-1.075,-1.075,-1.075,-1.075,-1.075,-1.0201,-0.9885,-0.9794,-0.9745,-0.9794,-0.9825,-0.9814,-0.9791,-0.3826,-0.4297,-0.5032,-0.5085,-0.4998,-0.4851,-0.4971,0.0,0.0,0.0,0.0,-0.4543,-0.4572,-0.4575,0.0,-0.5094,-0.5274,0.0,0.0,0.0,0.0,0.0,0.0,0.0,0.0,0.0,0.0,0.0,0.0,-0.8038,-0.8038,-0.8038,-0.8038,-0.8038,-0.8038,-0.8038,-0.8038,-0.8038,-0.8038,-0.8038,-0.8038,-0.8038,-0.8038,-0.8038,-0.8085,-0.8174,-0.8323,-0.8469,-0.8618,-0.8771,-0.8876,-0.894,-0.894,-0.8889,-0.8825,-0.891,-0.8886,-0.8825,-0.891,-0.894,-0.894,-0.894,-0.894,-0.894,-0.894,-0.8984,-0.9022,-0.8957,-0.8994,-0.9086,-0.9222,-0.932,-0.9435,-0.9656,-0.9707,-0.9727,-0.9805,-0.9822,-0.9822,-0.9822,-0.9818,-0.9945,-0.9886,-1.021,-1.0623,-1.062,-1.0753,-1.0568,-1.0273,-0.994,-0.9861,-1.0115,-1.0521,-1.0646,-1.0714,-1.0646,-1.0733,-1.0733,-1.0677,-1.0721,-1.0721,-1.0721,-1.0687,-1.075,-1.04,-1.0216,-1.018,-0.9943,-0.99,-1.0183,-0.9885,-0.9754,-0.2477,-0.3331,-0.4561,-0.4826,-0.4891,-0.4938,-0.5004,0.0,0.0,0.0,0.0,0.0,0.0,0.0,0.0,0.0,0.0,0.0,0.0,0.0,0.0,0.0,0.0,0.0,0.0,0.0,0.0,0.0,0.0,-0.8038,-0.8038,-0.8038,-0.8038,-0.8038,-0.8038,-0.8038,-0.8038,-0.8038,-0.8038,-0.8038,-0.8038,-0.8038,-0.8038,-0.8038,-0.8038,-0.8048,0.0,0.0,-0.8462,-0.8615,-0.8767,-0.8903,-0.8903,-0.8903,-0.8906,-0.893,-0.8923,-0.8906,-0.893,-0.894,-0.894,-0.894,-0.8954,-0.8971,-0.8971,-0.9072,-0.9164,-0.9039,-0.9005,-0.9069,-0.9347,-0.9415,-0.9486,-0.9754,-0.9822,-0.9822,-0.9822,-0.9822,-0.9822,-0.9822,-0.9944,-0.9972,-1.0122,-1.0266,-1.0411,-1.0697,-1.0743,-1.0654,-1.076,-1.0273,-1.0118,-1.0616,-1.0647,-1.0713,-1.0711,-1.0721,-1.0721,-1.0721,-1.0721,-1.0721,-1.0721,-1.0721,-1.066,-1.0664,-1.0661,-1.0659,-1.076,-1.0139,-1.0126,-1.0728,-1.0215,-0.9945,-0.1916,-0.239,-0.265,-0.2692,-0.3981,-0.5253,-0.491,0.0,0.0,0.0,0.0,0.0,0.0,-0.4779,-0.4975,0.0,0.0,0.0,0.0,0.0,0.0,0.0,0.0,0.0,0.0,0.0,0.0,0.0,0.0,-0.8038,-0.8038,-0.8038,-0.8038,-0.8038,-0.8038,-0.8038,-0.8038,-0.8038,-0.8038,-0.8038,-0.8038,-0.8038,-0.8038,-0.8038,-0.8038,-0.8048,0.0,-0.8282,-0.8316,-0.8459,-0.8608,-0.8747,-0.8747,-0.8747,-0.876,-0.8893,-0.8855,-0.8764,-0.8893,-0.894,-0.894,-0.894,-0.9022,-0.912,-0.912,-0.9225,-0.934,-0.932,-0.9313,-0.9354,-0.953,-0.9574,-0.9615,-0.9781,-0.9822,-0.9822,-0.9822,-0.9822,-0.9822,-0.9822,-0.9818,-0.9972,-1.0256,-1.0531,-1.0678,-1.0697,-1.07,-1.0639,-1.0644,-1.0588,-1.0612,-1.064,-1.0743,-1.0694,-1.0717,-1.0721,-1.0721,-1.0721,-1.0721,-1.0721,-1.0721,-1.0721,-1.0711,-1.0687,-1.0687,-1.0733,-1.069,-1.0041,-1.011,-1.064,-1.0637,-1.0304,-0.08,-0.2224,-0.3581,-0.4229,-0.428,-0.4359,-0.5006,0.0,0.0,0.0,0.0,0.0,0.0,0.0,0.0,0.0,0.0,0.0,0.0,0.0,0.0,0.0,0.0,0.0,0.0,0.0,0.0,0.0,0.0,0.0,-0.8038,-0.8038,-0.8038,-0.8038,-0.8038,-0.8038,-0.8038,-0.8038,-0.8038,-0.8038,-0.8038,-0.8038,-0.8038,-0.8038,-0.8038,-0.8041,0.0,-0.8194,-0.8275,-0.834,-0.8455,-0.8594,-0.8679,-0.871,-0.873,-0.8882,-0.8896,-0.8845,-0.8913,-0.894,-0.894,-0.894,-0.8984,-0.9052,-0.913,-0.9259,-0.9398,-0.9483,-0.9445,-0.9415,-0.9568,-0.9608,-0.9646,-0.9788,-0.9822,-0.9822,-0.9822,-0.9822,-0.9822,-0.9822,-0.9818,-0.9972,-1.0253,-1.0531,-1.0678,-1.0697,-1.0721,-1.0697,-1.0757,-1.0677,-1.0694,-1.0757,-1.068,-1.0721,-1.0721,-1.0721,-1.0721,-1.0721,-1.0721,-1.0721,-1.0721,-1.0721,-1.0721,-1.0721,-1.0721,-1.0646,-1.0757,-1.0376,-1.0471,-1.0659,-1.071,-1.0373,0.0,-0.2209,-0.4727,-0.566,-0.47,-0.3841,-0.5258,0.0,0.0,0.0,0.0,0.0,0.0,0.0,0.0,0.0,0.0,0.0,0.0,0.0,0.0,0.0,0.0,0.0,0.0,0.0,0.0,0.0,0.0,0.0,-0.7936,-0.7936,-0.7936,-0.7936,-0.797,-0.7987,-0.7987,-0.8021,-0.8038,-0.8038,-0.8038,-0.8038,-0.8038,-0.8038,-0.8038,-0.8038,-0.8038,-0.8106,-0.8218,-0.8218,-0.8303,-0.8445,-0.856,-0.8648,-0.873,-0.8882,-0.894,-0.894,-0.894,-0.894,-0.894,-0.894,-0.8988,-0.9062,-0.9174,-0.9337,-0.9507,-0.9625,-0.9574,-0.951,-0.9629,-0.9659,-0.9686,-0.9795,-0.9822,-0.9822,-0.9822,-0.9822,-0.9822,-0.9822,-0.9944,-1.01,-1.0122,-1.0399,-1.0678,-1.0697,-1.0721,-1.0721,-1.0721,-1.0721,-1.0721,-1.0721,-1.0721,-1.0721,-1.0721,-1.0721,-1.0721,-1.0721,-1.0721,-1.0721,-1.0721,-1.0721,-1.0721,-1.0721,-1.0721,-1.0663,-1.0682,-1.0663,-1.0663,-1.0675,-1.0663,-1.0331,0.0,-0.2224,-0.4516,-0.459,-0.4667,0.0,-0.5995,-0.5804,0.0,0.0,0.0,0.0,0.0,0.0,0.0,0.0,0.0,0.0,0.0,0.0,0.0,0.0,0.0,0.0,0.0,0.0,0.0,0.0,0.0,0.0,-0.7631,-0.7631,-0.7631,-0.7631,-0.7756,-0.7828,-0.7828,-0.797,-0.8038,-0.8038,-0.8038,-0.8038,-0.8038,-0.8038,-0.8038,-0.8038,-0.8038,-0.8045,-0.8055,-0.8055,-0.8147,-0.8286,-0.8299,-0.8469,-0.873,-0.8882,-0.894,-0.894,-0.894,-0.894,-0.894,-0.894,-0.9123,-0.9351,-0.9361,-0.9564,-0.9791,-0.9802,-0.9798,-0.9791,-0.9802,-0.9805,-0.9808,-0.9819,-0.9822,-0.9822,-0.9822,-0.9822,-0.9822,-0.9822,-0.9944,-1.01,-1.0253,-1.0399,-1.0544,-1.0697,-1.0721,-1.0721,-1.0721,-1.0721,-1.0721,-1.0721,-1.0721,-1.0721,-1.0721,-1.0721,-1.0721,-1.0721,-1.0721,-1.0721,-1.0721,-1.0721,-1.0721,-1.0721,-1.0721,-1.0714,-1.0704,-1.0714,-1.0714,-1.07,-1.0682,-1.0344,0.0,-0.2225,-0.4483,-0.4504,-0.4577,0.0,0.0,0.0,0.0,0.0,0.0,0.0,0.0,0.0,0.0,0.0,0.0,0.0,0.0,0.0,0.0,0.0,0.0,0.0,0.0,0.0,0.0,0.0,0.0,-0.76,-0.76,-0.76,-0.76,-0.76,-0.7651,-0.7678,-0.7678,-0.7736,-0.7811,-0.7899,-0.7994,-0.8038,-0.8038,-0.8038,-0.8038,-0.8038,-0.8038,-0.8038,-0.8038,-0.8038,-0.8072,-0.8136,-0.8235,-0.8448,-0.8716,-0.8774,-0.8855,-0.894,-0.894,-0.894,-0.8954,-0.9042,-0.9147,-0.9273,-0.9466,-0.9602,-0.9707,-0.9795,-0.9822,-0.9822,-0.9822,-0.9822,-0.9822,-0.9822,-0.9822,-0.9822,-0.9822,-0.9822,-0.9822,-0.9822,-0.9944,-1.01,-1.0253,-1.0399,-1.0544,-1.0697,-1.0721,-1.0721,-1.0721,-1.0721,-1.0721,-1.0721,-1.0721,-1.0721,-1.0721,-1.0721,-1.0721,-1.0721,-1.0721,-1.0761,-1.0722,-1.0725,-1.0725,-1.0725,-1.0725,-1.0678,-1.0721,-1.0721,-1.0721,-1.0717,-1.0699,-1.0623,0.0,-0.1482,-0.3336,-0.4243,0.0,0.0,0.0,0.0,0.0,0.0,0.0,0.0,0.0,0.0,0.0,0.0,0.0,0.0,0.0,0.0,0.0,0.0,0.0,0.0,0.0,0.0,0.0,0.0,0.0,-0.7455,-0.7455,-0.7455,-0.7455,-0.7455,-0.7502,-0.7529,-0.7529,-0.7577,-0.7648,-0.7746,-0.7896,-0.7991,-0.8038,-0.8038,-0.8038,-0.8038,-0.8038,-0.8038,-0.8038,-0.8038,-0.8038,-0.8055,-0.8211,-0.8421,-0.8645,-0.8693,-0.8808,-0.894,-0.894,-0.894,-0.896,-0.9106,-0.9188,-0.9273,-0.953,-0.9642,-0.9696,-0.9795,-0.9822,-0.9822,-0.9822,-0.9822,-0.9822,-0.9822,-0.9822,-0.9822,-0.9822,-0.9822,-0.9822,-0.9822,-0.9985,-1.0154,-1.0263,-1.0439,-1.0599,-1.0704,-1.0721,-1.0721,-1.0721,-1.0721,-1.0721,-1.0721,-1.0721,-1.0721,-1.0721,-1.0721,-1.0721,-1.0721,-1.0768,-1.0839,-1.0667,-1.0904,-1.1039,-1.0948,-1.0766,-1.0689,-1.0721,-1.0721,-1.0721,-1.0717,-1.0747,-1.0699,0.0,-0.0056,-0.0789,0.0,0.0,0.0,0.0,0.0,0.0,0.0,0.0,0.0,0.0,0.0,0.0,0.0,0.0,0.0,0.0,0.0,0.0,0.0,0.0,0.0,0.0,0.0,0.0,0.0,0.0,-0.7139,-0.7139,-0.7139,-0.7139,-0.7139,-0.7288,-0.737,-0.737,-0.7519,-0.7597,-0.76,-0.774,-0.7889,-0.8038,-0.8038,-0.8038,-0.8038,-0.8038,-0.8038,-0.8038,-0.8038,-0.8038,-0.8055,-0.8208,-0.8353,-0.8499,-0.8652,-0.8804,-0.8937,-0.894,-0.894,-0.896,-0.911,-0.9259,-0.9408,-0.9564,-0.971,-0.9822,-0.9822,-0.9822,-0.9822,-0.9822,-0.9822,-0.9822,-0.9822,-0.9822,-0.9822,-0.9822,-0.9822,-0.9822,-0.9825,-1.0073,-1.0283,-1.0283,-1.0527,-1.0721,-1.0721,-1.0721,-1.0721,-1.0721,-1.0721,-1.0721,-1.0721,-1.0721,-1.0721,-1.0721,-1.0721,-1.0721,-1.0721,-1.1004,-1.1087,-1.0674,-1.122,-1.1625,-1.1646,-1.0943,-1.0721,-1.0721,-1.0721,-1.0721,-1.0721,-1.0721,-1.0721,0.0,-0.217,0.0,0.0,0.0,0.0,0.0,0.0,0.0,0.0,0.0,0.0,0.0,0.0,0.0,0.0,0.0,0.0,0.0,0.0,0.0,0.0,0.0,0.0,0.0,0.0,0.0,0.0,0.0,-0.6993,-0.6993,-0.7085,-0.7095,-0.6993,-0.7132,-0.721,-0.721,-0.7255,-0.7333,-0.7441,-0.7482,-0.7634,-0.7882,-0.7991,-0.8038,-0.8038,-0.8038,-0.8038,-0.8038,-0.8038,-0.8038,-0.8045,-0.8089,-0.8201,-0.835,-0.8496,-0.8648,-0.8794,-0.8903,-0.894,-0.8981,-0.9232,-0.9344,-0.9429,-0.9683,-0.9788,-0.9822,-0.9822,-0.9822,-0.9822,-0.9822,-0.9822,-0.9822,-0.9822,-0.9822,-0.9849,-0.9958,-0.9981,-1.0015,-1.0124,-1.0297,-1.0429,-1.0429,-1.0588,-1.0721,-1.0721,-1.0721,-1.0721,-1.0721,-1.0721,-1.0721,-1.0721,-1.0721,-1.0721,-1.0721,-1.0721,-1.0721,-1.0721,-1.1004,-1.1135,-1.1094,-1.1197,-1.1193,-1.0956,-1.0816,-1.0692,-1.0721,-1.0721,-1.0721,-1.0721,-1.0721,-1.0721,-0.0338,0.0,0.0,0.0,0.0,0.0,0.0,0.0,0.0,0.0,0.0,0.0,0.0,0.0,0.0,0.0,0.0,0.0,0.0,0.0,0.0,0.0,0.0,0.0,0.0,0.0,0.0,0.0,-0.6837,-0.6837,-0.6837,-0.6919,-0.6926,-0.6841,-0.6919,-0.6993,-0.7054,-0.7054,-0.7132,-0.7282,-0.7343,-0.7495,-0.7733,-0.7882,-0.798,-0.8038,-0.8038,-0.8038,-0.8038,-0.8038,-0.8038,-0.8038,-0.8038,-0.8133,-0.8282,-0.8367,-0.853,-0.8723,-0.8815,-0.8889,-0.8977,-0.9215,-0.9334,-0.9425,-0.9663,-0.9778,-0.9822,-0.9822,-0.9822,-0.9822,-0.9822,-0.9822,-0.9836,-0.9897,-0.9866,-0.988,-1.0093,-1.0093,-1.0097,-1.0249,-1.0395,-1.049,-1.049,-1.0619,-1.0721,-1.0721,-1.0721,-1.0721,-1.0721,-1.0721,-1.0721,-1.0721,-1.0721,-1.0721,-1.0721,-1.0721,-1.0721,-1.0721,-1.1056,-1.1214,-1.1158,-1.1248,-1.1131,-1.0961,-1.0717,-1.0705,-1.0675,-1.0748,-1.0721,-1.0721,-1.0721,-1.0721,-0.1183,0.0,0.0,0.0,0.0,0.0,0.0,0.0,0.0,0.0,0.0,0.0,0.0,0.0,0.0,0.0,0.0,0.0,0.0,0.0,0.0,0.0,0.0,0.0,0.0,0.0,0.0,0.0,-0.6678,-0.6678,-0.6678,-0.6695,-0.6695,-0.6678,-0.6695,-0.6766,-0.6905,-0.6909,-0.698,-0.7122,-0.7261,-0.7417,-0.7584,-0.774,-0.7896,-0.8038,-0.8038,-0.8038,-0.8038,-0.8038,-0.8038,-0.8038,-0.8038,-0.8126,-0.8252,-0.8265,-0.8448,-0.8693,-0.8706,-0.8811,-0.896,-0.9106,-0.9256,-0.9408,-0.9564,-0.9707,-0.9822,-0.9822,-0.9822,-0.9822,-0.9822,-0.9822,-0.9859,-1.0012,-0.993,-0.9907,-1.0212,-1.0171,-1.012,-1.0287,-1.0426,-1.0514,-1.0514,-1.0629,-1.0721,-1.0721,-1.0721,-1.0721,-1.0721,-1.0721,-1.0721,-1.0721,-1.0721,-1.0721,-1.0721,-1.0731,-1.0741,-1.0741,-1.1019,-1.1185,-1.1185,-1.12,-1.1255,-1.1238,-1.0975,-1.0695,-1.069,-1.0692,-1.0755,-1.0741,-1.0741,-1.0734,-0.3696,-0.1819,0.0,0.0,0.0,0.0,0.0,0.0,0.0,0.0,0.0,0.0,0.0,0.0,0.0,0.0,0.0,0.0,0.0,0.0,0.0,0.0,0.0,0.0,0.0,0.0,0.0,-0.6522,-0.6522,-0.6522,-0.6522,-0.6634,-0.6647,-0.6525,-0.6637,-0.6715,-0.6749,-0.6749,-0.6824,-0.6973,-0.7007,-0.7163,-0.7431,-0.7692,-0.7896,-0.8038,-0.8038,-0.8038,-0.8038,-0.8038,-0.8038,-0.8038,-0.8038,-0.8058,-0.8102,-0.8225,-0.8381,-0.855,-0.8669,-0.8811,-0.896,-0.9106,-0.9256,-0.9408,-0.9564,-0.9707,-0.9822,-0.9822,-0.9822,-0.9822,-0.9822,-0.9822,-0.9859,-1.0012,-0.993,-0.9907,-1.0212,-1.0253,-1.0307,-1.0575,-1.0649,-1.067,-1.067,-1.07,-1.0721,-1.0721,-1.0721,-1.0721,-1.0721,-1.0721,-1.0721,-1.0721,-1.0721,-1.0721,-1.0721,-1.0829,-1.09,-1.09,-1.1179,-1.1341,-1.1341,-1.1314,-1.1324,-1.1245,-1.1179,-1.1221,-1.1118,-1.1084,-1.1009,-1.0759,-1.09,-1.0836,0.0,0.0,0.0,0.0,0.0,0.0,0.0,0.0,0.0,0.0,0.0,0.0,0.0,0.0,0.0,0.0,0.0,0.0,0.0,0.0,0.0,0.0,0.0,0.0,0.0,0.0,0.0,-0.6373,-0.6373,-0.6373,-0.6373,-0.6447,-0.6454,-0.6373,-0.6447,-0.6522,-0.659,-0.6664,-0.6776,-0.6929,-0.6997,-0.7149,-0.7383,-0.7678,-0.7855,-0.7933,-0.8007,-0.7997,-0.7936,-0.8011,-0.8038,-0.8038,-0.8038,-0.8038,-0.8052,-0.813,-0.8296,-0.8492,-0.8574,-0.875,-0.895,-0.9025,-0.9201,-0.9395,-0.9476,-0.9649,-0.9822,-0.9822,-0.9822,-0.9839,-0.991,-0.993,-0.9968,-1.0124,-1.0042,-1.0012,-1.0317,-1.0382,-1.0449,-1.0677,-1.0721,-1.0721,-1.0721,-1.0721,-1.0721,-1.0721,-1.0721,-1.0721,-1.0721,-1.0721,-1.0721,-1.0721,-1.0721,-1.0721,-1.0721,-1.086,-1.0948,-1.0948,-1.1226,-1.1392,-1.1392,-1.146,-1.1501,-1.1497,-1.128,-1.1341,-1.1413,-1.1199,-1.1087,-1.0809,-1.0812,-1.0867,0.0,0.0,0.0,0.0,0.0,0.0,0.0,0.0,0.0,0.0,0.0,0.0,0.0,0.0,0.0,0.0,0.0,0.0,0.0,0.0,0.0,0.0,0.0,0.0,0.0,0.0,0.0,-0.622,-0.622,-0.6234,-0.6335,-0.6338,-0.6338,-0.6338,-0.6338,-0.6318,-0.6434,-0.6563,-0.6702,-0.6851,-0.7021,-0.7197,-0.738,-0.7624,-0.7763,-0.7821,-0.7974,-0.7967,-0.7862,-0.7987,-0.8038,-0.8038,-0.8038,-0.8038,-0.8038,-0.8038,-0.8211,-0.8448,-0.8472,-0.8665,-0.8903,-0.893,-0.912,-0.9347,-0.9371,-0.9571,-0.9788,-0.9815,-0.9822,-0.9849,-0.9978,-1.0029,-1.008,-1.0209,-1.0164,-1.0161,-1.0432,-1.049,-1.0538,-1.069,-1.0721,-1.0721,-1.0721,-1.0721,-1.0721,-1.0721,-1.0721,-1.0721,-1.0721,-1.0721,-1.0721,-1.0721,-1.0721,-1.0731,-1.0758,-1.0897,-1.0995,-1.1023,-1.128,-1.143,-1.143,-1.1552,-1.1619,-1.1619,-1.1369,-1.1304,-1.143,-1.1277,-1.1128,-1.0985,-1.0819,-1.0729,0.0,0.0,0.0,0.0,0.0,0.0,0.0,0.0,0.0,0.0,0.0,0.0,0.0,0.0,0.0,0.0,0.0,0.0,0.0,0.0,0.0,0.0,0.0,0.0,0.0,0.0,0.0,-0.6061,-0.6061,-0.6118,-0.6254,-0.6338,-0.6338,-0.6338,-0.6338,-0.6349,-0.6288,-0.6312,-0.639,-0.6536,-0.682,-0.7102,-0.7373,-0.7411,-0.757,-0.7821,-0.7974,-0.8028,-0.8011,-0.8031,-0.8038,-0.8038,-0.8038,-0.8038,-0.8038,-0.8038,-0.815,-0.8316,-0.8438,-0.8598,-0.8764,-0.8896,-0.9049,-0.9208,-0.934,-0.95,-0.9663,-0.9785,-0.9822,-0.9825,-0.9846,-0.9947,-1.0056,-1.0076,-1.0168,-1.0293,-1.0456,-1.049,-1.0538,-1.069,-1.0721,-1.0721,-1.0721,-1.0721,-1.0721,-1.0721,-1.0721,-1.0721,-1.0721,-1.0721,-1.0721,-1.0721,-1.0721,-1.0775,-1.0907,-1.105,-1.1189,-1.1324,-1.1494,-1.1589,-1.1589,-1.1609,-1.1619,-1.1619,-1.1579,-1.1569,-1.1589,-1.1436,-1.128,-1.1131,-1.1006,-1.0867,0.0,0.0,0.0,0.0,0.0,0.0,0.0,0.0,0.0,0.0,0.0,0.0,0.0,0.0,0.0,0.0,0.0,0.0,0.0,0.0,0.0,0.0,0.0,0.0,0.0,0.0,0.0,-0.6023,-0.5949,-0.6006,-0.6247,-0.6179,-0.6173,-0.6257,-0.6338,-0.6338,-0.6338,-0.6339,-0.6495,-0.6729,-0.6865,-0.7037,-0.7244,-0.7333,-0.7489,-0.7699,-0.7848,-0.7913,-0.7919,-0.8004,-0.8038,-0.8038,-0.8038,-0.8038,-0.8038,-0.8038,-0.8136,-0.8292,-0.8431,-0.8581,-0.8733,-0.8889,-0.9035,-0.9181,-0.9337,-0.949,-0.9639,-0.9781,-0.9822,-0.9839,-0.9927,-0.9998,-1.0093,-1.0259,-1.0348,-1.0415,-1.0477,-1.049,-1.0538,-1.069,-1.0721,-1.0721,-1.0721,-1.0721,-1.0721,-1.0721,-1.0721,-1.0721,-1.0721,-1.0721,-1.0721,-1.0721,-1.0721,-1.0748,-1.0816,-1.1033,-1.1192,-1.126,-1.1487,-1.1619,-1.1619,-1.1619,-1.1619,-1.1619,-1.1619,-1.1619,-1.1619,-1.1467,-1.1311,-1.1158,-1.1016,-1.0867,0.0,0.0,0.0,0.0,0.0,0.0,0.0,0.0,0.0,0.0,0.0,0.0,0.0,0.0,0.0,0.0,0.0,0.0,0.0,0.0,0.0,0.0,0.0,0.0,0.0,0.0,-0.5679,-0.5962,-0.5867,-0.5935,-0.6244,-0.6149,-0.6142,-0.6257,-0.6224,-0.622,-0.6338,-0.6366,-0.6569,-0.6871,-0.6871,-0.6966,-0.7143,-0.7258,-0.7397,-0.7553,-0.7733,-0.7811,-0.7824,-0.7977,-0.8038,-0.8038,-0.8038,-0.8038,-0.8038,-0.8038,-0.8113,-0.8238,-0.8418,-0.8557,-0.8682,-0.8876,-0.9011,-0.9133,-0.9323,-0.9459,-0.9588,-0.9771,-0.9822,-0.9846,-0.9961,-1.0019,-1.0107,-1.0327,-1.0378,-1.0409,-1.0524,-1.0521,-1.0538,-1.069,-1.0721,-1.0721,-1.0721,-1.0721,-1.0721,-1.0721,-1.0721,-1.0721,-1.0721,-1.0721,-1.0721,-1.0721,-1.0721,-1.0751,-1.0826,-1.1036,-1.1196,-1.1274,-1.1494,-1.1619,-1.1619,-1.1619,-1.1619,-1.1619,-1.1619,-1.1619,-1.1619,-1.1426,-1.1274,-1.1158,-1.0975,-1.0829,0.0,0.0,0.0,0.0,0.0,0.0,0.0,0.0,0.0,0.0,0.0,0.0,0.0,0.0,0.0,0.0,0.0,0.0,0.0,0.0,0.0,0.0,0.0,0.0,0.0,0.0,0.0,-0.5803,-0.5806,-0.5935,-0.6244,-0.6254,-0.6251,-0.6338,-0.6118,-0.6112,-0.6335,-0.6345,-0.642,-0.6712,-0.6712,-0.6861,-0.7139,-0.7149,-0.7238,-0.74,-0.7685,-0.7811,-0.7824,-0.7977,-0.8038,-0.8038,-0.8038,-0.8038,-0.8038,-0.8038,-0.8045,-0.8092,-0.8381,-0.8486,-0.8543,-0.8842,-0.8944,-0.9005,-0.9293,-0.9388,-0.9452,-0.9741,-0.9822,-0.9822,-0.9832,-0.9941,-1.0053,-1.007,-1.0073,-1.0188,-1.0616,-1.0595,-1.0538,-1.069,-1.0721,-1.0721,-1.0721,-1.0721,-1.0721,-1.0721,-1.0721,-1.0721,-1.0721,-1.0721,-1.0721,-1.0721,-1.0721,-1.0833,-1.1114,-1.1155,-1.1287,-1.1575,-1.1609,-1.1619,-1.1619,-1.1619,-1.1619,-1.1619,-1.1619,-1.1619,-1.1619,-1.1321,-1.1168,-1.1155,-1.0867,-1.0727,0.0,0.0,0.0,0.0,0.0,0.0,0.0,0.0,0.0,0.0,0.0,0.0,0.0,0.0,0.0,0.0,0.0,0.0,0.0,0.0,0.0,0.0,0.0,0.0,0.0,0.0,0.0,-0.5721,-0.563,-0.5691,-0.6091,-0.602,-0.601,-0.6108,-0.6057,-0.6057,-0.6112,-0.621,-0.6359,-0.6556,-0.6556,-0.6712,-0.7004,-0.7004,-0.7085,-0.7241,-0.7543,-0.7726,-0.7824,-0.7977,-0.8038,-0.8038,-0.8038,-0.8038,-0.8038,-0.8038,-0.8102,-0.8214,-0.8414,-0.8547,-0.8662,-0.8872,-0.9001,-0.9117,-0.932,-0.9449,-0.9568,-0.9768,-0.9822,-0.9822,-0.9822,-0.9863,-0.9954,-1.0151,-1.0198,-1.0293,-1.0643,-1.0677,-1.0656,-1.0711,-1.0721,-1.0721,-1.0721,-1.0721,-1.0721,-1.0721,-1.0721,-1.0721,-1.0721,-1.0721,-1.0721,-1.0721,-1.0721,-1.0802,-1.1009,-1.1111,-1.1253,-1.146,-1.1565,-1.1619,-1.1619,-1.1619,-1.1619,-1.1619,-1.1619,-1.1619,-1.1619,-1.1311,-1.1162,-1.1155,-1.086,-1.0721,0.0,0.0,0.0,0.0,0.0,0.0,0.0,0.0,0.0,0.0,0.0,0.0,0.0,0.0,0.0,0.0,0.0,0.0,0.0,0.0,0.0,0.0,0.0,0.0,0.0,0.0,0.0,-0.5512,-0.5527,0.0,-0.601,-0.5983,-0.5976,-0.6027,-0.603,-0.603,-0.603,-0.6183,-0.6332,-0.6471,-0.6471,-0.6607,-0.6854,-0.6905,-0.698,-0.7085,-0.739,-0.7604,-0.7756,-0.7957,-0.8038,-0.8038,-0.8038,-0.8038,-0.8038,-0.8038,-0.8136,-0.8292,-0.8431,-0.8581,-0.8733,-0.8889,-0.9035,-0.9181,-0.9337,-0.949,-0.9639,-0.9781,-0.9822,-0.9822,-0.9822,-0.9859,-0.9951,-1.0154,-1.028,-1.0405,-1.0602,-1.0643,-1.066,-1.0711,-1.0721,-1.0721,-1.0721,-1.0721,-1.0721,-1.0721,-1.0721,-1.0721,-1.0721,-1.0721,-1.0721,-1.0721,-1.0721,-1.0802,-1.1002,-1.1107,-1.125,-1.1453,-1.1562,-1.1619,-1.1619,-1.1619,-1.1619,-1.1619,-1.1619,-1.1619,-1.1619,-1.1311,-1.1138,-1.1084,-1.0836,-1.0721,0.0,0.0,0.0,0.0,0.0,0.0,0.0,0.0,0.0,0.0,0.0,0.0,0.0,0.0,0.0,0.0,0.0,0.0,0.0,0.0,0.0,0.0,0.0,0.0,0.0,0.0,-0.3389,-0.5246,-0.5654,-0.5864,-0.6023,-0.6169,-0.6179,-0.6027,-0.6023,-0.6023,-0.6023,-0.6176,-0.6325,-0.6464,-0.6464,-0.6549,-0.6705,-0.6854,-0.6926,-0.6953,-0.7248,-0.7461,-0.7621,-0.7913,-0.8035,-0.8038,-0.8038,-0.8038,-0.8038,-0.8038,-0.814,-0.8296,-0.8435,-0.8584,-0.8743,-0.8893,-0.9035,-0.9181,-0.9337,-0.949,-0.9639,-0.9781,-0.9822,-0.9822,-0.9822,-0.9934,-1.0049,-1.0056,-1.028,-1.0493,-1.0497,-1.05,-1.0541,-1.069,-1.0721,-1.0721,-1.0721,-1.0721,-1.0721,-1.0721,-1.0721,-1.0721,-1.0721,-1.0721,-1.0721,-1.0721,-1.0721,-1.0839,-1.1138,-1.1162,-1.1294,-1.1599,-1.1619,-1.1619,-1.1619,-1.1619,-1.1619,-1.1619,-1.1619,-1.1616,-1.1613,-1.1314,-1.1094,-1.0951,-1.0795,-1.0721,0.0,0.0,0.0,0.0,0.0,0.0,0.0,0.0,0.0,0.0,0.0,0.0,0.0,0.0,0.0,0.0,0.0,0.0,0.0,0.0,0.0,0.0,0.0,0.0,0.0,0.0,-0.205,0.0,-0.5641,-0.5847,-0.6183,-0.6046,-0.5908,-0.5867,-0.5864,-0.5864,-0.5864,-0.6017,-0.6169,-0.6318,-0.6318,-0.6454,-0.6702,-0.6746,-0.6878,-0.7099,-0.7404,-0.756,-0.7614,-0.7797,-0.794,-0.8038,-0.8038,-0.8038,-0.8038,-0.8038,-0.8201,-0.8428,-0.8469,-0.8655,-0.8882,-0.8923,-0.9035,-0.9181,-0.9337,-0.949,-0.9639,-0.9781,-0.9822,-0.9822,-0.9822,-0.9821,-0.9968,-1.0192,-1.0375,-1.0421,-1.0639,-1.0656,-1.067,-1.0711,-1.0721,-1.0721,-1.0721,-1.0721,-1.0721,-1.0721,-1.0721,-1.0721,-1.0721,-1.0721,-1.0721,-1.0721,-1.0721,-1.0839,-1.1138,-1.1162,-1.1294,-1.1599,-1.1619,-1.1619,-1.1619,-1.1619,-1.1619,-1.1619,-1.1619,-1.1565,-1.1453,-1.1369,-1.125,-1.1097,-1.0839,-1.0721,0.0,0.0,0.0,0.0,0.0,0.0,0.0,0.0,0.0,0.0,0.0,0.0,0.0,0.0,0.0,0.0,0.0,0.0,0.0,0.0,0.0,0.0,0.0,0.0,0.0,0.0,-0.1155,-0.4089,-0.4354,-0.5012,-0.6261,-0.6026,-0.5925,-0.5989,-0.5928,-0.5928,-0.5993,-0.6081,-0.6173,-0.6338,-0.6338,-0.6383,-0.6607,-0.6671,-0.6827,-0.7068,-0.7373,-0.7539,-0.7611,-0.7753,-0.7899,-0.8038,-0.8038,-0.8038,-0.8038,-0.8038,-0.8228,-0.8482,-0.8482,-0.8682,-0.894,-0.894,-0.9035,-0.9181,-0.9337,-0.949,-0.9639,-0.9781,-0.9822,-0.9822,-0.9832,-0.9834,-0.9718,-0.889,-0.9541,-1.048,-1.0599,-1.0626,-1.0643,-1.0707,-1.0721,-1.0721,-1.0721,-1.0721,-1.0721,-1.0721,-1.0721,-1.0721,-1.0721,-1.0721,-1.0721,-1.0721,-1.0721,-1.0839,-1.1138,-1.1162,-1.1294,-1.1599,-1.1619,-1.1619,-1.1619,-1.1619,-1.1619,-1.1619,-1.1619,-1.1575,-1.1487,-1.1423,-1.128,-1.107,-1.0897,-1.0782,0.0,0.0,0.0,0.0,0.0,0.0,0.0,0.0,0.0,0.0,0.0,0.0,0.0,0.0,0.0,0.0,0.0,0.0,0.0,0.0,0.0,0.0,0.0,0.0,0.0,0.0,-0.0672,-0.2303,-0.2567,-0.3739,-0.6186,-0.6098,-0.6074,-0.623,-0.6084,-0.6078,-0.6234,-0.6237,-0.6244,-0.6338,-0.6338,-0.6342,-0.6502,-0.6637,-0.6793,-0.6966,-0.7248,-0.7458,-0.7611,-0.7753,-0.7899,-0.8038,-0.8038,-0.8038,-0.8041,-0.8058,-0.8241,-0.8482,-0.8503,-0.8696,-0.894,-0.894,-0.9025,-0.9161,-0.933,-0.9476,-0.9615,-0.9778,-0.9822,-0.9825,-0.9849,-0.9718,-0.9062,-0.7024,-0.8531,-1.0371,-1.047,-1.0507,-1.0558,-1.0694,-1.0721,-1.0721,-1.0721,-1.0721,-1.0721,-1.0721,-1.0721,-1.0721,-1.0721,-1.0721,-1.0721,-1.0721,-1.0721,-1.0839,-1.1138,-1.1162,-1.1294,-1.1599,-1.1619,-1.1619,-1.1619,-1.1619,-1.1619,-1.1619,-1.1619,-1.1619,-1.1619,-1.1467,-1.1246,-1.0972,-1.0955,-1.0867,0.0,0.0,0.0,0.0,0.0,0.0,0.0,0.0,0.0,0.0,0.0,0.0,0.0,0.0,0.0,0.0,0.0,0.0,0.0,0.0,0.0,0.0,0.0,0.0,0.0,0.0,-0.0137,-0.05,-0.1906,-0.3732,-0.62,-0.5995,-0.5915,-0.6071,-0.5925,-0.5918,-0.6074,-0.6074,-0.6139,-0.6338,-0.6338,-0.64,-0.6658,-0.6685,-0.6848,-0.7109,-0.7292,-0.7458,-0.7611,-0.7753,-0.7899,-0.8038,-0.8038,-0.8038,-0.8055,-0.818,-0.8333,-0.8499,-0.8621,-0.8784,-0.894,-0.894,-0.8957,-0.9032,-0.93,-0.9401,-0.9483,-0.9747,-0.9822,-0.9825,-0.9849,-0.7833,-0.6025,-0.652,-0.8481,-1.0387,-1.0497,-1.0588,-1.0683,-1.0714,-1.0721,-1.0721,-1.0721,-1.0721,-1.0721,-1.0721,-1.0721,-1.0721,-1.0721,-1.0721,-1.0721,-1.0721,-1.0721,-1.0839,-1.1138,-1.1162,-1.1294,-1.1599,-1.1619,-1.1619,-1.1619,-1.1619,-1.1619,-1.1619,-1.1619,-1.1619,-1.1619,-1.1467,-1.1297,-1.1118,-1.1002,-1.0867,0.0,0.0,0.0,0.0,0.0,0.0,0.0,0.0,0.0,0.0,0.0,0.0,0.0,0.0,0.0,0.0,0.0,0.0,0.0,0.0,0.0,0.0,0.0,0.0,0.0,0.0,0.0,0.0,-0.1648,-0.3634,-0.5771,-0.5895,-0.5966,-0.6132,-0.6122,-0.6078,-0.6152,-0.6149,-0.6183,-0.6338,-0.6332,-0.6485,-0.6702,-0.678,-0.6936,-0.7153,-0.7383,-0.7529,-0.7617,-0.7834,-0.797,-0.8041,-0.7952,-0.7955,-0.7975,-0.8225,-0.8374,-0.852,-0.8662,-0.8811,-0.894,-0.894,-0.894,-0.8994,-0.9289,-0.9483,-0.9632,-0.9778,-0.9822,-0.9829,-0.9747,-0.7795,-0.5706,-0.5708,-0.7932,-1.0099,-1.0263,-1.0392,-1.0521,-1.0592,-1.0666,-1.0721,-1.0721,-1.0721,-1.0721,-1.0721,-1.0721,-1.0721,-1.0721,-1.0721,-1.0721,-1.0721,-1.0721,-1.0839,-1.1138,-1.1162,-1.1294,-1.1599,-1.1619,-1.1619,-1.1619,-1.1619,-1.1619,-1.1619,-1.1619,-1.1619,-1.1619,-1.1541,-1.1426,-1.1274,-1.1124,-1.0975,0.0,0.0,0.0,0.0,0.0,0.0,0.0,0.0,0.0,0.0,0.0,0.0,0.0,0.0,0.0,0.0,0.0,0.0,0.0,0.0,0.0,0.0,0.0,0.0,0.0,0.0,0.0,0.0,-0.137,-0.3128,-0.5278,-0.5352,-0.5647,-0.6228,-0.5893,-0.5879,-0.6281,-0.6271,-0.6281,-0.6312,-0.642,-0.6569,-0.6749,-0.6871,-0.7007,-0.7156,-0.7434,-0.757,-0.7621,-0.7885,-0.8014,-0.8041,-0.7959,-0.7969,-0.7992,-0.8231,-0.8384,-0.8642,-0.8669,-0.8818,-0.8947,-0.8947,-0.8981,-0.9069,-0.931,-0.9588,-0.9822,-0.9822,-0.9822,-0.9832,-0.9761,-0.8247,-0.6496,-0.602,-0.7891,-0.9927,-1.0029,-1.0192,-1.0354,-1.047,-1.0616,-1.0721,-1.0721,-1.0721,-1.0721,-1.0721,-1.0721,-1.0721,-1.0721,-1.0721,-1.0721,-1.0721,-1.0721,-1.0829,-1.1097,-1.1121,-1.1253,-1.1555,-1.1575,-1.1589,-1.1616,-1.1619,-1.1619,-1.1619,-1.1619,-1.1619,-1.1619,-1.1619,-1.1541,-1.1389,-1.1263,-1.1114,0.0,0.0,0.0,0.0,0.0,0.0,0.0,0.0,0.0,0.0,0.0,0.0,0.0,0.0,0.0,0.0,0.0,0.0,0.0,0.0,0.0,0.0,0.0,0.0,0.0,0.0,0.0,0.0,-0.0202,-0.1769,-0.519,-0.3956,-0.3981,-0.5972,-0.4325,-0.4382,-0.6291,-0.6281,-0.627,-0.6327,-0.6398,-0.6627,-0.683,-0.684,-0.7007,-0.7149,-0.7322,-0.7475,-0.7611,-0.7773,-0.7916,-0.8038,-0.8041,-0.7955,-0.7989,-0.8225,-0.8377,-0.8646,-0.8578,-0.8729,-0.886,-0.886,-0.9133,-0.9337,-0.9371,-0.9588,-0.9822,-0.9822,-0.9822,-0.9829,-0.9852,-0.8233,-0.6989,-0.8857,-0.9708,-1.0056,-1.0053,-1.027,-1.0473,-1.0487,-1.0616,-1.0721,-1.0721,-1.0721,-1.0721,-1.0721,-1.0721,-1.0721,-1.0721,-1.0721,-1.0721,-1.0721,-1.0721,-1.0789,-1.0958,-1.0972,-1.1097,-1.1399,-1.1416,-1.1477,-1.1613,-1.1619,-1.1619,-1.1619,-1.1619,-1.1619,-1.1619,-1.1619,-1.1541,-1.1392,-1.1372,-1.1216,0.0,0.0,0.0,0.0,0.0,0.0,0.0,0.0,0.0,0.0,0.0,0.0,0.0,0.0,0.0,0.0,0.0,0.0,0.0,0.0,0.0,0.0,0.0,0.0,0.0,0.0,0.0,0.0,0.0,-0.0658,-0.2203,-0.3536,-0.3734,-0.2584,-0.1762,-0.172,-0.2662,-0.436,-0.5627,-0.6276,-0.6589,-0.6729,-0.6774,-0.695,-0.7153,-0.7285,-0.7349,-0.7496,-0.7733,-0.7882,-0.7991,-0.7959,-0.7959,-0.7969,-0.7591,-0.4616,-0.5505,-0.833,-0.8682,-0.8798,-0.8746,-0.885,-0.8954,-0.9179,-0.9302,-0.9618,-0.9842,-0.9842,-0.9832,-0.9825,-0.9849,-0.9095,-0.8711,-0.9602,-0.9893,-0.9954,-1.0032,-1.0219,-1.0392,-1.0477,-1.0616,-1.0721,-1.0721,-1.0721,-1.0721,-1.0721,-1.0721,-1.0721,-1.0721,-1.0721,-1.0721,-1.0721,-1.0721,-1.0782,-1.0938,-1.1026,-1.1165,-1.1379,-1.1474,-1.1552,-1.1616,-1.1619,-1.1619,-1.1619,-1.1619,-1.1619,-1.1619,-1.1619,-1.1586,-1.1521,-1.1433,-1.1324,0.4667,0.0,0.0,0.0,0.0,0.0,0.0,0.0,0.0,0.0,0.0,0.0,0.0,0.0,0.0,0.0,0.0,0.0,0.0,0.0,0.0,0.0,0.0,0.0,0.0,0.0,0.0,0.0,0.0,0.0,0.0,-0.2499,-0.3188,-0.153,-0.0532,0.0,0.0,-0.28,-0.5049,-0.6518,-0.6746,-0.6525,-0.595,-0.6723,-0.7205,-0.7299,-0.7406,-0.7541,-0.7831,-0.7892,-0.7962,-0.7975,-0.7982,-0.7992,-0.74,-0.2772,-0.4048,-0.8108,-0.8477,-0.7574,-0.6493,-0.8285,-0.8388,-0.7772,-0.8011,-0.8417,-0.9101,-0.9605,-0.9839,-0.9825,-0.9842,-0.9832,-0.9836,-0.9893,-0.9863,-0.9873,-1.007,-1.0202,-1.0324,-1.0463,-1.0616,-1.0721,-1.0721,-1.0721,-1.0721,-1.0721,-1.0721,-1.0721,-1.0721,-1.0721,-1.0721,-1.0721,-1.0758,-1.0826,-1.0941,-1.108,-1.1226,-1.1382,-1.1535,-1.1619,-1.1619,-1.1619,-1.1619,-1.1619,-1.1619,-1.1619,-1.1619,-1.1619,-1.1619,-1.1616,-1.1504,-1.1433,0.0,0.0,0.0,0.0792,0.0,0.0,0.0,0.0,0.0,0.0,0.0,0.0,0.0,0.0,0.0,0.0,0.0,0.0,0.0,0.0,0.0,0.0,0.0,0.0,0.0,0.0,0.0,0.0,0.0,0.0,0.0,-0.0136,-0.1706,-0.5122,-0.1795,0.0,0.0,-0.2403,-0.4774,-0.7059,-0.6973,-0.5773,-0.3748,-0.6031,-0.7116,-0.7139,-0.7442,-0.766,-0.7758,-0.7922,-0.7982,-0.7975,-0.8009,-0.8022,-0.7626,-0.4932,-0.5659,-0.8052,-0.7982,-0.4639,-0.1227,-0.7067,-0.6992,-0.469,-0.469,-0.5626,-0.7111,-0.923,-0.9839,-0.9822,-0.9822,-0.9822,-0.9859,-1.0008,-0.993,-0.9903,-1.0209,-1.0276,-1.0324,-1.0463,-1.0616,-1.0721,-1.0721,-1.0721,-1.0721,-1.0721,-1.0721,-1.0721,-1.0721,-1.0721,-1.0721,-1.0721,-1.0853,-1.0945,-1.0948,-1.108,-1.1226,-1.1382,-1.1535,-1.1619,-1.1619,-1.1619,-1.1619,-1.1619,-1.1619,-1.1619,-1.1619,-1.1619,-1.1619,-1.1619,-1.1613,-1.1535,0.0,0.0,0.4384,0.3585,0.0,0.0,0.0,0.0,0.0,0.0,0.0,0.0,0.0,0.0,0.0,0.0,0.0,0.0,0.0,0.0,0.0,0.0,0.0,0.0,0.0,0.0,0.0,0.0,0.0,0.0,0.0,0.0,-0.0568,-0.182,-0.0607,0.0,0.0,-0.236,-0.4765,-0.707,-0.6022,-0.5687,-0.5939,-0.6715,-0.625,-0.471,-0.3191,-0.3543,-0.5379,-0.725,-0.7999,-0.8009,-0.8019,-0.8032,-0.7443,-0.2987,-0.4377,-0.8577,-0.838,-0.7315,-0.5607,-0.3691,-0.2287,-0.1528,-0.1528,-0.18,-0.3315,-0.8386,-0.9744,-0.9839,-0.9825,-0.9822,-0.9859,-1.0012,-0.993,-0.993,-1.0334,-1.0348,-1.0351,-1.0595,-1.0683,-1.0721,-1.0721,-1.0721,-1.0721,-1.0721,-1.0721,-1.0721,-1.0721,-1.0721,-1.0721,-1.0721,-1.0856,-1.0948,-1.0948,-1.1175,-1.1379,-1.1535,-1.1592,-1.1619,-1.1619,-1.1619,-1.1619,-1.1619,-1.1619,-1.1619,-1.1619,-1.1619,-1.1619,-1.1619,-1.1619,-1.1592,0.4582,0.4541,0.0,0.4852,0.3366,0.0,0.0254,0.0,0.0,0.0,0.0,0.0,0.0,0.0,0.0,0.0,0.0,0.0,0.0,0.0,0.0,0.0,0.0,0.0,0.0,0.0,0.0,0.0,0.0,0.0,0.0,0.0,0.0,0.0,0.0,-0.0781,-0.2545,-0.2387,-0.3966,-0.7055,-0.529,-0.5374,-0.7141,-0.7066,-0.6239,-0.4672,-0.1368,-0.0994,-0.2812,-0.6469,-0.8019,-0.7818,-0.5871,-0.5164,-0.4778,-0.1247,-0.3805,-0.8845,-0.8692,-0.8712,-0.8224,-0.4367,-0.1718,0.0,0.0,0.0,-0.1107,-0.6532,-0.8879,-0.9849,-0.9825,-0.9822,-0.9859,-1.0012,-0.993,-0.9944,-1.0395,-1.0382,-1.0368,-1.0663,-1.0721,-1.0721,-1.0721,-1.0721,-1.0721,-1.0721,-1.0721,-1.0721,-1.0721,-1.0721,-1.0721,-1.0721,-1.0856,-1.0992,-1.1097,-1.1331,-1.1514,-1.1613,-1.1619,-1.1619,-1.1619,-1.1619,-1.1643,-1.1694,-1.1647,-1.1643,-1.1694,-1.1643,-1.1619,-1.1619,-1.1619,-1.1619]}]]